Wetterdaten: Freitag, 14.10.2016
Datum Zeit Temp. A. Feuchte A. Luftdruck Regen Wind Richtung Richtung Sonnenschein ET UV Solar Taupunkt Windchill Windben Empfang
14.10.2016 00:00 6,6 C 92 % 1013,4 hPa 0,0 l/m 18,0 km/h (3 Bft) NO 46 0 min 0,000 mm 0,0 UV-I 0 W/m 5,4 C -0,3 C 24,1 km/h (4 Bft) 100,00 %
14.10.2016 00:02 6,6 C 92 % 1013,4 hPa 0,0 l/m 18,0 km/h (3 Bft) O-NO 57 0 min 0,000 mm 0,0 UV-I 0 W/m 5,4 C -0,3 C 25,7 km/h (4 Bft) 97,22 %
14.10.2016 00:04 6,6 C 92 % 1013,3 hPa 0,0 l/m 16,1 km/h (3 Bft) NO 53 0 min 0,000 mm 0,0 UV-I 0 W/m 5,4 C 0,5 C 24,1 km/h (4 Bft) 100,00 %
14.10.2016 00:06 6,6 C 92 % 1013,4 hPa 0,0 l/m 15,4 km/h (3 Bft) O-NO 63 0 min 0,000 mm 0,0 UV-I 0 W/m 5,4 C 0,8 C 22,5 km/h (4 Bft) 98,11 %
14.10.2016 00:08 6,5 C 92 % 1013,4 hPa 0,0 l/m 16,0 km/h (3 Bft) O-NO 69 0 min 0,000 mm 0,0 UV-I 0 W/m 5,3 C 0,4 C 20,9 km/h (4 Bft) 100,00 %
14.10.2016 00:10 6,5 C 92 % 1013,5 hPa 0,0 l/m 14,7 km/h (3 Bft) O 80 0 min 0,000 mm 0,0 UV-I 0 W/m 5,3 C 1,0 C 19,3 km/h (3 Bft) 100,00 %
14.10.2016 00:12 6,5 C 92 % 1013,5 hPa 0,0 l/m 10,1 km/h (2 Bft) O-NO 60 0 min 0,000 mm 0,0 UV-I 0 W/m 5,3 C 3,7 C 16,1 km/h (3 Bft) 100,00 %
14.10.2016 00:14 6,4 C 92 % 1013,5 hPa 0,0 l/m 16,1 km/h (3 Bft) O-NO 66 0 min 0,000 mm 0,0 UV-I 0 W/m 5,2 C 0,3 C 22,5 km/h (4 Bft) 100,00 %
14.10.2016 00:16 6,4 C 93 % 1013,5 hPa 0,0 l/m 13,6 km/h (3 Bft) O-NO 64 0 min 0,000 mm 0,0 UV-I 0 W/m 5,4 C 1,5 C 19,3 km/h (3 Bft) 98,08 %
14.10.2016 00:18 6,4 C 93 % 1013,5 hPa 0,0 l/m 15,3 km/h (3 Bft) O 80 0 min 0,000 mm 0,0 UV-I 0 W/m 5,4 C 0,6 C 24,1 km/h (4 Bft) 100,00 %
14.10.2016 00:20 6,4 C 93 % 1013,5 hPa 0,0 l/m 17,6 km/h (3 Bft) O-NO 71 0 min 0,000 mm 0,0 UV-I 0 W/m 5,4 C -0,4 C 25,7 km/h (4 Bft) 100,00 %
14.10.2016 00:22 6,4 C 93 % 1013,5 hPa 0,0 l/m 16,7 km/h (3 Bft) O-NO 65 0 min 0,000 mm 0,0 UV-I 0 W/m 5,4 C -0,0 C 27,4 km/h (4 Bft) 100,00 %
14.10.2016 00:24 6,4 C 93 % 1013,4 hPa 0,0 l/m 15,4 km/h (3 Bft) O 86 0 min 0,000 mm 0,0 UV-I 0 W/m 5,4 C 0,6 C 24,1 km/h (4 Bft) 100,00 %
14.10.2016 00:26 6,4 C 93 % 1013,3 hPa 0,0 l/m 19,9 km/h (4 Bft) O-NO 59 0 min 0,000 mm 0,0 UV-I 0 W/m 5,4 C -1,3 C 29,0 km/h (5 Bft) 100,00 %
14.10.2016 00:28 6,4 C 93 % 1013,3 hPa 0,0 l/m 17,5 km/h (3 Bft) O-NO 74 0 min 0,000 mm 0,0 UV-I 0 W/m 5,4 C -0,4 C 24,1 km/h (4 Bft) 100,00 %
14.10.2016 00:30 6,4 C 93 % 1013,2 hPa 0,0 l/m 16,8 km/h (3 Bft) O-NO 70 0 min 0,000 mm 0,0 UV-I 0 W/m 5,4 C -0,1 C 20,9 km/h (4 Bft) 100,00 %
14.10.2016 00:32 6,4 C 93 % 1013,2 hPa 0,0 l/m 18,7 km/h (3 Bft) O 81 0 min 0,000 mm 0,0 UV-I 0 W/m 5,4 C -0,9 C 24,1 km/h (4 Bft) 98,11 %
14.10.2016 00:34 6,4 C 93 % 1013,2 hPa 0,0 l/m 16,4 km/h (3 Bft) O-NO 63 0 min 0,000 mm 0,0 UV-I 0 W/m 5,4 C 0,1 C 24,1 km/h (4 Bft) 100,00 %
14.10.2016 00:36 6,4 C 93 % 1013,2 hPa 0,0 l/m 16,6 km/h (3 Bft) NO 51 0 min 0,000 mm 0,0 UV-I 0 W/m 5,4 C 0,0 C 25,7 km/h (4 Bft) 100,00 %
14.10.2016 00:38 6,3 C 93 % 1013,2 hPa 0,0 l/m 13,8 km/h (3 Bft) O-NO 70 0 min 0,000 mm 0,0 UV-I 0 W/m 5,3 C 1,3 C 20,9 km/h (4 Bft) 100,00 %
14.10.2016 00:40 6,3 C 93 % 1013,2 hPa 0,0 l/m 12,7 km/h (3 Bft) O 85 0 min 0,000 mm 0,0 UV-I 0 W/m 5,3 C 1,9 C 20,9 km/h (4 Bft) 100,00 %
14.10.2016 00:42 6,3 C 93 % 1013,2 hPa 0,0 l/m 17,9 km/h (3 Bft) O-NO 68 0 min 0,000 mm 0,0 UV-I 0 W/m 5,3 C -0,7 C 25,7 km/h (4 Bft) 100,00 %
14.10.2016 00:44 6,3 C 93 % 1013,2 hPa 0,0 l/m 16,3 km/h (3 Bft) O 87 0 min 0,000 mm 0,0 UV-I 0 W/m 5,3 C 0,0 C 27,4 km/h (4 Bft) 100,00 %
14.10.2016 00:46 6,3 C 93 % 1013,2 hPa 0,0 l/m 17,7 km/h (3 Bft) NO 55 0 min 0,000 mm 0,0 UV-I 0 W/m 5,3 C -0,6 C 22,5 km/h (4 Bft) 100,00 %
14.10.2016 00:48 6,3 C 93 % 1013,2 hPa 0,0 l/m 14,9 km/h (3 Bft) O-NO 70 0 min 0,000 mm 0,0 UV-I 0 W/m 5,3 C 0,7 C 22,5 km/h (4 Bft) 100,00 %
14.10.2016 00:50 6,3 C 93 % 1013,3 hPa 0,0 l/m 13,3 km/h (3 Bft) NO 49 0 min 0,000 mm 0,0 UV-I 0 W/m 5,3 C 1,5 C 19,3 km/h (3 Bft) 100,00 %
14.10.2016 00:52 6,3 C 93 % 1013,3 hPa 0,0 l/m 15,0 km/h (3 Bft) O-NO 57 0 min 0,000 mm 0,0 UV-I 0 W/m 5,3 C 0,7 C 20,9 km/h (4 Bft) 100,00 %
14.10.2016 00:54 6,3 C 93 % 1013,4 hPa 0,0 l/m 13,9 km/h (3 Bft) O 80 0 min 0,000 mm 0,0 UV-I 0 W/m 5,3 C 1,2 C 22,5 km/h (4 Bft) 100,00 %
14.10.2016 00:56 6,2 C 93 % 1013,4 hPa 0,0 l/m 12,7 km/h (3 Bft) O-NO 71 0 min 0,000 mm 0,0 UV-I 0 W/m 5,2 C 1,7 C 16,1 km/h (3 Bft) 100,00 %
14.10.2016 00:58 6,2 C 93 % 1013,4 hPa 0,0 l/m 15,0 km/h (3 Bft) O-NO 59 0 min 0,000 mm 0,0 UV-I 0 W/m 5,2 C 0,5 C 20,9 km/h (4 Bft) 100,00 %
14.10.2016 01:00 6,2 C 93 % 1013,4 hPa 0,0 l/m 13,8 km/h (3 Bft) O-NO 67 0 min 0,000 mm 0,0 UV-I 0 W/m 5,2 C 1,1 C 20,9 km/h (4 Bft) 98,11 %
14.10.2016 01:02 6,2 C 93 % 1013,3 hPa 0,0 l/m 15,8 km/h (3 Bft) O-NO 70 0 min 0,000 mm 0,0 UV-I 0 W/m 5,2 C 0,1 C 20,9 km/h (4 Bft) 100,00 %
14.10.2016 01:04 6,2 C 93 % 1013,2 hPa 0,0 l/m 11,4 km/h (2 Bft) O-NO 68 0 min 0,000 mm 0,0 UV-I 0 W/m 5,2 C 2,5 C 16,1 km/h (3 Bft) 100,00 %
14.10.2016 01:06 6,2 C 93 % 1013,2 hPa 0,0 l/m 11,8 km/h (2 Bft) O-NO 75 0 min 0,000 mm 0,0 UV-I 0 W/m 5,2 C 2,3 C 19,3 km/h (3 Bft) 100,00 %
14.10.2016 01:08 6,2 C 93 % 1013,2 hPa 0,0 l/m 14,1 km/h (3 Bft) NO 49 0 min 0,000 mm 0,0 UV-I 0 W/m 5,2 C 1,0 C 25,7 km/h (4 Bft) 100,00 %
14.10.2016 01:10 6,2 C 93 % 1013,1 hPa 0,0 l/m 11,5 km/h (2 Bft) O 84 0 min 0,000 mm 0,0 UV-I 0 W/m 5,2 C 2,4 C 17,7 km/h (3 Bft) 100,00 %
14.10.2016 01:12 6,2 C 93 % 1013,1 hPa 0,0 l/m 11,1 km/h (2 Bft) O-NO 77 0 min 0,000 mm 0,0 UV-I 0 W/m 5,2 C 2,7 C 17,7 km/h (3 Bft) 98,11 %
14.10.2016 01:14 6,2 C 93 % 1013,1 hPa 0,0 l/m 10,6 km/h (2 Bft) O-NO 61 0 min 0,000 mm 0,0 UV-I 0 W/m 5,2 C 3,0 C 17,7 km/h (3 Bft) 97,56 %
14.10.2016 01:16 6,2 C 93 % 1013,1 hPa 0,0 l/m 14,9 km/h (3 Bft) O-NO 64 0 min 0,000 mm 0,0 UV-I 0 W/m 5,2 C 0,6 C 20,9 km/h (4 Bft) 97,73 %
14.10.2016 01:18 6,2 C 93 % 1013,1 hPa 0,0 l/m 12,6 km/h (3 Bft) O-NO 59 0 min 0,000 mm 0,0 UV-I 0 W/m 5,2 C 1,8 C 17,7 km/h (3 Bft) 96,43 %
14.10.2016 01:20 6,2 C 93 % 1013,1 hPa 0,0 l/m 13,2 km/h (3 Bft) NO 53 0 min 0,000 mm 0,0 UV-I 0 W/m 5,2 C 1,5 C 19,3 km/h (3 Bft) 97,87 %
14.10.2016 01:22 6,2 C 93 % 1013,1 hPa 0,0 l/m 13,0 km/h (3 Bft) NO 50 0 min 0,000 mm 0,0 UV-I 0 W/m 5,2 C 1,6 C 20,9 km/h (4 Bft) 95,74 %
14.10.2016 01:24 6,2 C 93 % 1013,1 hPa 0,0 l/m 15,4 km/h (3 Bft) NO 56 0 min 0,000 mm 0,0 UV-I 0 W/m 5,2 C 0,3 C 20,9 km/h (4 Bft) 97,37 %
14.10.2016 01:26 6,2 C 93 % 1013,2 hPa 0,0 l/m 11,7 km/h (2 Bft) O-NO 67 0 min 0,000 mm 0,0 UV-I 0 W/m 5,2 C 2,3 C 16,1 km/h (3 Bft) 97,87 %
14.10.2016 01:28 6,2 C 93 % 1013,3 hPa 0,0 l/m 9,9 km/h (2 Bft) O-SO 113 0 min 0,000 mm 0,0 UV-I 0 W/m 5,2 C 3,5 C 17,7 km/h (3 Bft) 94,34 %
14.10.2016 01:30 6,2 C 93 % 1013,3 hPa 0,0 l/m 12,5 km/h (3 Bft) O-NO 74 0 min 0,000 mm 0,0 UV-I 0 W/m 5,2 C 1,8 C 20,9 km/h (4 Bft) 97,56 %
14.10.2016 01:32 6,2 C 93 % 1013,3 hPa 0,0 l/m 12,3 km/h (3 Bft) O-NO 69 0 min 0,000 mm 0,0 UV-I 0 W/m 5,2 C 2,0 C 17,7 km/h (3 Bft) 98,11 %
14.10.2016 01:34 6,2 C 93 % 1013,2 hPa 0,0 l/m 14,1 km/h (3 Bft) O-NO 68 0 min 0,000 mm 0,0 UV-I 0 W/m 5,2 C 1,0 C 19,3 km/h (3 Bft) 98,00 %
14.10.2016 01:36 6,2 C 93 % 1013,2 hPa 0,0 l/m 11,3 km/h (2 Bft) O-NO 69 0 min 0,000 mm 0,0 UV-I 0 W/m 5,2 C 2,6 C 19,3 km/h (3 Bft) 97,44 %
14.10.2016 01:38 6,2 C 93 % 1013,2 hPa 0,0 l/m 13,6 km/h (3 Bft) NO 52 0 min 0,000 mm 0,0 UV-I 0 W/m 5,2 C 1,2 C 19,3 km/h (3 Bft) 98,00 %
14.10.2016 01:40 6,2 C 93 % 1013,3 hPa 0,0 l/m 10,2 km/h (2 Bft) NO 56 0 min 0,000 mm 0,0 UV-I 0 W/m 5,2 C 3,3 C 16,1 km/h (3 Bft) 98,00 %
14.10.2016 01:42 6,2 C 93 % 1013,3 hPa 0,0 l/m 12,4 km/h (3 Bft) O-NO 65 0 min 0,000 mm 0,0 UV-I 0 W/m 5,2 C 1,9 C 20,9 km/h (4 Bft) 93,62 %
14.10.2016 01:44 6,2 C 93 % 1013,2 hPa 0,0 l/m 13,4 km/h (3 Bft) NO 55 0 min 0,000 mm 0,0 UV-I 0 W/m 5,2 C 1,4 C 19,3 km/h (3 Bft) 97,56 %
14.10.2016 01:46 6,2 C 93 % 1013,3 hPa 0,0 l/m 10,4 km/h (2 Bft) O-NO 65 0 min 0,000 mm 0,0 UV-I 0 W/m 5,2 C 3,1 C 16,1 km/h (3 Bft) 100,00 %
14.10.2016 01:48 6,1 C 93 % 1013,3 hPa 0,0 l/m 11,9 km/h (2 Bft) O-NO 73 0 min 0,000 mm 0,0 UV-I 0 W/m 5,1 C 2,1 C 16,1 km/h (3 Bft) 100,00 %
14.10.2016 01:50 6,1 C 93 % 1013,3 hPa 0,0 l/m 12,8 km/h (3 Bft) O-SO 113 0 min 0,000 mm 0,0 UV-I 0 W/m 5,1 C 1,6 C 22,5 km/h (4 Bft) 100,00 %
14.10.2016 01:52 6,1 C 93 % 1013,3 hPa 0,0 l/m 9,9 km/h (2 Bft) O-NO 76 0 min 0,000 mm 0,0 UV-I 0 W/m 5,1 C 3,4 C 16,1 km/h (3 Bft) 100,00 %
14.10.2016 01:54 6,1 C 93 % 1013,2 hPa 0,0 l/m 11,5 km/h (2 Bft) O-NO 67 0 min 0,000 mm 0,0 UV-I 0 W/m 5,1 C 2,3 C 16,1 km/h (3 Bft) 100,00 %
14.10.2016 01:56 6,1 C 93 % 1013,3 hPa 0,0 l/m 9,3 km/h (2 Bft) NO 53 0 min 0,000 mm 0,0 UV-I 0 W/m 5,1 C 3,8 C 14,5 km/h (3 Bft) 98,11 %
14.10.2016 01:58 6,1 C 93 % 1013,2 hPa 0,0 l/m 12,9 km/h (3 Bft) NO 49 0 min 0,000 mm 0,0 UV-I 0 W/m 5,1 C 1,5 C 19,3 km/h (3 Bft) 100,00 %
14.10.2016 02:00 6,1 C 93 % 1013,2 hPa 0,0 l/m 12,0 km/h (2 Bft) NO 52 0 min 0,000 mm 0,0 UV-I 0 W/m 5,1 C 2,0 C 17,7 km/h (3 Bft) 98,11 %
14.10.2016 02:02 6,1 C 93 % 1013,1 hPa 0,0 l/m 11,7 km/h (2 Bft) NO 52 0 min 0,000 mm 0,0 UV-I 0 W/m 5,1 C 2,2 C 16,1 km/h (3 Bft) 95,12 %
14.10.2016 02:04 6,1 C 93 % 1013,2 hPa 0,0 l/m 13,2 km/h (3 Bft) O-NO 61 0 min 0,000 mm 0,0 UV-I 0 W/m 5,1 C 1,3 C 19,3 km/h (3 Bft) 100,00 %
14.10.2016 02:06 6,1 C 93 % 1013,1 hPa 0,0 l/m 7,4 km/h (2 Bft) O-NO 71 0 min 0,000 mm 0,0 UV-I 0 W/m 5,1 C 5,3 C 11,3 km/h (2 Bft) 100,00 %
14.10.2016 02:08 6,1 C 93 % 1013,2 hPa 0,0 l/m 9,4 km/h (2 Bft) O-NO 75 0 min 0,000 mm 0,0 UV-I 0 W/m 5,1 C 3,7 C 14,5 km/h (3 Bft) 100,00 %
14.10.2016 02:10 6,1 C 94 % 1013,1 hPa 0,0 l/m 9,8 km/h (2 Bft) NO 55 0 min 0,000 mm 0,0 UV-I 0 W/m 5,2 C 3,4 C 16,1 km/h (3 Bft) 100,00 %
14.10.2016 02:12 6,0 C 93 % 1013,1 hPa 0,0 l/m 9,1 km/h (2 Bft) O-NO 62 0 min 0,000 mm 0,0 UV-I 0 W/m 5,0 C 3,8 C 12,9 km/h (3 Bft) 98,68 %
14.10.2016 02:14 6,0 C 94 % 1013,1 hPa 0,0 l/m 12,5 km/h (3 Bft) O-NO 67 0 min 0,000 mm 0,0 UV-I 0 W/m 5,1 C 1,6 C 17,7 km/h (3 Bft) 100,00 %
14.10.2016 02:16 6,0 C 94 % 1013,1 hPa 0,0 l/m 9,9 km/h (2 Bft) NO 45 0 min 0,000 mm 0,0 UV-I 0 W/m 5,1 C 3,2 C 14,5 km/h (3 Bft) 100,00 %
14.10.2016 02:18 6,0 C 94 % 1013,0 hPa 0,0 l/m 12,5 km/h (3 Bft) O-NO 62 0 min 0,000 mm 0,0 UV-I 0 W/m 5,1 C 1,6 C 19,3 km/h (3 Bft) 97,44 %
14.10.2016 02:20 6,0 C 94 % 1013,0 hPa 0,0 l/m 10,2 km/h (2 Bft) O-NO 61 0 min 0,000 mm 0,0 UV-I 0 W/m 5,1 C 3,0 C 16,1 km/h (3 Bft) 100,00 %
14.10.2016 02:22 6,0 C 94 % 1013,0 hPa 0,0 l/m 11,8 km/h (2 Bft) O-NO 71 0 min 0,000 mm 0,0 UV-I 0 W/m 5,1 C 2,0 C 16,1 km/h (3 Bft) 100,00 %
14.10.2016 02:24 6,0 C 94 % 1013,0 hPa 0,0 l/m 10,5 km/h (2 Bft) NO 49 0 min 0,000 mm 0,0 UV-I 0 W/m 5,1 C 2,8 C 17,7 km/h (3 Bft) 100,00 %
14.10.2016 02:26 6,0 C 94 % 1013,0 hPa 0,0 l/m 9,3 km/h (2 Bft) O-NO 74 0 min 0,000 mm 0,0 UV-I 0 W/m 5,1 C 3,7 C 17,7 km/h (3 Bft) 98,53 %
14.10.2016 02:28 6,0 C 94 % 1013,0 hPa 0,0 l/m 7,1 km/h (2 Bft) O-NO 57 0 min 0,000 mm 0,0 UV-I 0 W/m 5,1 C 5,4 C 9,7 km/h (2 Bft) 97,37 %
14.10.2016 02:30 5,9 C 94 % 1013,1 hPa 0,0 l/m 8,1 km/h (2 Bft) O-NO 71 0 min 0,000 mm 0,0 UV-I 0 W/m 5,0 C 4,5 C 12,9 km/h (3 Bft) 100,00 %
14.10.2016 02:32 5,9 C 94 % 1013,1 hPa 0,0 l/m 8,6 km/h (2 Bft) O-NO 61 0 min 0,000 mm 0,0 UV-I 0 W/m 5,0 C 4,1 C 16,1 km/h (3 Bft) 97,56 %
14.10.2016 02:34 5,9 C 94 % 1013,1 hPa 0,0 l/m 9,5 km/h (2 Bft) O-NO 59 0 min 0,000 mm 0,0 UV-I 0 W/m 5,0 C 3,4 C 16,1 km/h (3 Bft) 98,00 %
14.10.2016 02:36 5,9 C 94 % 1013,1 hPa 0,0 l/m 8,6 km/h (2 Bft) O-NO 63 0 min 0,000 mm 0,0 UV-I 0 W/m 5,0 C 4,1 C 14,5 km/h (3 Bft) 100,00 %
14.10.2016 02:38 5,9 C 94 % 1013,1 hPa 0,0 l/m 7,4 km/h (2 Bft) NO 44 0 min 0,000 mm 0,0 UV-I 0 W/m 5,0 C 5,0 C 9,7 km/h (2 Bft) 100,00 %
14.10.2016 02:40 5,9 C 94 % 1013,0 hPa 0,0 l/m 9,0 km/h (2 Bft) O-NO 61 0 min 0,000 mm 0,0 UV-I 0 W/m 5,0 C 3,8 C 16,1 km/h (3 Bft) 100,00 %
14.10.2016 02:42 5,9 C 94 % 1013,0 hPa 0,0 l/m 11,1 km/h (2 Bft) O-NO 62 0 min 0,000 mm 0,0 UV-I 0 W/m 5,0 C 2,3 C 16,1 km/h (3 Bft) 95,74 %
14.10.2016 02:44 5,9 C 94 % 1013,0 hPa 0,0 l/m 10,5 km/h (2 Bft) O-NO 61 0 min 0,000 mm 0,0 UV-I 0 W/m 5,0 C 2,7 C 16,1 km/h (3 Bft) 97,56 %
14.10.2016 02:46 5,9 C 94 % 1013,0 hPa 0,0 l/m 10,8 km/h (2 Bft) O-NO 69 0 min 0,000 mm 0,0 UV-I 0 W/m 5,0 C 2,5 C 19,3 km/h (3 Bft) 100,00 %
14.10.2016 02:48 5,9 C 94 % 1012,9 hPa 0,0 l/m 11,6 km/h (2 Bft) O-NO 76 0 min 0,000 mm 0,0 UV-I 0 W/m 5,0 C 2,0 C 19,3 km/h (3 Bft) 100,00 %
14.10.2016 02:50 5,9 C 94 % 1012,9 hPa 0,0 l/m 9,3 km/h (2 Bft) O-NO 57 0 min 0,000 mm 0,0 UV-I 0 W/m 5,0 C 3,6 C 14,5 km/h (3 Bft) 100,00 %
14.10.2016 02:52 5,9 C 94 % 1012,9 hPa 0,0 l/m 8,9 km/h (2 Bft) O-NO 65 0 min 0,000 mm 0,0 UV-I 0 W/m 5,0 C 3,9 C 14,5 km/h (3 Bft) 100,00 %
14.10.2016 02:54 5,9 C 94 % 1013,0 hPa 0,0 l/m 9,5 km/h (2 Bft) O 80 0 min 0,000 mm 0,0 UV-I 0 W/m 5,0 C 3,4 C 14,5 km/h (3 Bft) 100,00 %
14.10.2016 02:56 5,9 C 94 % 1013,0 hPa 0,0 l/m 8,6 km/h (2 Bft) O-NO 63 0 min 0,000 mm 0,0 UV-I 0 W/m 5,0 C 4,1 C 14,5 km/h (3 Bft) 100,00 %
14.10.2016 02:58 5,9 C 94 % 1012,9 hPa 0,0 l/m 8,1 km/h (2 Bft) O-NO 62 0 min 0,000 mm 0,0 UV-I 0 W/m 5,0 C 4,5 C 14,5 km/h (3 Bft) 100,00 %
14.10.2016 03:00 5,9 C 94 % 1013,0 hPa 0,0 l/m 8,6 km/h (2 Bft) O-NO 75 0 min 0,000 mm 0,0 UV-I 0 W/m 5,0 C 4,1 C 12,9 km/h (3 Bft) 100,00 %
14.10.2016 03:02 5,9 C 94 % 1013,0 hPa 0,0 l/m 8,8 km/h (2 Bft) O-NO 65 0 min 0,000 mm 0,0 UV-I 0 W/m 5,0 C 3,9 C 12,9 km/h (3 Bft) 97,62 %
14.10.2016 03:04 5,8 C 94 % 1013,0 hPa 0,0 l/m 8,8 km/h (2 Bft) NO 36 0 min 0,000 mm 0,0 UV-I 0 W/m 4,9 C 3,8 C 11,3 km/h (2 Bft) 100,00 %
14.10.2016 03:06 5,8 C 94 % 1013,0 hPa 0,0 l/m 9,5 km/h (2 Bft) NO 54 0 min 0,000 mm 0,0 UV-I 0 W/m 4,9 C 3,3 C 16,1 km/h (3 Bft) 100,00 %
14.10.2016 03:08 5,8 C 94 % 1013,0 hPa 0,0 l/m 8,0 km/h (2 Bft) O-NO 74 0 min 0,000 mm 0,0 UV-I 0 W/m 4,9 C 4,4 C 12,9 km/h (3 Bft) 100,00 %
14.10.2016 03:10 5,8 C 94 % 1013,0 hPa 0,0 l/m 9,1 km/h (2 Bft) O-NO 72 0 min 0,000 mm 0,0 UV-I 0 W/m 4,9 C 3,6 C 14,5 km/h (3 Bft) 100,00 %
14.10.2016 03:12 5,8 C 94 % 1012,9 hPa 0,0 l/m 7,8 km/h (2 Bft) O-NO 61 0 min 0,000 mm 0,0 UV-I 0 W/m 4,9 C 4,6 C 11,3 km/h (2 Bft) 100,00 %
14.10.2016 03:14 5,8 C 94 % 1012,8 hPa 0,0 l/m 9,1 km/h (2 Bft) O-NO 67 0 min 0,000 mm 0,0 UV-I 0 W/m 4,9 C 3,6 C 14,5 km/h (3 Bft) 97,96 %
14.10.2016 03:16 5,8 C 94 % 1012,9 hPa 0,0 l/m 13,8 km/h (3 Bft) NO 44 0 min 0,000 mm 0,0 UV-I 0 W/m 4,9 C 0,7 C 19,3 km/h (3 Bft) 97,73 %
14.10.2016 03:18 5,9 C 94 % 1012,9 hPa 0,0 l/m 12,6 km/h (3 Bft) NO 54 0 min 0,000 mm 0,0 UV-I 0 W/m 5,0 C 1,4 C 19,3 km/h (3 Bft) 98,00 %
14.10.2016 03:20 5,9 C 94 % 1012,9 hPa 0,0 l/m 10,4 km/h (2 Bft) NO 53 0 min 0,000 mm 0,0 UV-I 0 W/m 5,0 C 2,8 C 17,7 km/h (3 Bft) 97,87 %
14.10.2016 03:22 5,9 C 94 % 1012,9 hPa 0,0 l/m 11,2 km/h (2 Bft) NO 44 0 min 0,000 mm 0,0 UV-I 0 W/m 5,0 C 2,3 C 16,1 km/h (3 Bft) 98,11 %
14.10.2016 03:24 5,9 C 94 % 1012,9 hPa 0,0 l/m 10,9 km/h (2 Bft) NO 47 0 min 0,000 mm 0,0 UV-I 0 W/m 5,0 C 2,5 C 16,1 km/h (3 Bft) 97,37 %
14.10.2016 03:26 5,9 C 94 % 1012,9 hPa 0,0 l/m 8,0 km/h (2 Bft) NO 36 0 min 0,000 mm 0,0 UV-I 0 W/m 5,0 C 4,5 C 12,9 km/h (3 Bft) 96,43 %
14.10.2016 03:28 5,9 C 94 % 1012,9 hPa 0,0 l/m 8,9 km/h (2 Bft) NO 49 0 min 0,000 mm 0,0 UV-I 0 W/m 5,0 C 3,9 C 16,1 km/h (3 Bft) 100,00 %
14.10.2016 03:30 5,9 C 94 % 1012,8 hPa 0,0 l/m 10,0 km/h (2 Bft) O-NO 62 0 min 0,000 mm 0,0 UV-I 0 W/m 5,0 C 3,1 C 16,1 km/h (3 Bft) 96,23 %
14.10.2016 03:32 5,9 C 94 % 1012,9 hPa 0,0 l/m 6,7 km/h (2 Bft) O-NO 64 0 min 0,000 mm 0,0 UV-I 0 W/m 5,0 C 5,7 C 11,3 km/h (2 Bft) 98,00 %
14.10.2016 03:34 5,9 C 94 % 1012,8 hPa 0,0 l/m 6,5 km/h (2 Bft) NO 54 0 min 0,000 mm 0,0 UV-I 0 W/m 5,0 C 5,8 C 9,7 km/h (2 Bft) 97,44 %
14.10.2016 03:36 5,9 C 94 % 1012,6 hPa 0,0 l/m 9,1 km/h (2 Bft) O-NO 60 0 min 0,000 mm 0,0 UV-I 0 W/m 5,0 C 3,7 C 14,5 km/h (3 Bft) 97,87 %
14.10.2016 03:38 5,8 C 94 % 1012,6 hPa 0,0 l/m 9,1 km/h (2 Bft) NO 55 0 min 0,000 mm 0,0 UV-I 0 W/m 4,9 C 3,6 C 16,1 km/h (3 Bft) 96,00 %
14.10.2016 03:40 5,8 C 94 % 1012,5 hPa 0,0 l/m 7,6 km/h (2 Bft) NO 56 0 min 0,000 mm 0,0 UV-I 0 W/m 4,9 C 4,8 C 9,7 km/h (2 Bft) 94,00 %
14.10.2016 03:42 5,8 C 94 % 1012,6 hPa 0,0 l/m 7,4 km/h (2 Bft) NO 53 0 min 0,000 mm 0,0 UV-I 0 W/m 4,9 C 4,9 C 14,5 km/h (3 Bft) 97,44 %
14.10.2016 03:44 5,8 C 94 % 1012,6 hPa 0,0 l/m 9,0 km/h (2 Bft) O-NO 60 0 min 0,000 mm 0,0 UV-I 0 W/m 4,9 C 3,7 C 14,5 km/h (3 Bft) 98,00 %
14.10.2016 03:46 5,8 C 94 % 1012,6 hPa 0,0 l/m 8,9 km/h (2 Bft) O-NO 58 0 min 0,000 mm 0,0 UV-I 0 W/m 4,9 C 3,7 C 12,9 km/h (3 Bft) 93,62 %
14.10.2016 03:48 5,8 C 94 % 1012,6 hPa 0,0 l/m 9,3 km/h (2 Bft) O-NO 63 0 min 0,000 mm 0,0 UV-I 0 W/m 4,9 C 3,4 C 14,5 km/h (3 Bft) 100,00 %
14.10.2016 03:50 5,8 C 94 % 1012,7 hPa 0,0 l/m 9,7 km/h (2 Bft) O-NO 61 0 min 0,000 mm 0,0 UV-I 0 W/m 4,9 C 3,2 C 16,1 km/h (3 Bft) 100,00 %
14.10.2016 03:52 5,8 C 94 % 1012,7 hPa 0,0 l/m 6,4 km/h (2 Bft) O-NO 59 0 min 0,000 mm 0,0 UV-I 0 W/m 4,9 C 5,8 C 9,7 km/h (2 Bft) 100,00 %
14.10.2016 03:54 5,8 C 94 % 1012,8 hPa 0,0 l/m 9,2 km/h (2 Bft) O-NO 69 0 min 0,000 mm 0,0 UV-I 0 W/m 4,9 C 3,5 C 14,5 km/h (3 Bft) 97,37 %
14.10.2016 03:56 5,8 C 94 % 1012,8 hPa 0,0 l/m 9,4 km/h (2 Bft) O-NO 68 0 min 0,000 mm 0,0 UV-I 0 W/m 4,9 C 3,4 C 12,9 km/h (3 Bft) 100,00 %
14.10.2016 03:58 5,8 C 95 % 1012,7 hPa 0,0 l/m 8,0 km/h (2 Bft) NO 54 0 min 0,000 mm 0,0 UV-I 0 W/m 5,1 C 4,4 C 12,9 km/h (3 Bft) 100,00 %
14.10.2016 04:00 5,8 C 95 % 1012,7 hPa 0,0 l/m 7,1 km/h (2 Bft) NO 45 0 min 0,000 mm 0,0 UV-I 0 W/m 5,1 C 5,2 C 11,3 km/h (2 Bft) 100,00 %
14.10.2016 04:02 5,8 C 95 % 1012,7 hPa 0,0 l/m 11,7 km/h (2 Bft) O-NO 66 0 min 0,000 mm 0,0 UV-I 0 W/m 5,1 C 1,9 C 16,1 km/h (3 Bft) 100,00 %
14.10.2016 04:04 5,8 C 95 % 1012,7 hPa 0,0 l/m 10,3 km/h (2 Bft) O-NO 61 0 min 0,000 mm 0,0 UV-I 0 W/m 5,1 C 2,8 C 16,1 km/h (3 Bft) 98,00 %
14.10.2016 04:06 5,8 C 95 % 1012,7 hPa 0,0 l/m 9,5 km/h (2 Bft) NO 42 0 min 0,000 mm 0,0 UV-I 0 W/m 5,1 C 3,3 C 14,5 km/h (3 Bft) 100,00 %
14.10.2016 04:08 5,9 C 94 % 1012,7 hPa 0,0 l/m 10,6 km/h (2 Bft) O-NO 65 0 min 0,000 mm 0,0 UV-I 0 W/m 5,0 C 2,7 C 16,1 km/h (3 Bft) 100,00 %
14.10.2016 04:10 5,9 C 94 % 1012,7 hPa 0,0 l/m 8,2 km/h (2 Bft) NO 46 0 min 0,000 mm 0,0 UV-I 0 W/m 5,0 C 4,4 C 14,5 km/h (3 Bft) 100,00 %
14.10.2016 04:12 5,8 C 94 % 1012,7 hPa 0,0 l/m 5,9 km/h (2 Bft) NO 55 0 min 0,000 mm 0,0 UV-I 0 W/m 4,9 C 5,8 C 9,7 km/h (2 Bft) 98,00 %
14.10.2016 04:14 5,8 C 94 % 1012,7 hPa 0,0 l/m 6,7 km/h (2 Bft) O-NO 65 0 min 0,000 mm 0,0 UV-I 0 W/m 4,9 C 5,6 C 9,7 km/h (2 Bft) 100,00 %
14.10.2016 04:16 5,8 C 94 % 1012,7 hPa 0,0 l/m 7,9 km/h (2 Bft) O-NO 57 0 min 0,000 mm 0,0 UV-I 0 W/m 4,9 C 4,5 C 12,9 km/h (3 Bft) 100,00 %
14.10.2016 04:18 5,8 C 94 % 1012,7 hPa 0,0 l/m 7,9 km/h (2 Bft) O-NO 59 0 min 0,000 mm 0,0 UV-I 0 W/m 4,9 C 4,5 C 12,9 km/h (3 Bft) 98,00 %
14.10.2016 04:20 5,8 C 94 % 1012,7 hPa 0,0 l/m 7,5 km/h (2 Bft) NO 34 0 min 0,000 mm 0,0 UV-I 0 W/m 4,9 C 4,9 C 12,9 km/h (3 Bft) 97,87 %
14.10.2016 04:22 5,8 C 94 % 1012,8 hPa 0,0 l/m 9,3 km/h (2 Bft) O-NO 71 0 min 0,000 mm 0,0 UV-I 0 W/m 4,9 C 3,4 C 17,7 km/h (3 Bft) 97,56 %
14.10.2016 04:24 5,8 C 94 % 1012,7 hPa 0,0 l/m 10,2 km/h (2 Bft) O-NO 59 0 min 0,000 mm 0,0 UV-I 0 W/m 4,9 C 2,8 C 14,5 km/h (3 Bft) 100,00 %
14.10.2016 04:26 5,8 C 94 % 1012,6 hPa 0,0 l/m 8,0 km/h (2 Bft) NO 49 0 min 0,000 mm 0,0 UV-I 0 W/m 4,9 C 4,4 C 11,3 km/h (2 Bft) 100,00 %
14.10.2016 04:28 5,8 C 94 % 1012,6 hPa 0,0 l/m 8,8 km/h (2 Bft) NO 43 0 min 0,000 mm 0,0 UV-I 0 W/m 4,9 C 3,8 C 11,3 km/h (2 Bft) 100,00 %
14.10.2016 04:30 5,7 C 94 % 1012,5 hPa 0,0 l/m 9,4 km/h (2 Bft) NO 53 0 min 0,000 mm 0,0 UV-I 0 W/m 4,8 C 3,3 C 12,9 km/h (3 Bft) 100,00 %
14.10.2016 04:32 5,7 C 94 % 1012,4 hPa 0,0 l/m 10,9 km/h (2 Bft) O-NO 60 0 min 0,000 mm 0,0 UV-I 0 W/m 4,8 C 2,2 C 16,1 km/h (3 Bft) 98,00 %
14.10.2016 04:34 5,7 C 94 % 1012,4 hPa 0,0 l/m 12,2 km/h (2 Bft) O-NO 57 0 min 0,000 mm 0,0 UV-I 0 W/m 4,8 C 1,4 C 16,1 km/h (3 Bft) 100,00 %
14.10.2016 04:36 5,7 C 95 % 1012,4 hPa 0,0 l/m 9,3 km/h (2 Bft) NO 40 0 min 0,000 mm 0,0 UV-I 0 W/m 5,0 C 3,3 C 14,5 km/h (3 Bft) 100,00 %
14.10.2016 04:38 5,7 C 94 % 1012,5 hPa 0,0 l/m 8,5 km/h (2 Bft) N-NO 22 0 min 0,000 mm 0,0 UV-I 0 W/m 4,8 C 3,9 C 14,5 km/h (3 Bft) 95,74 %
14.10.2016 04:40 5,7 C 94 % 1012,5 hPa 0,0 l/m 8,7 km/h (2 Bft) O-NO 65 0 min 0,000 mm 0,0 UV-I 0 W/m 4,8 C 3,8 C 14,5 km/h (3 Bft) 98,00 %
14.10.2016 04:42 5,7 C 94 % 1012,5 hPa 0,0 l/m 9,6 km/h (2 Bft) NO 48 0 min 0,000 mm 0,0 UV-I 0 W/m 4,8 C 3,1 C 17,7 km/h (3 Bft) 100,00 %
14.10.2016 04:44 5,6 C 95 % 1012,5 hPa 0,0 l/m 8,1 km/h (2 Bft) O-NO 71 0 min 0,000 mm 0,0 UV-I 0 W/m 4,9 C 4,2 C 12,9 km/h (3 Bft) 100,00 %
14.10.2016 04:46 5,6 C 95 % 1012,5 hPa 0,0 l/m 7,5 km/h (2 Bft) O-NO 61 0 min 0,000 mm 0,0 UV-I 0 W/m 4,9 C 4,6 C 9,7 km/h (2 Bft) 98,11 %
14.10.2016 04:48 5,6 C 95 % 1012,6 hPa 0,0 l/m 6,1 km/h (2 Bft) NO 34 0 min 0,000 mm 0,0 UV-I 0 W/m 4,9 C 5,6 C 8,0 km/h (2 Bft) 100,00 %
14.10.2016 04:50 5,5 C 95 % 1012,6 hPa 0,0 l/m 5,8 km/h (2 Bft) O-NO 66 0 min 0,000 mm 0,0 UV-I 0 W/m 4,8 C 5,5 C 9,7 km/h (2 Bft) 100,00 %
14.10.2016 04:52 5,5 C 95 % 1012,6 hPa 0,0 l/m 5,4 km/h (1 Bft) O-NO 73 0 min 0,000 mm 0,0 UV-I 0 W/m 4,8 C 5,5 C 8,0 km/h (2 Bft) 98,18 %
14.10.2016 04:54 5,4 C 95 % 1012,6 hPa 0,0 l/m 7,1 km/h (2 Bft) O-NO 61 0 min 0,000 mm 0,0 UV-I 0 W/m 4,7 C 4,8 C 9,7 km/h (2 Bft) 100,00 %
14.10.2016 04:56 5,4 C 95 % 1012,6 hPa 0,0 l/m 7,7 km/h (2 Bft) NO 35 0 min 0,000 mm 0,0 UV-I 0 W/m 4,7 C 4,3 C 12,9 km/h (3 Bft) 100,00 %
14.10.2016 04:58 5,4 C 95 % 1012,5 hPa 0,0 l/m 7,4 km/h (2 Bft) NO 52 0 min 0,000 mm 0,0 UV-I 0 W/m 4,7 C 4,5 C 14,5 km/h (3 Bft) 98,21 %
14.10.2016 05:00 5,4 C 95 % 1012,5 hPa 0,0 l/m 5,5 km/h (1 Bft) NO 47 0 min 0,000 mm 0,0 UV-I 0 W/m 4,7 C 5,4 C 8,0 km/h (2 Bft) 100,00 %
14.10.2016 05:02 5,4 C 95 % 1012,5 hPa 0,0 l/m 7,5 km/h (2 Bft) O-NO 63 0 min 0,000 mm 0,0 UV-I 0 W/m 4,7 C 4,4 C 11,3 km/h (2 Bft) 100,00 %
14.10.2016 05:04 5,4 C 95 % 1012,5 hPa 0,0 l/m 7,0 km/h (2 Bft) O-NO 65 0 min 0,000 mm 0,0 UV-I 0 W/m 4,7 C 4,9 C 12,9 km/h (3 Bft) 100,00 %
14.10.2016 05:06 5,3 C 95 % 1012,4 hPa 0,0 l/m 8,5 km/h (2 Bft) O-NO 57 0 min 0,000 mm 0,0 UV-I 0 W/m 4,6 C 3,5 C 16,1 km/h (3 Bft) 100,00 %
14.10.2016 05:08 5,4 C 95 % 1012,4 hPa 0,0 l/m 10,0 km/h (2 Bft) NO 39 0 min 0,000 mm 0,0 UV-I 0 W/m 4,7 C 2,5 C 16,1 km/h (3 Bft) 100,00 %
14.10.2016 05:10 5,3 C 95 % 1012,3 hPa 0,0 l/m 10,2 km/h (2 Bft) NO 46 0 min 0,000 mm 0,0 UV-I 0 W/m 4,6 C 2,3 C 16,1 km/h (3 Bft) 98,11 %
14.10.2016 05:12 5,3 C 95 % 1012,2 hPa 0,0 l/m 8,0 km/h (2 Bft) NO 38 0 min 0,000 mm 0,0 UV-I 0 W/m 4,6 C 3,9 C 14,5 km/h (3 Bft) 100,00 %
14.10.2016 05:14 5,3 C 95 % 1012,4 hPa 0,0 l/m 7,6 km/h (2 Bft) O-NO 59 0 min 0,000 mm 0,0 UV-I 0 W/m 4,6 C 4,3 C 12,9 km/h (3 Bft) 100,00 %
14.10.2016 05:16 5,3 C 95 % 1012,4 hPa 0,0 l/m 6,5 km/h (2 Bft) NO 34 0 min 0,000 mm 0,0 UV-I 0 W/m 4,6 C 5,2 C 11,3 km/h (2 Bft) 94,74 %
14.10.2016 05:18 5,3 C 95 % 1012,4 hPa 0,0 l/m 6,2 km/h (2 Bft) NO 41 0 min 0,000 mm 0,0 UV-I 0 W/m 4,6 C 5,3 C 9,7 km/h (2 Bft) 97,87 %
14.10.2016 05:20 5,3 C 95 % 1012,4 hPa 0,0 l/m 5,8 km/h (2 Bft) N-NO 23 0 min 0,000 mm 0,0 UV-I 0 W/m 4,6 C 5,3 C 8,0 km/h (2 Bft) 97,87 %
14.10.2016 05:22 5,2 C 95 % 1012,4 hPa 0,0 l/m 5,5 km/h (1 Bft) NO 51 0 min 0,000 mm 0,0 UV-I 0 W/m 4,5 C 5,2 C 9,7 km/h (2 Bft) 97,87 %
14.10.2016 05:24 5,3 C 95 % 1012,4 hPa 0,0 l/m 3,7 km/h (1 Bft) NO 42 0 min 0,000 mm 0,0 UV-I 0 W/m 4,6 C 5,3 C 6,4 km/h (2 Bft) 94,64 %
14.10.2016 05:26 5,2 C 96 % 1012,4 hPa 0,0 l/m 6,0 km/h (2 Bft) NO 54 0 min 0,000 mm 0,0 UV-I 0 W/m 4,6 C 5,2 C 8,0 km/h (2 Bft) 97,37 %
14.10.2016 05:28 5,2 C 96 % 1012,4 hPa 0,0 l/m 6,4 km/h (2 Bft) NO 49 0 min 0,000 mm 0,0 UV-I 0 W/m 4,6 C 5,2 C 9,7 km/h (2 Bft) 98,00 %
14.10.2016 05:30 5,2 C 96 % 1012,4 hPa 0,0 l/m 6,1 km/h (2 Bft) O-NO 67 0 min 0,000 mm 0,0 UV-I 0 W/m 4,6 C 5,2 C 9,7 km/h (2 Bft) 93,62 %
14.10.2016 05:32 5,2 C 96 % 1012,4 hPa 0,0 l/m 6,4 km/h (2 Bft) NO 56 0 min 0,000 mm 0,0 UV-I 0 W/m 4,6 C 5,2 C 8,0 km/h (2 Bft) 96,00 %
14.10.2016 05:34 5,2 C 96 % 1012,4 hPa 0,0 l/m 6,0 km/h (2 Bft) NO 51 0 min 0,000 mm 0,0 UV-I 0 W/m 4,6 C 5,2 C 8,0 km/h (2 Bft) 98,00 %
14.10.2016 05:36 5,2 C 96 % 1012,4 hPa 0,0 l/m 5,9 km/h (2 Bft) N-NO 33 0 min 0,000 mm 0,0 UV-I 0 W/m 4,6 C 5,2 C 9,7 km/h (2 Bft) 95,74 %
14.10.2016 05:38 5,1 C 95 % 1012,4 hPa 0,0 l/m 6,5 km/h (2 Bft) NO 45 0 min 0,000 mm 0,0 UV-I 0 W/m 4,4 C 5,0 C 9,7 km/h (2 Bft) 97,62 %
14.10.2016 05:40 5,1 C 96 % 1012,5 hPa 0,0 l/m 5,1 km/h (1 Bft) NO 55 0 min 0,000 mm 0,0 UV-I 0 W/m 4,5 C 5,1 C 9,7 km/h (2 Bft) 98,00 %
14.10.2016 05:42 5,1 C 96 % 1012,5 hPa 0,0 l/m 5,0 km/h (1 Bft) NO 52 0 min 0,000 mm 0,0 UV-I 0 W/m 4,5 C 5,1 C 8,0 km/h (2 Bft) 97,87 %
14.10.2016 05:44 5,1 C 96 % 1012,5 hPa 0,0 l/m 3,1 km/h (1 Bft) O-NO 59 0 min 0,000 mm 0,0 UV-I 0 W/m 4,5 C 5,1 C 6,4 km/h (2 Bft) 97,56 %
14.10.2016 05:46 5,1 C 96 % 1012,5 hPa 0,0 l/m 6,2 km/h (2 Bft) O-NO 69 0 min 0,000 mm 0,0 UV-I 0 W/m 4,5 C 5,1 C 12,9 km/h (3 Bft) 94,00 %
14.10.2016 05:48 5,1 C 96 % 1012,5 hPa 0,0 l/m 4,5 km/h (1 Bft) N-NO 30 0 min 0,000 mm 0,0 UV-I 0 W/m 4,5 C 5,1 C 8,0 km/h (2 Bft) 98,00 %
14.10.2016 05:50 5,1 C 96 % 1012,5 hPa 0,0 l/m 5,7 km/h (1 Bft) NO 45 0 min 0,000 mm 0,0 UV-I 0 W/m 4,5 C 5,1 C 8,0 km/h (2 Bft) 100,00 %
14.10.2016 05:52 5,2 C 96 % 1012,6 hPa 0,0 l/m 6,4 km/h (2 Bft) O-NO 64 0 min 0,000 mm 0,0 UV-I 0 W/m 4,6 C 5,2 C 9,7 km/h (2 Bft) 97,56 %
14.10.2016 05:54 5,2 C 96 % 1012,6 hPa 0,0 l/m 5,5 km/h (1 Bft) O-NO 57 0 min 0,000 mm 0,0 UV-I 0 W/m 4,6 C 5,2 C 8,0 km/h (2 Bft) 100,00 %
14.10.2016 05:56 5,2 C 96 % 1012,6 hPa 0,0 l/m 7,3 km/h (2 Bft) NO 49 0 min 0,000 mm 0,0 UV-I 0 W/m 4,6 C 4,4 C 11,3 km/h (2 Bft) 97,37 %
14.10.2016 05:58 5,3 C 96 % 1012,6 hPa 0,0 l/m 6,7 km/h (2 Bft) NO 36 0 min 0,000 mm 0,0 UV-I 0 W/m 4,7 C 5,1 C 9,7 km/h (2 Bft) 100,00 %
14.10.2016 06:00 5,3 C 96 % 1012,6 hPa 0,0 l/m 6,6 km/h (2 Bft) NO 55 0 min 0,000 mm 0,0 UV-I 0 W/m 4,7 C 5,1 C 9,7 km/h (2 Bft) 100,00 %
14.10.2016 06:02 5,3 C 96 % 1012,6 hPa 0,0 l/m 5,0 km/h (1 Bft) NO 38 0 min 0,000 mm 0,0 UV-I 0 W/m 4,7 C 5,3 C 8,0 km/h (2 Bft) 100,00 %
14.10.2016 06:04 5,3 C 96 % 1012,6 hPa 0,0 l/m 7,3 km/h (2 Bft) O-NO 59 0 min 0,000 mm 0,0 UV-I 0 W/m 4,7 C 4,5 C 11,3 km/h (2 Bft) 94,00 %
14.10.2016 06:06 5,3 C 96 % 1012,5 hPa 0,0 l/m 7,3 km/h (2 Bft) NO 42 0 min 0,000 mm 0,0 UV-I 0 W/m 4,7 C 4,5 C 12,9 km/h (3 Bft) 100,00 %
14.10.2016 06:08 5,3 C 96 % 1012,5 hPa 0,0 l/m 7,5 km/h (2 Bft) NO 47 0 min 0,000 mm 0,0 UV-I 0 W/m 4,7 C 4,3 C 9,7 km/h (2 Bft) 98,00 %
14.10.2016 06:10 5,3 C 96 % 1012,5 hPa 0,0 l/m 8,8 km/h (2 Bft) NO 55 0 min 0,000 mm 0,0 UV-I 0 W/m 4,7 C 3,3 C 17,7 km/h (3 Bft) 97,73 %
14.10.2016 06:12 5,3 C 96 % 1012,5 hPa 0,0 l/m 10,8 km/h (2 Bft) O-NO 59 0 min 0,000 mm 0,0 UV-I 0 W/m 4,7 C 1,9 C 16,1 km/h (3 Bft) 100,00 %
14.10.2016 06:14 5,4 C 96 % 1012,6 hPa 0,0 l/m 11,8 km/h (2 Bft) O-NO 68 0 min 0,000 mm 0,0 UV-I 0 W/m 4,8 C 1,3 C 16,1 km/h (3 Bft) 100,00 %
14.10.2016 06:16 5,4 C 96 % 1012,6 hPa 0,0 l/m 8,3 km/h (2 Bft) O-NO 67 0 min 0,000 mm 0,0 UV-I 0 W/m 4,8 C 3,8 C 12,9 km/h (3 Bft) 100,00 %
14.10.2016 06:18 5,5 C 96 % 1012,5 hPa 0,0 l/m 8,3 km/h (2 Bft) O-NO 64 0 min 0,000 mm 0,0 UV-I 0 W/m 4,9 C 3,9 C 12,9 km/h (3 Bft) 100,00 %
14.10.2016 06:20 5,5 C 96 % 1012,5 hPa 0,0 l/m 7,0 km/h (2 Bft) NO 43 0 min 0,000 mm 0,0 UV-I 0 W/m 4,9 C 5,0 C 9,7 km/h (2 Bft) 100,00 %
14.10.2016 06:22 5,4 C 96 % 1012,5 hPa 0,0 l/m 10,9 km/h (2 Bft) NO 47 0 min 0,000 mm 0,0 UV-I 0 W/m 4,8 C 1,9 C 16,1 km/h (3 Bft) 98,11 %
14.10.2016 06:24 5,4 C 96 % 1012,5 hPa 0,0 l/m 7,8 km/h (2 Bft) O 82 0 min 0,000 mm 0,0 UV-I 0 W/m 4,8 C 4,2 C 12,9 km/h (3 Bft) 98,00 %
14.10.2016 06:26 5,4 C 95 % 1012,5 hPa 0,0 l/m 7,1 km/h (2 Bft) O-NO 63 0 min 0,000 mm 0,0 UV-I 0 W/m 4,7 C 4,8 C 12,9 km/h (3 Bft) 100,00 %
14.10.2016 06:28 5,4 C 95 % 1012,5 hPa 0,0 l/m 5,7 km/h (1 Bft) NO 42 0 min 0,000 mm 0,0 UV-I 0 W/m 4,7 C 5,4 C 9,7 km/h (2 Bft) 98,31 %
14.10.2016 06:30 5,4 C 95 % 1012,4 hPa 0,0 l/m 5,4 km/h (1 Bft) NO 55 0 min 0,000 mm 0,0 UV-I 0 W/m 4,7 C 5,4 C 8,0 km/h (2 Bft) 100,00 %
14.10.2016 06:32 5,3 C 96 % 1012,4 hPa 0,0 l/m 7,3 km/h (2 Bft) O-NO 60 0 min 0,000 mm 0,0 UV-I 0 W/m 4,7 C 4,5 C 14,5 km/h (3 Bft) 97,87 %
14.10.2016 06:34 5,3 C 96 % 1012,4 hPa 0,0 l/m 6,8 km/h (2 Bft) NO 42 0 min 0,000 mm 0,0 UV-I 0 W/m 4,7 C 5,0 C 11,3 km/h (2 Bft) 100,00 %
14.10.2016 06:36 5,4 C 96 % 1012,4 hPa 0,0 l/m 6,5 km/h (2 Bft) NO 37 0 min 0,000 mm 0,0 UV-I 0 W/m 4,8 C 5,3 C 9,7 km/h (2 Bft) 100,00 %
14.10.2016 06:38 5,3 C 96 % 1012,5 hPa 0,0 l/m 7,9 km/h (2 Bft) NO 34 0 min 0,000 mm 0,0 UV-I 0 W/m 4,7 C 4,0 C 14,5 km/h (3 Bft) 100,00 %
14.10.2016 06:40 5,3 C 95 % 1012,5 hPa 0,0 l/m 5,8 km/h (2 Bft) NO 49 0 min 0,000 mm 0,0 UV-I 0 W/m 4,6 C 5,3 C 9,7 km/h (2 Bft) 97,56 %
14.10.2016 06:42 5,3 C 96 % 1012,5 hPa 0,0 l/m 4,2 km/h (1 Bft) NO 34 0 min 0,000 mm 0,0 UV-I 0 W/m 4,7 C 5,3 C 6,4 km/h (2 Bft) 100,00 %
14.10.2016 06:44 5,3 C 96 % 1012,5 hPa 0,0 l/m 5,1 km/h (1 Bft) N-NO 29 0 min 0,000 mm 0,0 UV-I 0 W/m 4,7 C 5,3 C 8,0 km/h (2 Bft) 100,00 %
14.10.2016 06:46 5,3 C 96 % 1012,5 hPa 0,0 l/m 5,8 km/h (2 Bft) O-NO 69 0 min 0,000 mm 0,0 UV-I 0 W/m 4,7 C 5,3 C 8,0 km/h (2 Bft) 100,00 %
14.10.2016 06:48 5,3 C 96 % 1012,5 hPa 0,0 l/m 5,8 km/h (2 Bft) NO 46 0 min 0,000 mm 0,0 UV-I 0 W/m 4,7 C 5,3 C 8,0 km/h (2 Bft) 100,00 %
14.10.2016 06:50 5,4 C 96 % 1012,6 hPa 0,0 l/m 5,5 km/h (1 Bft) NO 50 0 min 0,000 mm 0,0 UV-I 0 W/m 4,8 C 5,4 C 6,4 km/h (2 Bft) 97,87 %
14.10.2016 06:52 5,4 C 96 % 1012,6 hPa 0,0 l/m 5,6 km/h (1 Bft) O-NO 71 0 min 0,000 mm 0,0 UV-I 0 W/m 4,8 C 5,4 C 9,7 km/h (2 Bft) 98,00 %
14.10.2016 06:54 5,4 C 96 % 1012,5 hPa 0,0 l/m 6,7 km/h (2 Bft) NO 39 0 min 0,000 mm 0,0 UV-I 0 W/m 4,8 C 5,2 C 11,3 km/h (2 Bft) 100,00 %
14.10.2016 06:56 5,5 C 96 % 1012,5 hPa 0,0 l/m 5,5 km/h (1 Bft) NO 46 0 min 0,000 mm 0,0 UV-I 0 W/m 4,9 C 5,5 C 8,0 km/h (2 Bft) 98,11 %
14.10.2016 06:58 5,5 C 96 % 1012,4 hPa 0,0 l/m 10,8 km/h (2 Bft) NO 34 0 min 0,000 mm 0,0 UV-I 0 W/m 4,9 C 2,1 C 19,3 km/h (3 Bft) 100,00 %
14.10.2016 07:00 5,6 C 96 % 1012,5 hPa 0,0 l/m 8,1 km/h (2 Bft) NO 47 0 min 0,000 mm 0,0 UV-I 0 W/m 5,0 C 4,2 C 17,7 km/h (3 Bft) 100,00 %
14.10.2016 07:02 5,6 C 96 % 1012,3 hPa 0,0 l/m 8,9 km/h (2 Bft) NO 46 0 min 0,000 mm 0,0 UV-I 0 W/m 5,0 C 3,5 C 12,9 km/h (3 Bft) 100,00 %
14.10.2016 07:04 5,6 C 96 % 1012,2 hPa 0,0 l/m 8,3 km/h (2 Bft) NO 37 0 min 0,000 mm 0,0 UV-I 0 W/m 5,0 C 4,0 C 14,5 km/h (3 Bft) 98,28 %
14.10.2016 07:06 5,6 C 96 % 1012,1 hPa 0,0 l/m 11,2 km/h (2 Bft) N-NO 31 0 min 0,000 mm 0,0 UV-I 0 W/m 5,0 C 1,9 C 17,7 km/h (3 Bft) 100,00 %
14.10.2016 07:08 5,6 C 96 % 1012,1 hPa 0,0 l/m 9,7 km/h (2 Bft) NO 40 0 min 0,000 mm 0,0 UV-I 0 W/m 5,0 C 2,9 C 16,1 km/h (3 Bft) 95,12 %
14.10.2016 07:10 5,6 C 96 % 1012,1 hPa 0,0 l/m 6,8 km/h (2 Bft) NO 45 0 min 0,000 mm 0,0 UV-I 0 W/m 5,0 C 5,3 C 9,7 km/h (2 Bft) 100,00 %
14.10.2016 07:12 5,6 C 96 % 1012,1 hPa 0,0 l/m 14,7 km/h (3 Bft) O 79 0 min 0,000 mm 0,0 UV-I 0 W/m 5,0 C -0,0 C 24,1 km/h (4 Bft) 100,00 %
14.10.2016 07:14 5,7 C 96 % 1012,1 hPa 0,0 l/m 16,9 km/h (3 Bft) O 84 0 min 0,000 mm 0,0 UV-I 0 W/m 5,1 C -1,0 C 24,1 km/h (4 Bft) 100,00 %
14.10.2016 07:16 5,7 C 96 % 1012,2 hPa 0,0 l/m 14,7 km/h (3 Bft) NO 49 0 min 0,000 mm 0,0 UV-I 0 W/m 5,1 C 0,1 C 22,5 km/h (4 Bft) 100,00 %
14.10.2016 07:18 5,7 C 96 % 1012,2 hPa 0,0 l/m 17,0 km/h (3 Bft) NO 54 0 min 0,000 mm 0,0 UV-I 0 W/m 5,1 C -1,0 C 22,5 km/h (4 Bft) 95,74 %
14.10.2016 07:20 5,8 C 96 % 1012,2 hPa 0,0 l/m 17,4 km/h (3 Bft) O-NO 73 0 min 0,000 mm 0,0 UV-I 0 W/m 5,2 C -1,1 C 27,4 km/h (4 Bft) 93,62 %
14.10.2016 07:22 5,8 C 96 % 1012,2 hPa 0,0 l/m 16,7 km/h (3 Bft) O-NO 76 0 min 0,000 mm 0,0 UV-I 0 W/m 5,2 C -0,8 C 22,5 km/h (4 Bft) 97,56 %
14.10.2016 07:24 5,9 C 96 % 1012,1 hPa 0,0 l/m 15,3 km/h (3 Bft) NO 53 0 min 0,000 mm 0,0 UV-I 0 W/m 5,3 C 0,0 C 20,9 km/h (4 Bft) 96,23 %
14.10.2016 07:26 5,9 C 95 % 1012,1 hPa 0,0 l/m 13,2 km/h (3 Bft) O-NO 65 0 min 0,000 mm 0,0 UV-I 0 W/m 5,2 C 1,1 C 20,9 km/h (4 Bft) 95,45 %
14.10.2016 07:28 5,9 C 95 % 1012,1 hPa 0,0 l/m 14,3 km/h (3 Bft) NO 53 0 min 0,000 mm 0,0 UV-I 0 W/m 5,2 C 0,5 C 20,9 km/h (4 Bft) 97,44 %
14.10.2016 07:30 5,9 C 95 % 1012,1 hPa 0,0 l/m 11,1 km/h (2 Bft) NO 56 0 min 0,000 mm 0,0 UV-I 1 W/m 5,2 C 2,3 C 17,7 km/h (3 Bft) 96,55 %
14.10.2016 07:32 5,9 C 95 % 1012,2 hPa 0,0 l/m 19,6 km/h (3 Bft) O-NO 68 0 min 0,000 mm 0,0 UV-I 5 W/m 5,2 C -1,9 C 29,0 km/h (5 Bft) 91,49 %
14.10.2016 07:34 5,9 C 95 % 1012,3 hPa 0,0 l/m 17,7 km/h (3 Bft) O-NO 69 0 min 0,000 mm 0,0 UV-I 5 W/m 5,2 C -1,1 C 22,5 km/h (4 Bft) 97,22 %
14.10.2016 07:36 6,0 C 95 % 1012,3 hPa 0,0 l/m 18,8 km/h (3 Bft) NO 48 0 min 0,000 mm 0,0 UV-I 7 W/m 5,3 C -1,4 C 25,7 km/h (4 Bft) 98,31 %
14.10.2016 07:38 6,1 C 95 % 1012,3 hPa 0,0 l/m 17,7 km/h (3 Bft) O 88 0 min 0,000 mm 0,0 UV-I 7 W/m 5,4 C -0,8 C 24,1 km/h (4 Bft) 97,56 %
14.10.2016 07:40 6,1 C 95 % 1012,4 hPa 0,0 l/m 14,8 km/h (3 Bft) O-NO 76 0 min 0,000 mm 0,0 UV-I 7 W/m 5,4 C 0,5 C 25,7 km/h (4 Bft) 98,11 %
14.10.2016 07:42 6,1 C 95 % 1012,4 hPa 0,0 l/m 15,0 km/h (3 Bft) O-NO 70 0 min 0,000 mm 0,0 UV-I 8 W/m 5,4 C 0,4 C 22,5 km/h (4 Bft) 97,73 %
14.10.2016 07:44 6,2 C 95 % 1012,2 hPa 0,0 l/m 17,3 km/h (3 Bft) O-NO 74 0 min 0,000 mm 0,0 UV-I 8 W/m 5,5 C -0,5 C 27,4 km/h (4 Bft) 97,87 %
14.10.2016 07:46 6,2 C 95 % 1012,2 hPa 0,0 l/m 16,9 km/h (3 Bft) NO 39 0 min 0,000 mm 0,0 UV-I 9 W/m 5,5 C -0,4 C 22,5 km/h (4 Bft) 93,62 %
14.10.2016 07:48 6,2 C 95 % 1012,4 hPa 0,0 l/m 17,7 km/h (3 Bft) O-NO 63 0 min 0,000 mm 0,0 UV-I 9 W/m 5,5 C -0,7 C 29,0 km/h (5 Bft) 97,56 %
14.10.2016 07:50 6,2 C 95 % 1012,4 hPa 0,0 l/m 21,5 km/h (4 Bft) O-NO 63 0 min 0,000 mm 0,0 UV-I 8 W/m 5,5 C -2,2 C 29,0 km/h (5 Bft) 96,23 %
14.10.2016 07:52 6,3 C 95 % 1012,4 hPa 0,0 l/m 15,2 km/h (3 Bft) O-NO 78 0 min 0,000 mm 0,0 UV-I 9 W/m 5,6 C 0,6 C 22,5 km/h (4 Bft) 97,37 %
14.10.2016 07:54 6,3 C 95 % 1012,4 hPa 0,0 l/m 15,4 km/h (3 Bft) O-NO 73 0 min 0,000 mm 0,0 UV-I 9 W/m 5,6 C 0,5 C 22,5 km/h (4 Bft) 100,00 %
14.10.2016 07:56 6,3 C 95 % 1012,3 hPa 0,0 l/m 19,9 km/h (4 Bft) O-NO 66 0 min 0,000 mm 0,0 UV-I 11 W/m 5,6 C -1,5 C 30,6 km/h (5 Bft) 97,37 %
14.10.2016 07:58 6,3 C 95 % 1012,3 hPa 0,0 l/m 22,5 km/h (4 Bft) NO 41 0 min 0,000 mm 0,0 UV-I 11 W/m 5,6 C -2,4 C 30,6 km/h (5 Bft) 100,00 %
14.10.2016 08:00 6,3 C 95 % 1012,2 hPa 0,0 l/m 18,3 km/h (3 Bft) NO 46 0 min 0,000 mm 0,0 UV-I 13 W/m 5,6 C -0,8 C 22,5 km/h (4 Bft) 100,00 %
14.10.2016 08:02 6,3 C 95 % 1012,2 hPa 0,0 l/m 18,7 km/h (3 Bft) NO 53 0 min 0,000 mm 0,0 UV-I 16 W/m 5,6 C -1,0 C 24,1 km/h (4 Bft) 97,37 %
14.10.2016 08:04 6,4 C 95 % 1012,1 hPa 0,0 l/m 20,6 km/h (4 Bft) O-NO 66 0 min 0,000 mm 0,0 UV-I 16 W/m 5,7 C -1,6 C 29,0 km/h (5 Bft) 96,43 %
14.10.2016 08:06 6,4 C 95 % 1012,2 hPa 0,0 l/m 15,9 km/h (3 Bft) NO 53 0 min 0,000 mm 0,0 UV-I 15 W/m 5,7 C 0,3 C 24,1 km/h (4 Bft) 98,00 %
14.10.2016 08:08 6,4 C 95 % 1012,3 hPa 0,0 l/m 14,4 km/h (3 Bft) O 82 0 min 0,000 mm 0,0 UV-I 18 W/m 5,7 C 1,1 C 20,9 km/h (4 Bft) 100,00 %
14.10.2016 08:10 6,4 C 95 % 1012,4 hPa 0,0 l/m 12,9 km/h (3 Bft) O-NO 69 0 min 0,000 mm 0,0 UV-I 19 W/m 5,7 C 1,9 C 19,3 km/h (3 Bft) 100,00 %
14.10.2016 08:12 6,4 C 95 % 1012,4 hPa 0,0 l/m 16,7 km/h (3 Bft) NO 46 0 min 0,000 mm 0,0 UV-I 19 W/m 5,7 C -0,0 C 25,7 km/h (4 Bft) 100,00 %
14.10.2016 08:14 6,4 C 95 % 1012,5 hPa 0,0 l/m 17,9 km/h (3 Bft) O-NO 64 0 min 0,000 mm 0,0 UV-I 19 W/m 5,7 C -0,5 C 24,1 km/h (4 Bft) 100,00 %
14.10.2016 08:16 6,4 C 95 % 1012,5 hPa 0,0 l/m 14,7 km/h (3 Bft) O-NO 71 0 min 0,000 mm 0,0 UV-I 20 W/m 5,7 C 0,9 C 20,9 km/h (4 Bft) 100,00 %
14.10.2016 08:18 6,4 C 95 % 1012,3 hPa 0,0 l/m 15,6 km/h (3 Bft) O-NO 64 0 min 0,000 mm 0,0 UV-I 22 W/m 5,7 C 0,5 C 20,9 km/h (4 Bft) 100,00 %
14.10.2016 08:20 6,4 C 94 % 1012,3 hPa 0,0 l/m 14,3 km/h (3 Bft) O 82 0 min 0,000 mm 0,0 UV-I 26 W/m 5,5 C 1,1 C 22,5 km/h (4 Bft) 100,00 %
14.10.2016 08:22 6,4 C 94 % 1012,2 hPa 0,0 l/m 20,6 km/h (4 Bft) O-NO 57 0 min 0,000 mm 0,0 UV-I 24 W/m 5,5 C -1,6 C 25,7 km/h (4 Bft) 100,00 %
14.10.2016 08:24 6,4 C 95 % 1012,2 hPa 0,0 l/m 19,3 km/h (3 Bft) O-NO 67 0 min 0,000 mm 0,0 UV-I 26 W/m 5,7 C -1,1 C 25,7 km/h (4 Bft) 100,00 %
14.10.2016 08:26 6,5 C 95 % 1012,3 hPa 0,0 l/m 22,0 km/h (4 Bft) O-NO 60 0 min 0,000 mm 0,0 UV-I 28 W/m 5,8 C -2,0 C 29,0 km/h (5 Bft) 100,00 %
14.10.2016 08:28 6,5 C 95 % 1012,3 hPa 0,0 l/m 19,4 km/h (3 Bft) O 88 0 min 0,000 mm 0,0 UV-I 31 W/m 5,8 C -1,0 C 29,0 km/h (5 Bft) 100,00 %
14.10.2016 08:30 6,5 C 94 % 1012,3 hPa 0,0 l/m 20,7 km/h (4 Bft) O 85 0 min 0,000 mm 0,0 UV-I 37 W/m 5,6 C -1,5 C 30,6 km/h (5 Bft) 100,00 %
14.10.2016 08:32 6,5 C 94 % 1012,5 hPa 0,0 l/m 18,4 km/h (3 Bft) O 86 0 min 0,000 mm 0,0 UV-I 40 W/m 5,6 C -0,6 C 29,0 km/h (5 Bft) 100,00 %
14.10.2016 08:34 6,5 C 94 % 1012,5 hPa 0,0 l/m 15,7 km/h (3 Bft) O-NO 64 0 min 0,000 mm 0,0 UV-I 41 W/m 5,6 C 0,6 C 24,1 km/h (4 Bft) 100,00 %
14.10.2016 08:36 6,6 C 94 % 1012,3 hPa 0,0 l/m 18,1 km/h (3 Bft) O-NO 61 0 min 0,000 mm 0,0 UV-I 46 W/m 5,7 C -0,4 C 27,4 km/h (4 Bft) 97,87 %
14.10.2016 08:38 6,6 C 94 % 1012,2 hPa 0,0 l/m 16,0 km/h (3 Bft) O-NO 58 0 min 0,000 mm 0,0 UV-I 47 W/m 5,7 C 0,5 C 22,5 km/h (4 Bft) 98,11 %
14.10.2016 08:40 6,6 C 94 % 1012,2 hPa 0,0 l/m 18,0 km/h (3 Bft) O-NO 73 0 min 0,000 mm 0,0 UV-I 48 W/m 5,7 C -0,3 C 24,1 km/h (4 Bft) 100,00 %
14.10.2016 08:42 6,6 C 94 % 1012,2 hPa 0,0 l/m 15,3 km/h (3 Bft) NO 49 0 min 0,000 mm 0,0 UV-I 53 W/m 5,7 C 0,9 C 25,7 km/h (4 Bft) 100,00 %
14.10.2016 08:44 6,6 C 94 % 1012,2 hPa 0,0 l/m 25,1 km/h (4 Bft) NO 44 0 min 0,000 mm 0,0 UV-I 50 W/m 5,7 C -2,8 C 32,2 km/h (5 Bft) 100,00 %
14.10.2016 08:46 6,6 C 94 % 1012,1 hPa 0,0 l/m 21,3 km/h (4 Bft) O-NO 69 0 min 0,000 mm 0,0 UV-I 54 W/m 5,7 C -1,6 C 32,2 km/h (5 Bft) 100,00 %
14.10.2016 08:48 6,6 C 94 % 1012,2 hPa 0,0 l/m 17,2 km/h (3 Bft) NO 34 0 min 0,000 mm 0,0 UV-I 55 W/m 5,7 C 0,0 C 25,7 km/h (4 Bft) 100,00 %
14.10.2016 08:50 6,7 C 94 % 1012,2 hPa 0,0 l/m 23,5 km/h (4 Bft) O-NO 64 0 min 0,000 mm 0,0 UV-I 56 W/m 5,8 C -2,2 C 29,0 km/h (5 Bft) 97,44 %
14.10.2016 08:52 6,6 C 94 % 1012,2 hPa 0,0 l/m 23,4 km/h (4 Bft) NO 46 0 min 0,000 mm 0,0 UV-I 52 W/m 5,7 C -2,3 C 30,6 km/h (5 Bft) 100,00 %
14.10.2016 08:54 6,7 C 94 % 1012,1 hPa 0,0 l/m 20,2 km/h (4 Bft) O-NO 65 0 min 0,000 mm 0,0 UV-I 56 W/m 5,8 C -1,1 C 25,7 km/h (4 Bft) 100,00 %
14.10.2016 08:56 6,7 C 94 % 1012,1 hPa 0,0 l/m 23,3 km/h (4 Bft) NO 56 0 min 0,000 mm 0,0 UV-I 35 W/m 5,8 C -2,1 C 29,0 km/h (5 Bft) 100,00 %
14.10.2016 08:58 6,7 C 94 % 1012,1 hPa 0,0 l/m 20,2 km/h (4 Bft) O-NO 62 0 min 0,000 mm 0,0 UV-I 58 W/m 5,8 C -1,1 C 27,4 km/h (4 Bft) 100,00 %
14.10.2016 09:00 6,7 C 94 % 1012,0 hPa 0,0 l/m 20,1 km/h (4 Bft) O-NO 57 0 min 0,025 mm 0,0 UV-I 69 W/m 5,8 C -1,0 C 27,4 km/h (4 Bft) 100,00 %
14.10.2016 09:02 6,7 C 94 % 1012,1 hPa 0,0 l/m 20,5 km/h (4 Bft) O-NO 67 0 min 0,000 mm 0,0 UV-I 66 W/m 5,8 C -1,2 C 25,7 km/h (4 Bft) 98,00 %
14.10.2016 09:04 6,7 C 94 % 1012,2 hPa 0,0 l/m 15,7 km/h (3 Bft) O-NO 75 0 min 0,000 mm 0,0 UV-I 48 W/m 5,8 C 0,8 C 22,5 km/h (4 Bft) 98,00 %
14.10.2016 09:06 6,7 C 94 % 1012,1 hPa 0,0 l/m 14,2 km/h (3 Bft) NO 46 0 min 0,000 mm 0,0 UV-I 31 W/m 5,8 C 1,5 C 22,5 km/h (4 Bft) 100,00 %
14.10.2016 09:08 6,7 C 94 % 1012,1 hPa 0,0 l/m 18,7 km/h (3 Bft) O-NO 59 0 min 0,000 mm 0,0 UV-I 32 W/m 5,8 C -0,5 C 24,1 km/h (4 Bft) 100,00 %
14.10.2016 09:10 6,7 C 94 % 1012,2 hPa 0,0 l/m 17,9 km/h (3 Bft) O-NO 63 0 min 0,000 mm 0,0 UV-I 38 W/m 5,8 C -0,2 C 24,1 km/h (4 Bft) 97,56 %
14.10.2016 09:12 6,7 C 94 % 1012,2 hPa 0,0 l/m 18,0 km/h (3 Bft) O-NO 74 0 min 0,000 mm 0,0 UV-I 59 W/m 5,8 C -0,2 C 24,1 km/h (4 Bft) 100,00 %
14.10.2016 09:14 6,7 C 94 % 1012,2 hPa 0,0 l/m 21,5 km/h (4 Bft) O 84 0 min 0,000 mm 0,0 UV-I 82 W/m 5,8 C -1,5 C 29,0 km/h (5 Bft) 100,00 %
14.10.2016 09:16 6,7 C 94 % 1012,1 hPa 0,0 l/m 23,5 km/h (4 Bft) O-NO 64 0 min 0,000 mm 0,0 UV-I 96 W/m 5,8 C -2,2 C 32,2 km/h (5 Bft) 100,00 %
14.10.2016 09:18 6,7 C 94 % 1012,1 hPa 0,0 l/m 19,9 km/h (4 Bft) O-NO 75 0 min 0,000 mm 0,0 UV-I 99 W/m 5,8 C -0,9 C 25,7 km/h (4 Bft) 100,00 %
14.10.2016 09:20 6,7 C 94 % 1012,1 hPa 0,0 l/m 19,8 km/h (3 Bft) O-NO 68 0 min 0,000 mm 0,0 UV-I 90 W/m 5,8 C -0,9 C 27,4 km/h (4 Bft) 98,00 %
14.10.2016 09:22 6,7 C 94 % 1012,0 hPa 0,0 l/m 15,2 km/h (3 Bft) NO 54 0 min 0,000 mm 0,0 UV-I 90 W/m 5,8 C 1,0 C 20,9 km/h (4 Bft) 90,24 %
14.10.2016 09:24 6,8 C 94 % 1012,0 hPa 0,0 l/m 19,0 km/h (3 Bft) O-NO 61 0 min 0,000 mm 0,0 UV-I 85 W/m 5,9 C -0,5 C 24,1 km/h (4 Bft) 98,11 %
14.10.2016 09:26 6,8 C 93 % 1012,1 hPa 0,0 l/m 23,5 km/h (4 Bft) O-NO 69 0 min 0,000 mm 0,0 UV-I 70 W/m 5,7 C -2,0 C 37,0 km/h (5 Bft) 98,00 %
14.10.2016 09:28 6,8 C 93 % 1012,1 hPa 0,0 l/m 19,6 km/h (3 Bft) NO 54 0 min 0,000 mm 0,0 UV-I 74 W/m 5,7 C -0,7 C 27,4 km/h (4 Bft) 97,44 %
14.10.2016 09:30 6,8 C 93 % 1012,1 hPa 0,0 l/m 20,0 km/h (4 Bft) O-NO 57 0 min 0,000 mm 0,0 UV-I 60 W/m 5,7 C -0,8 C 27,4 km/h (4 Bft) 95,74 %
14.10.2016 09:32 6,8 C 93 % 1012,1 hPa 0,0 l/m 19,6 km/h (3 Bft) O 88 0 min 0,000 mm 0,0 UV-I 55 W/m 5,7 C -0,7 C 29,0 km/h (5 Bft) 97,87 %
14.10.2016 09:34 6,8 C 93 % 1012,1 hPa 0,0 l/m 23,2 km/h (4 Bft) O-NO 58 0 min 0,000 mm 0,0 UV-I 49 W/m 5,7 C -1,9 C 29,0 km/h (5 Bft) 96,43 %
14.10.2016 09:36 6,8 C 93 % 1012,1 hPa 0,0 l/m 21,8 km/h (4 Bft) O-NO 74 0 min 0,000 mm 0,0 UV-I 39 W/m 5,7 C -1,5 C 30,6 km/h (5 Bft) 100,00 %
14.10.2016 09:38 6,7 C 93 % 1012,1 hPa 0,0 l/m 19,2 km/h (3 Bft) O-NO 66 0 min 0,000 mm 0,0 UV-I 39 W/m 5,6 C -0,7 C 25,7 km/h (4 Bft) 96,92 %
14.10.2016 09:40 6,7 C 93 % 1012,1 hPa 0,0 l/m 18,3 km/h (3 Bft) NO 55 0 min 0,000 mm 0,0 UV-I 40 W/m 5,6 C -0,3 C 24,1 km/h (4 Bft) 96,15 %
14.10.2016 09:42 6,7 C 93 % 1012,0 hPa 0,0 l/m 14,8 km/h (3 Bft) O-NO 70 0 min 0,000 mm 0,0 UV-I 45 W/m 5,6 C 1,2 C 27,4 km/h (4 Bft) 98,46 %
14.10.2016 09:44 6,7 C 93 % 1012,0 hPa 0,0 l/m 18,0 km/h (3 Bft) NO 53 0 min 0,000 mm 0,0 UV-I 50 W/m 5,6 C -0,2 C 25,7 km/h (4 Bft) 95,74 %
14.10.2016 09:46 6,7 C 93 % 1012,0 hPa 0,0 l/m 19,0 km/h (3 Bft) O-NO 68 0 min 0,000 mm 0,0 UV-I 57 W/m 5,6 C -0,6 C 25,7 km/h (4 Bft) 98,00 %
14.10.2016 09:48 6,8 C 93 % 1012,0 hPa 0,0 l/m 21,7 km/h (4 Bft) O 86 0 min 0,000 mm 0,0 UV-I 61 W/m 5,7 C -1,5 C 30,6 km/h (5 Bft) 97,56 %
14.10.2016 09:50 6,8 C 93 % 1012,0 hPa 0,0 l/m 21,0 km/h (4 Bft) O-NO 71 0 min 0,000 mm 0,0 UV-I 63 W/m 5,7 C -1,2 C 29,0 km/h (5 Bft) 96,23 %
14.10.2016 09:52 6,8 C 93 % 1012,0 hPa 0,0 l/m 19,0 km/h (3 Bft) NO 51 0 min 0,000 mm 0,0 UV-I 66 W/m 5,7 C -0,5 C 25,7 km/h (4 Bft) 100,00 %
14.10.2016 09:54 6,8 C 93 % 1012,0 hPa 0,0 l/m 18,6 km/h (3 Bft) NO 56 0 min 0,000 mm 0,0 UV-I 67 W/m 5,7 C -0,3 C 33,8 km/h (5 Bft) 98,11 %
14.10.2016 09:56 6,8 C 93 % 1012,0 hPa 0,0 l/m 21,3 km/h (4 Bft) O-NO 72 0 min 0,000 mm 0,0 UV-I 72 W/m 5,7 C -1,3 C 29,0 km/h (5 Bft) 97,87 %
14.10.2016 09:58 6,8 C 93 % 1012,0 hPa 0,0 l/m 14,0 km/h (3 Bft) O-NO 59 0 min 0,000 mm 0,0 UV-I 77 W/m 5,7 C 1,8 C 17,7 km/h (3 Bft) 100,00 %
14.10.2016 10:00 6,8 C 93 % 1011,9 hPa 0,0 l/m 17,8 km/h (3 Bft) O-NO 58 0 min 0,026 mm 0,0 UV-I 79 W/m 5,7 C 0,0 C 24,1 km/h (4 Bft) 100,00 %
14.10.2016 10:02 6,8 C 93 % 1011,8 hPa 0,0 l/m 21,4 km/h (4 Bft) O-NO 63 0 min 0,000 mm 0,0 UV-I 84 W/m 5,7 C -1,3 C 25,7 km/h (4 Bft) 100,00 %
14.10.2016 10:04 6,8 C 93 % 1011,8 hPa 0,0 l/m 19,3 km/h (3 Bft) NO 55 0 min 0,000 mm 0,0 UV-I 88 W/m 5,7 C -0,6 C 29,0 km/h (5 Bft) 100,00 %
14.10.2016 10:06 6,9 C 93 % 1011,8 hPa 0,0 l/m 21,2 km/h (4 Bft) O-NO 59 0 min 0,000 mm 0,0 UV-I 87 W/m 5,8 C -1,1 C 29,0 km/h (5 Bft) 97,87 %
14.10.2016 10:08 6,9 C 93 % 1011,7 hPa 0,0 l/m 20,7 km/h (4 Bft) O 79 0 min 0,000 mm 0,0 UV-I 94 W/m 5,8 C -1,0 C 32,2 km/h (5 Bft) 100,00 %
14.10.2016 10:10 6,9 C 93 % 1011,7 hPa 0,0 l/m 17,9 km/h (3 Bft) NO 51 0 min 0,000 mm 0,0 UV-I 103 W/m 5,8 C 0,1 C 24,1 km/h (4 Bft) 100,00 %
14.10.2016 10:12 6,9 C 93 % 1011,8 hPa 0,0 l/m 18,4 km/h (3 Bft) NO 42 0 min 0,000 mm 0,0 UV-I 111 W/m 5,8 C -0,1 C 29,0 km/h (5 Bft) 100,00 %
14.10.2016 10:14 6,9 C 93 % 1011,7 hPa 0,0 l/m 15,9 km/h (3 Bft) NO 48 0 min 0,000 mm 0,0 UV-I 113 W/m 5,8 C 1,0 C 24,1 km/h (4 Bft) 100,00 %
14.10.2016 10:16 7,0 C 93 % 1011,7 hPa 0,0 l/m 20,6 km/h (4 Bft) NO 48 0 min 0,000 mm 0,0 UV-I 106 W/m 5,9 C -0,8 C 29,0 km/h (5 Bft) 100,00 %
14.10.2016 10:18 7,0 C 93 % 1011,7 hPa 0,0 l/m 20,6 km/h (4 Bft) O-NO 78 0 min 0,000 mm 0,0 UV-I 106 W/m 5,9 C -0,8 C 30,6 km/h (5 Bft) 95,74 %
14.10.2016 10:20 7,1 C 93 % 1011,8 hPa 0,0 l/m 20,3 km/h (4 Bft) NO 47 0 min 0,000 mm 0,0 UV-I 114 W/m 6,0 C -0,6 C 29,0 km/h (5 Bft) 100,00 %
14.10.2016 10:22 7,1 C 93 % 1011,9 hPa 0,0 l/m 21,1 km/h (4 Bft) O-NO 68 0 min 0,000 mm 0,0 UV-I 121 W/m 6,0 C -0,9 C 30,6 km/h (5 Bft) 98,11 %
14.10.2016 10:24 7,1 C 93 % 1011,9 hPa 0,0 l/m 21,7 km/h (4 Bft) O-NO 78 0 min 0,000 mm 0,0 UV-I 125 W/m 6,0 C -1,1 C 27,4 km/h (4 Bft) 100,00 %
14.10.2016 10:26 7,1 C 93 % 1012,0 hPa 0,0 l/m 14,7 km/h (3 Bft) O-NO 67 0 min 0,000 mm 0,0 UV-I 114 W/m 6,0 C 1,8 C 20,9 km/h (4 Bft) 100,00 %
14.10.2016 10:28 7,1 C 93 % 1011,9 hPa 0,0 l/m 14,0 km/h (3 Bft) O-NO 74 0 min 0,000 mm 0,0 UV-I 103 W/m 6,0 C 2,1 C 19,3 km/h (3 Bft) 100,00 %
14.10.2016 10:30 7,2 C 93 % 1011,9 hPa 0,0 l/m 14,6 km/h (3 Bft) O-NO 62 0 min 0,000 mm 0,0 UV-I 112 W/m 6,1 C 1,9 C 20,9 km/h (4 Bft) 100,00 %
14.10.2016 10:32 7,2 C 93 % 1012,0 hPa 0,0 l/m 17,8 km/h (3 Bft) NO 38 0 min 0,000 mm 0,0 UV-I 95 W/m 6,1 C 0,5 C 27,4 km/h (4 Bft) 100,00 %
14.10.2016 10:34 7,2 C 93 % 1012,0 hPa 0,0 l/m 18,7 km/h (3 Bft) O 87 0 min 0,000 mm 0,0 UV-I 94 W/m 6,1 C 0,2 C 24,1 km/h (4 Bft) 100,00 %
14.10.2016 10:36 7,2 C 93 % 1012,0 hPa 0,0 l/m 15,0 km/h (3 Bft) NO 38 0 min 0,000 mm 0,0 UV-I 104 W/m 6,1 C 1,7 C 19,3 km/h (3 Bft) 100,00 %
14.10.2016 10:38 7,2 C 93 % 1011,9 hPa 0,0 l/m 15,3 km/h (3 Bft) O-NO 65 0 min 0,000 mm 0,0 UV-I 105 W/m 6,1 C 1,6 C 20,9 km/h (4 Bft) 100,00 %
14.10.2016 10:40 7,2 C 93 % 1011,9 hPa 0,0 l/m 18,3 km/h (3 Bft) NO 52 0 min 0,000 mm 0,2 UV-I 115 W/m 6,1 C 0,3 C 27,4 km/h (4 Bft) 100,00 %
14.10.2016 10:42 7,2 C 93 % 1011,9 hPa 0,0 l/m 16,7 km/h (3 Bft) O-NO 66 0 min 0,000 mm 0,2 UV-I 122 W/m 6,1 C 1,0 C 25,7 km/h (4 Bft) 98,00 %
14.10.2016 10:44 7,3 C 93 % 1011,9 hPa 0,0 l/m 14,0 km/h (3 Bft) NO 55 0 min 0,000 mm 0,5 UV-I 136 W/m 6,2 C 2,3 C 20,9 km/h (4 Bft) 98,00 %
14.10.2016 10:46 7,3 C 92 % 1012,0 hPa 0,0 l/m 17,4 km/h (3 Bft) O-NO 74 0 min 0,000 mm 0,5 UV-I 146 W/m 6,1 C 0,8 C 24,1 km/h (4 Bft) 100,00 %
14.10.2016 10:48 7,4 C 93 % 1012,0 hPa 0,0 l/m 14,1 km/h (3 Bft) O-NO 76 0 min 0,000 mm 0,6 UV-I 148 W/m 6,3 C 2,4 C 22,5 km/h (4 Bft) 100,00 %
14.10.2016 10:50 7,4 C 92 % 1012,0 hPa 0,0 l/m 17,0 km/h (3 Bft) O-NO 58 0 min 0,000 mm 0,5 UV-I 140 W/m 6,2 C 1,1 C 24,1 km/h (4 Bft) 100,00 %
14.10.2016 10:52 7,4 C 92 % 1012,0 hPa 0,0 l/m 13,4 km/h (3 Bft) O-NO 70 0 min 0,000 mm 0,6 UV-I 144 W/m 6,2 C 2,8 C 17,7 km/h (3 Bft) 97,73 %
14.10.2016 10:54 7,4 C 92 % 1012,0 hPa 0,0 l/m 15,6 km/h (3 Bft) NO 50 0 min 0,000 mm 0,6 UV-I 139 W/m 6,2 C 1,7 C 19,3 km/h (3 Bft) 100,00 %
14.10.2016 10:56 7,5 C 92 % 1012,1 hPa 0,0 l/m 17,1 km/h (3 Bft) O 92 0 min 0,000 mm 0,6 UV-I 153 W/m 6,3 C 1,2 C 27,4 km/h (4 Bft) 100,00 %
14.10.2016 10:58 7,5 C 92 % 1012,3 hPa 0,0 l/m 21,4 km/h (4 Bft) O-NO 67 0 min 0,000 mm 0,6 UV-I 150 W/m 6,3 C -0,4 C 30,6 km/h (5 Bft) 100,00 %
14.10.2016 11:00 7,5 C 92 % 1012,4 hPa 0,0 l/m 16,1 km/h (3 Bft) O-NO 61 0 min 0,000 mm 0,6 UV-I 144 W/m 6,3 C 1,6 C 24,1 km/h (4 Bft) 100,00 %
14.10.2016 11:02 7,5 C 91 % 1012,4 hPa 0,0 l/m 16,4 km/h (3 Bft) O-NO 64 0 min 0,051 mm 0,6 UV-I 145 W/m 6,1 C 1,5 C 22,5 km/h (4 Bft) 100,00 %
14.10.2016 11:04 7,6 C 91 % 1012,4 hPa 0,0 l/m 16,5 km/h (3 Bft) O 84 0 min 0,000 mm 0,6 UV-I 152 W/m 6,2 C 1,6 C 24,1 km/h (4 Bft) 98,21 %
14.10.2016 11:06 7,6 C 92 % 1012,4 hPa 0,0 l/m 11,3 km/h (2 Bft) O-NO 72 0 min 0,000 mm 0,8 UV-I 191 W/m 6,4 C 4,1 C 14,5 km/h (3 Bft) 100,00 %
14.10.2016 11:08 7,7 C 92 % 1012,4 hPa 0,0 l/m 17,5 km/h (3 Bft) O-NO 61 0 min 0,000 mm 0,8 UV-I 187 W/m 6,5 C 1,3 C 22,5 km/h (4 Bft) 100,00 %
14.10.2016 11:10 7,7 C 91 % 1012,4 hPa 0,0 l/m 18,8 km/h (3 Bft) O-NO 78 0 min 0,000 mm 0,8 UV-I 181 W/m 6,3 C 0,8 C 25,7 km/h (4 Bft) 100,00 %
14.10.2016 11:12 7,7 C 91 % 1012,4 hPa 0,0 l/m 17,8 km/h (3 Bft) O-NO 67 0 min 0,000 mm 0,9 UV-I 206 W/m 6,3 C 1,1 C 24,1 km/h (4 Bft) 100,00 %
14.10.2016 11:14 7,8 C 91 % 1012,3 hPa 0,0 l/m 19,5 km/h (3 Bft) O-NO 69 0 min 0,000 mm 0,9 UV-I 217 W/m 6,4 C 0,6 C 27,4 km/h (4 Bft) 100,00 %
14.10.2016 11:16 7,8 C 91 % 1012,3 hPa 0,0 l/m 19,6 km/h (3 Bft) O-NO 67 0 min 0,000 mm 1,0 UV-I 231 W/m 6,4 C 0,6 C 29,0 km/h (5 Bft) 100,00 %
14.10.2016 11:18 7,8 C 91 % 1012,3 hPa 0,0 l/m 21,2 km/h (4 Bft) NO 45 0 min 0,000 mm 1,1 UV-I 255 W/m 6,4 C 0,0 C 27,4 km/h (4 Bft) 100,00 %
14.10.2016 11:20 7,9 C 91 % 1012,2 hPa 0,0 l/m 21,1 km/h (4 Bft) O-NO 67 0 min 0,000 mm 1,1 UV-I 258 W/m 6,5 C 0,2 C 27,4 km/h (4 Bft) 97,37 %
14.10.2016 11:22 7,9 C 91 % 1012,2 hPa 0,0 l/m 22,5 km/h (4 Bft) NO 48 0 min 0,000 mm 1,2 UV-I 275 W/m 6,5 C -0,3 C 32,2 km/h (5 Bft) 98,00 %
14.10.2016 11:24 8,0 C 91 % 1012,2 hPa 0,0 l/m 20,2 km/h (4 Bft) O-NO 59 0 min 0,000 mm 1,2 UV-I 272 W/m 6,6 C 0,6 C 29,0 km/h (5 Bft) 98,11 %
14.10.2016 11:26 8,1 C 91 % 1012,1 hPa 0,0 l/m 19,2 km/h (3 Bft) O-NO 60 0 min 0,000 mm 1,2 UV-I 276 W/m 6,7 C 1,1 C 27,4 km/h (4 Bft) 97,56 %
14.10.2016 11:28 8,1 C 91 % 1012,2 hPa 0,0 l/m 16,7 km/h (3 Bft) NO 46 2 min 0,000 mm 1,2 UV-I 301 W/m 6,7 C 2,1 C 25,7 km/h (4 Bft) 98,00 %
14.10.2016 11:30 8,2 C 90 % 1012,2 hPa 0,0 l/m 20,7 km/h (4 Bft) NO 47 0 min 0,000 mm 1,2 UV-I 262 W/m 6,7 C 0,7 C 25,7 km/h (4 Bft) 97,78 %
14.10.2016 11:32 8,2 C 90 % 1012,2 hPa 0,0 l/m 20,6 km/h (4 Bft) NO 47 2 min 0,000 mm 1,3 UV-I 294 W/m 6,7 C 0,8 C 29,0 km/h (5 Bft) 97,56 %
14.10.2016 11:34 8,2 C 90 % 1012,2 hPa 0,0 l/m 16,0 km/h (3 Bft) O-NO 65 2 min 0,000 mm 1,4 UV-I 359 W/m 6,7 C 2,5 C 20,9 km/h (4 Bft) 96,43 %
14.10.2016 11:36 8,3 C 90 % 1012,1 hPa 0,0 l/m 18,0 km/h (3 Bft) O 86 2 min 0,000 mm 1,5 UV-I 350 W/m 6,8 C 1,8 C 29,0 km/h (5 Bft) 97,87 %
14.10.2016 11:38 8,4 C 90 % 1012,1 hPa 0,0 l/m 20,4 km/h (4 Bft) O-NO 76 2 min 0,000 mm 1,5 UV-I 353 W/m 6,9 C 1,1 C 32,2 km/h (5 Bft) 97,37 %
14.10.2016 11:40 8,4 C 89 % 1012,1 hPa 0,0 l/m 21,1 km/h (4 Bft) O-NO 57 2 min 0,000 mm 1,5 UV-I 377 W/m 6,7 C 0,8 C 29,0 km/h (5 Bft) 98,11 %
14.10.2016 11:42 8,6 C 89 % 1012,0 hPa 0,0 l/m 21,3 km/h (4 Bft) O 79 2 min 0,000 mm 1,6 UV-I 430 W/m 6,9 C 1,0 C 27,4 km/h (4 Bft) 95,74 %
14.10.2016 11:44 8,7 C 90 % 1012,1 hPa 0,0 l/m 15,2 km/h (3 Bft) O 82 2 min 0,000 mm 1,6 UV-I 440 W/m 7,2 C 3,5 C 24,1 km/h (4 Bft) 96,00 %
14.10.2016 11:46 8,8 C 90 % 1012,1 hPa 0,0 l/m 16,3 km/h (3 Bft) O-NO 78 2 min 0,000 mm 1,6 UV-I 384 W/m 7,3 C 3,1 C 24,1 km/h (4 Bft) 97,56 %
14.10.2016 11:48 8,8 C 89 % 1012,1 hPa 0,0 l/m 18,9 km/h (3 Bft) O-NO 63 2 min 0,000 mm 1,6 UV-I 401 W/m 7,1 C 2,1 C 24,1 km/h (4 Bft) 96,23 %
14.10.2016 11:50 8,9 C 89 % 1012,0 hPa 0,0 l/m 18,7 km/h (3 Bft) O 99 2 min 0,000 mm 1,7 UV-I 327 W/m 7,2 C 2,3 C 25,7 km/h (4 Bft) 97,56 %
14.10.2016 11:52 9,0 C 89 % 1011,9 hPa 0,0 l/m 16,9 km/h (3 Bft) NO 54 2 min 0,000 mm 1,6 UV-I 331 W/m 7,3 C 3,1 C 24,1 km/h (4 Bft) 100,00 %
14.10.2016 11:54 9,2 C 89 % 1011,9 hPa 0,0 l/m 17,5 km/h (3 Bft) O-NO 58 2 min 0,000 mm 1,7 UV-I 391 W/m 7,5 C 3,1 C 27,4 km/h (4 Bft) 94,74 %
14.10.2016 11:56 9,2 C 87 % 1011,8 hPa 0,0 l/m 21,3 km/h (4 Bft) NO 55 2 min 0,000 mm 1,7 UV-I 385 W/m 7,2 C 1,8 C 30,6 km/h (5 Bft) 100,00 %
14.10.2016 11:58 9,2 C 87 % 1011,8 hPa 0,0 l/m 21,8 km/h (4 Bft) NO 40 2 min 0,000 mm 1,9 UV-I 501 W/m 7,2 C 1,7 C 33,8 km/h (5 Bft) 97,87 %
14.10.2016 12:00 9,2 C 87 % 1011,8 hPa 0,0 l/m 20,5 km/h (4 Bft) O-NO 68 2 min 0,152 mm 1,8 UV-I 496 W/m 7,2 C 2,1 C 29,0 km/h (5 Bft) 97,87 %
14.10.2016 12:02 9,2 C 87 % 1011,8 hPa 0,0 l/m 21,6 km/h (4 Bft) O-NO 61 2 min 0,000 mm 1,6 UV-I 372 W/m 7,2 C 1,7 C 30,6 km/h (5 Bft) 100,00 %
14.10.2016 12:04 9,2 C 87 % 1011,7 hPa 0,0 l/m 22,3 km/h (4 Bft) O-NO 77 2 min 0,000 mm 1,8 UV-I 366 W/m 7,2 C 1,5 C 27,4 km/h (4 Bft) 100,00 %
14.10.2016 12:06 9,2 C 87 % 1011,7 hPa 0,0 l/m 22,2 km/h (4 Bft) O-NO 69 2 min 0,000 mm 1,9 UV-I 532 W/m 7,2 C 1,5 C 29,0 km/h (5 Bft) 100,00 %
14.10.2016 12:08 9,3 C 88 % 1011,7 hPa 0,0 l/m 19,4 km/h (3 Bft) O-NO 73 2 min 0,000 mm 1,9 UV-I 483 W/m 7,4 C 2,6 C 24,1 km/h (4 Bft) 100,00 %
14.10.2016 12:10 9,4 C 88 % 1011,6 hPa 0,0 l/m 17,6 km/h (3 Bft) NO 52 2 min 0,000 mm 2,0 UV-I 529 W/m 7,5 C 3,4 C 24,1 km/h (4 Bft) 100,00 %
14.10.2016 12:12 9,7 C 88 % 1011,6 hPa 0,0 l/m 16,2 km/h (3 Bft) O-NO 71 2 min 0,000 mm 1,8 UV-I 463 W/m 7,8 C 4,3 C 22,5 km/h (4 Bft) 100,00 %
14.10.2016 12:14 9,7 C 87 % 1011,6 hPa 0,0 l/m 20,4 km/h (4 Bft) O-NO 73 2 min 0,000 mm 1,9 UV-I 468 W/m 7,6 C 2,8 C 29,0 km/h (5 Bft) 100,00 %
14.10.2016 12:16 9,8 C 86 % 1011,7 hPa 0,0 l/m 19,7 km/h (3 Bft) NO 53 2 min 0,000 mm 2,0 UV-I 522 W/m 7,6 C 3,1 C 29,0 km/h (5 Bft) 100,00 %
14.10.2016 12:18 9,9 C 86 % 1011,7 hPa 0,0 l/m 20,1 km/h (4 Bft) NO 49 2 min 0,000 mm 2,0 UV-I 538 W/m 7,7 C 3,1 C 27,4 km/h (4 Bft) 97,73 %
14.10.2016 12:20 10,1 C 87 % 1011,7 hPa 0,0 l/m 16,8 km/h (3 Bft) O-NO 63 2 min 0,000 mm 2,0 UV-I 560 W/m 8,0 C 4,5 C 25,7 km/h (4 Bft) 100,00 %
14.10.2016 12:22 10,2 C 85 % 1011,6 hPa 0,0 l/m 23,3 km/h (4 Bft) O-NO 70 2 min 0,000 mm 2,0 UV-I 547 W/m 7,8 C 2,6 C 30,6 km/h (5 Bft) 98,00 %
14.10.2016 12:24 10,3 C 85 % 1011,5 hPa 0,0 l/m 20,8 km/h (4 Bft) O 84 2 min 0,000 mm 2,1 UV-I 551 W/m 7,9 C 3,4 C 30,6 km/h (5 Bft) 100,00 %
14.10.2016 12:26 10,4 C 85 % 1011,5 hPa 0,0 l/m 21,2 km/h (4 Bft) O-NO 61 2 min 0,000 mm 2,1 UV-I 565 W/m 8,0 C 3,4 C 30,6 km/h (5 Bft) 100,00 %
14.10.2016 12:28 10,5 C 84 % 1011,6 hPa 0,0 l/m 21,5 km/h (4 Bft) NO 51 2 min 0,000 mm 2,1 UV-I 582 W/m 7,9 C 3,5 C 30,6 km/h (5 Bft) 100,00 %
14.10.2016 12:30 10,7 C 85 % 1011,5 hPa 0,0 l/m 20,5 km/h (4 Bft) NO 55 2 min 0,000 mm 2,1 UV-I 581 W/m 8,3 C 4,0 C 27,4 km/h (4 Bft) 100,00 %
14.10.2016 12:32 10,8 C 85 % 1011,5 hPa 0,0 l/m 15,3 km/h (3 Bft) NO 53 2 min 0,000 mm 2,2 UV-I 593 W/m 8,4 C 6,0 C 24,1 km/h (4 Bft) 100,00 %
14.10.2016 12:34 10,9 C 84 % 1011,5 hPa 0,0 l/m 18,9 km/h (3 Bft) O 81 2 min 0,000 mm 2,1 UV-I 569 W/m 8,3 C 4,8 C 27,4 km/h (4 Bft) 100,00 %
14.10.2016 12:36 11,0 C 83 % 1011,5 hPa 0,0 l/m 18,1 km/h (3 Bft) O-NO 77 2 min 0,000 mm 2,1 UV-I 555 W/m 8,2 C 5,2 C 24,1 km/h (4 Bft) 100,00 %
14.10.2016 12:38 11,1 C 84 % 1011,6 hPa 0,0 l/m 14,8 km/h (3 Bft) O-NO 74 2 min 0,000 mm 2,1 UV-I 560 W/m 8,5 C 6,5 C 22,5 km/h (4 Bft) 100,00 %
14.10.2016 12:40 11,2 C 85 % 1011,6 hPa 0,0 l/m 18,4 km/h (3 Bft) O-NO 61 2 min 0,000 mm 2,1 UV-I 584 W/m 8,8 C 5,4 C 29,0 km/h (5 Bft) 100,00 %
14.10.2016 12:42 11,3 C 83 % 1011,6 hPa 0,0 l/m 18,3 km/h (3 Bft) O 82 2 min 0,000 mm 2,1 UV-I 546 W/m 8,5 C 5,5 C 25,7 km/h (4 Bft) 100,00 %
14.10.2016 12:44 11,3 C 82 % 1011,6 hPa 0,0 l/m 15,1 km/h (3 Bft) NO 45 2 min 0,000 mm 2,0 UV-I 539 W/m 8,3 C 6,7 C 20,9 km/h (4 Bft) 100,00 %
14.10.2016 12:46 11,3 C 83 % 1011,6 hPa 0,0 l/m 15,3 km/h (3 Bft) O-NO 66 2 min 0,000 mm 2,0 UV-I 520 W/m 8,5 C 6,6 C 20,9 km/h (4 Bft) 98,11 %
14.10.2016 12:48 11,3 C 82 % 1011,5 hPa 0,0 l/m 17,4 km/h (3 Bft) O-NO 71 2 min 0,000 mm 1,8 UV-I 520 W/m 8,3 C 5,8 C 25,7 km/h (4 Bft) 100,00 %
14.10.2016 12:50 11,3 C 81 % 1011,6 hPa 0,0 l/m 20,5 km/h (4 Bft) O-NO 59 2 min 0,000 mm 1,8 UV-I 522 W/m 8,2 C 4,8 C 32,2 km/h (5 Bft) 100,00 %
14.10.2016 12:52 11,2 C 82 % 1011,6 hPa 0,0 l/m 17,5 km/h (3 Bft) O-NO 67 2 min 0,000 mm 2,0 UV-I 516 W/m 8,2 C 5,7 C 27,4 km/h (4 Bft) 100,00 %
14.10.2016 12:54 11,3 C 82 % 1011,6 hPa 0,0 l/m 19,7 km/h (3 Bft) O-NO 58 2 min 0,000 mm 2,0 UV-I 503 W/m 8,3 C 5,1 C 27,4 km/h (4 Bft) 100,00 %
14.10.2016 12:56 11,3 C 82 % 1011,6 hPa 0,0 l/m 21,3 km/h (4 Bft) NO 41 2 min 0,000 mm 2,0 UV-I 504 W/m 8,3 C 4,6 C 29,0 km/h (5 Bft) 100,00 %
14.10.2016 12:58 11,3 C 81 % 1011,5 hPa 0,0 l/m 20,1 km/h (4 Bft) O 85 2 min 0,000 mm 1,9 UV-I 494 W/m 8,2 C 4,9 C 30,6 km/h (5 Bft) 100,00 %
14.10.2016 13:00 11,4 C 82 % 1011,5 hPa 0,0 l/m 20,4 km/h (4 Bft) O 80 2 min 0,279 mm 1,9 UV-I 490 W/m 8,4 C 5,0 C 29,0 km/h (5 Bft) 100,00 %
14.10.2016 13:03 11,4 C 81 % 1011,5 hPa 0,0 l/m 19,9 km/h (4 Bft) O-NO 63 3 min 0,000 mm 2,0 UV-I 510 W/m 8,3 C 5,1 C 27,4 km/h (4 Bft) 95,38 %
14.10.2016 13:04 11,4 C 81 % 1011,5 hPa 0,0 l/m 17,8 km/h (3 Bft) O-NO 72 1 min 0,000 mm 2,0 UV-I 514 W/m 8,3 C 5,8 C 24,1 km/h (4 Bft) 96,55 %
14.10.2016 13:06 11,4 C 83 % 1011,6 hPa 0,0 l/m 15,3 km/h (3 Bft) O-NO 71 2 min 0,000 mm 2,0 UV-I 521 W/m 8,6 C 6,7 C 25,7 km/h (4 Bft) 97,73 %
14.10.2016 13:08 11,6 C 82 % 1011,6 hPa 0,0 l/m 18,0 km/h (3 Bft) O-NO 65 2 min 0,000 mm 2,0 UV-I 512 W/m 8,6 C 6,0 C 29,0 km/h (5 Bft) 98,11 %
14.10.2016 13:10 11,6 C 80 % 1011,5 hPa 0,0 l/m 21,4 km/h (4 Bft) O-NO 67 2 min 0,000 mm 2,0 UV-I 519 W/m 8,3 C 4,9 C 27,4 km/h (4 Bft) 97,14 %
14.10.2016 13:12 11,7 C 81 % 1011,4 hPa 0,0 l/m 22,1 km/h (4 Bft) N-NO 32 2 min 0,000 mm 1,9 UV-I 493 W/m 8,5 C 4,9 C 30,6 km/h (5 Bft) 98,21 %
14.10.2016 13:14 11,7 C 81 % 1011,3 hPa 0,0 l/m 19,5 km/h (3 Bft) O-NO 68 2 min 0,000 mm 1,9 UV-I 518 W/m 8,5 C 5,6 C 30,6 km/h (5 Bft) 95,45 %
14.10.2016 13:16 11,7 C 80 % 1011,3 hPa 0,0 l/m 21,9 km/h (4 Bft) NO 48 2 min 0,000 mm 1,9 UV-I 508 W/m 8,4 C 4,9 C 30,6 km/h (5 Bft) 98,11 %
14.10.2016 13:18 11,8 C 82 % 1011,3 hPa 0,0 l/m 20,9 km/h (4 Bft) NO 44 2 min 0,000 mm 1,9 UV-I 510 W/m 8,8 C 5,3 C 30,6 km/h (5 Bft) 96,23 %
14.10.2016 13:20 11,8 C 81 % 1011,2 hPa 0,0 l/m 18,7 km/h (3 Bft) O-NO 58 2 min 0,000 mm 2,0 UV-I 531 W/m 8,6 C 6,0 C 29,0 km/h (5 Bft) 97,37 %
14.10.2016 13:22 11,8 C 80 % 1011,1 hPa 0,0 l/m 20,7 km/h (4 Bft) O-NO 57 2 min 0,000 mm 1,9 UV-I 507 W/m 8,5 C 5,4 C 27,4 km/h (4 Bft) 94,00 %
14.10.2016 13:24 11,8 C 80 % 1011,1 hPa 0,0 l/m 22,8 km/h (4 Bft) O-NO 71 2 min 0,000 mm 1,9 UV-I 507 W/m 8,5 C 4,8 C 32,2 km/h (5 Bft) 100,00 %
14.10.2016 13:26 11,8 C 80 % 1011,1 hPa 0,0 l/m 21,9 km/h (4 Bft) O-NO 61 2 min 0,000 mm 1,9 UV-I 526 W/m 8,5 C 5,1 C 30,6 km/h (5 Bft) 98,00 %
14.10.2016 13:28 11,8 C 80 % 1011,0 hPa 0,0 l/m 19,9 km/h (4 Bft) O 87 2 min 0,000 mm 1,9 UV-I 488 W/m 8,5 C 5,6 C 27,4 km/h (4 Bft) 100,00 %
14.10.2016 13:30 11,8 C 81 % 1011,0 hPa 0,0 l/m 19,5 km/h (3 Bft) NO 50 2 min 0,000 mm 1,9 UV-I 514 W/m 8,6 C 5,8 C 29,0 km/h (5 Bft) 100,00 %
14.10.2016 13:32 11,8 C 81 % 1010,9 hPa 0,0 l/m 19,0 km/h (3 Bft) NO 48 2 min 0,000 mm 1,9 UV-I 493 W/m 8,6 C 5,9 C 25,7 km/h (4 Bft) 97,87 %
14.10.2016 13:34 11,9 C 81 % 1010,9 hPa 0,0 l/m 15,8 km/h (3 Bft) O-NO 74 2 min 0,000 mm 1,8 UV-I 470 W/m 8,7 C 7,1 C 24,1 km/h (4 Bft) 100,00 %
14.10.2016 13:36 11,9 C 81 % 1010,8 hPa 0,0 l/m 20,7 km/h (4 Bft) O-NO 57 2 min 0,000 mm 1,8 UV-I 478 W/m 8,7 C 5,5 C 27,4 km/h (4 Bft) 100,00 %
14.10.2016 13:38 11,9 C 80 % 1010,8 hPa 0,0 l/m 22,1 km/h (4 Bft) O-NO 65 2 min 0,000 mm 1,8 UV-I 482 W/m 8,6 C 5,1 C 29,0 km/h (5 Bft) 100,00 %
14.10.2016 13:40 11,8 C 80 % 1010,8 hPa 0,0 l/m 21,6 km/h (4 Bft) O-NO 74 2 min 0,000 mm 1,8 UV-I 487 W/m 8,5 C 5,2 C 35,4 km/h (5 Bft) 98,00 %
14.10.2016 13:42 11,8 C 80 % 1010,9 hPa 0,0 l/m 23,7 km/h (4 Bft) NO 56 2 min 0,000 mm 1,8 UV-I 504 W/m 8,5 C 4,6 C 32,2 km/h (5 Bft) 100,00 %
14.10.2016 13:44 12,1 C 80 % 1010,9 hPa 0,0 l/m 21,7 km/h (4 Bft) O-NO 69 2 min 0,000 mm 1,8 UV-I 504 W/m 8,8 C 5,5 C 33,8 km/h (5 Bft) 100,00 %
14.10.2016 13:46 12,4 C 81 % 1010,9 hPa 0,0 l/m 18,9 km/h (3 Bft) O-NO 61 2 min 0,000 mm 1,8 UV-I 512 W/m 9,2 C 6,7 C 27,4 km/h (4 Bft) 100,00 %
14.10.2016 13:48 13,1 C 80 % 1010,8 hPa 0,0 l/m 14,9 km/h (3 Bft) NO 55 2 min 0,000 mm 1,8 UV-I 513 W/m 9,7 C 8,9 C 22,5 km/h (4 Bft) 100,00 %
14.10.2016 13:50 13,3 C 77 % 1010,8 hPa 0,0 l/m 19,2 km/h (3 Bft) NO 46 2 min 0,000 mm 1,8 UV-I 492 W/m 9,4 C 7,8 C 27,4 km/h (4 Bft) 100,00 %
14.10.2016 13:52 13,3 C 78 % 1010,7 hPa 0,0 l/m 17,6 km/h (3 Bft) O-NO 61 2 min 0,000 mm 1,8 UV-I 507 W/m 9,5 C 8,3 C 24,1 km/h (4 Bft) 100,00 %
14.10.2016 13:54 13,1 C 78 % 1010,6 hPa 0,0 l/m 16,4 km/h (3 Bft) O-NO 71 2 min 0,000 mm 1,8 UV-I 519 W/m 9,4 C 8,4 C 20,9 km/h (4 Bft) 100,00 %
14.10.2016 13:56 12,8 C 78 % 1010,6 hPa 0,0 l/m 19,7 km/h (3 Bft) O-NO 71 2 min 0,000 mm 1,8 UV-I 527 W/m 9,1 C 7,0 C 30,6 km/h (5 Bft) 100,00 %
14.10.2016 13:58 12,4 C 79 % 1010,6 hPa 0,0 l/m 24,9 km/h (4 Bft) O-NO 71 2 min 0,000 mm 1,8 UV-I 519 W/m 8,9 C 5,1 C 35,4 km/h (5 Bft) 100,00 %
14.10.2016 14:00 12,2 C 78 % 1010,6 hPa 0,0 l/m 21,0 km/h (4 Bft) O 79 2 min 0,280 mm 1,7 UV-I 487 W/m 8,5 C 5,8 C 29,0 km/h (5 Bft) 100,00 %
14.10.2016 14:02 12,1 C 80 % 1010,6 hPa 0,0 l/m 22,1 km/h (4 Bft) O-NO 73 2 min 0,000 mm 1,7 UV-I 488 W/m 8,8 C 5,4 C 30,6 km/h (5 Bft) 100,00 %
14.10.2016 14:04 12,1 C 80 % 1010,5 hPa 0,0 l/m 15,3 km/h (3 Bft) NO 38 2 min 0,000 mm 1,6 UV-I 461 W/m 8,8 C 7,6 C 25,7 km/h (4 Bft) 100,00 %
14.10.2016 14:06 12,1 C 81 % 1010,5 hPa 0,0 l/m 20,1 km/h (4 Bft) O-NO 68 2 min 0,000 mm 1,6 UV-I 448 W/m 8,9 C 6,0 C 30,6 km/h (5 Bft) 100,00 %
14.10.2016 14:08 12,2 C 81 % 1010,4 hPa 0,0 l/m 18,9 km/h (3 Bft) O-NO 57 2 min 0,000 mm 1,6 UV-I 433 W/m 9,0 C 6,5 C 24,1 km/h (4 Bft) 100,00 %
14.10.2016 14:10 12,2 C 80 % 1010,3 hPa 0,0 l/m 22,1 km/h (4 Bft) O 86 2 min 0,000 mm 1,6 UV-I 458 W/m 8,9 C 5,5 C 29,0 km/h (5 Bft) 100,00 %
14.10.2016 14:12 12,1 C 80 % 1010,3 hPa 0,0 l/m 20,6 km/h (4 Bft) O 82 2 min 0,000 mm 1,6 UV-I 463 W/m 8,8 C 5,8 C 32,2 km/h (5 Bft) 98,25 %
14.10.2016 14:14 12,0 C 80 % 1010,3 hPa 0,0 l/m 23,7 km/h (4 Bft) O-NO 58 2 min 0,000 mm 1,6 UV-I 462 W/m 8,7 C 4,9 C 32,2 km/h (5 Bft) 100,00 %
14.10.2016 14:16 12,0 C 80 % 1010,2 hPa 0,0 l/m 25,1 km/h (4 Bft) NO 46 2 min 0,000 mm 1,5 UV-I 453 W/m 8,7 C 4,5 C 33,8 km/h (5 Bft) 100,00 %
14.10.2016 14:18 12,1 C 81 % 1010,1 hPa 0,0 l/m 20,7 km/h (4 Bft) O-NO 76 2 min 0,000 mm 1,5 UV-I 477 W/m 8,9 C 5,8 C 33,8 km/h (5 Bft) 100,00 %
14.10.2016 14:20 12,2 C 80 % 1010,1 hPa 0,0 l/m 23,1 km/h (4 Bft) O 81 2 min 0,000 mm 1,5 UV-I 469 W/m 8,9 C 5,3 C 32,2 km/h (5 Bft) 100,00 %
14.10.2016 14:22 12,2 C 81 % 1010,1 hPa 0,0 l/m 20,6 km/h (4 Bft) NO 53 2 min 0,000 mm 1,5 UV-I 443 W/m 9,0 C 6,0 C 27,4 km/h (4 Bft) 100,00 %
14.10.2016 14:24 12,3 C 80 % 1010,0 hPa 0,0 l/m 19,4 km/h (3 Bft) O-NO 61 2 min 0,000 mm 1,5 UV-I 454 W/m 8,9 C 6,4 C 25,7 km/h (4 Bft) 100,00 %
14.10.2016 14:26 12,3 C 81 % 1010,1 hPa 0,0 l/m 20,7 km/h (4 Bft) NO 50 2 min 0,000 mm 1,5 UV-I 446 W/m 9,1 C 6,1 C 25,7 km/h (4 Bft) 100,00 %
14.10.2016 14:28 12,4 C 80 % 1010,1 hPa 0,0 l/m 21,3 km/h (4 Bft) O 88 2 min 0,000 mm 1,4 UV-I 451 W/m 9,0 C 6,0 C 30,6 km/h (5 Bft) 97,73 %
14.10.2016 14:30 12,4 C 79 % 1010,1 hPa 0,0 l/m 23,6 km/h (4 Bft) O-NO 62 2 min 0,000 mm 1,4 UV-I 446 W/m 8,9 C 5,4 C 35,4 km/h (5 Bft) 100,00 %
14.10.2016 14:32 12,3 C 79 % 1010,1 hPa 0,0 l/m 23,6 km/h (4 Bft) NO 51 2 min 0,000 mm 1,2 UV-I 402 W/m 8,8 C 5,3 C 32,2 km/h (5 Bft) 100,00 %
14.10.2016 14:34 12,2 C 79 % 1010,1 hPa 0,0 l/m 25,3 km/h (4 Bft) O 82 0 min 0,000 mm 1,1 UV-I 219 W/m 8,7 C 4,7 C 32,2 km/h (5 Bft) 100,00 %
14.10.2016 14:36 12,1 C 80 % 1010,0 hPa 0,0 l/m 23,6 km/h (4 Bft) NO 50 0 min 0,000 mm 1,0 UV-I 167 W/m 8,8 C 5,0 C 32,2 km/h (5 Bft) 100,00 %
14.10.2016 14:38 11,9 C 80 % 1010,1 hPa 0,0 l/m 21,5 km/h (4 Bft) O-NO 65 2 min 0,000 mm 1,1 UV-I 266 W/m 8,6 C 5,3 C 27,4 km/h (4 Bft) 98,21 %
14.10.2016 14:40 11,9 C 81 % 1010,1 hPa 0,0 l/m 18,9 km/h (3 Bft) O-NO 58 0 min 0,000 mm 1,0 UV-I 217 W/m 8,7 C 6,1 C 25,7 km/h (4 Bft) 94,74 %
14.10.2016 14:42 11,9 C 81 % 1010,1 hPa 0,0 l/m 20,6 km/h (4 Bft) NO 53 0 min 0,000 mm 0,9 UV-I 133 W/m 8,7 C 5,6 C 25,7 km/h (4 Bft) 97,87 %
14.10.2016 14:44 11,9 C 81 % 1010,1 hPa 0,0 l/m 20,8 km/h (4 Bft) O-NO 67 0 min 0,000 mm 0,8 UV-I 116 W/m 8,7 C 5,5 C 29,0 km/h (5 Bft) 97,22 %
14.10.2016 14:46 11,8 C 81 % 1010,1 hPa 0,0 l/m 18,4 km/h (3 Bft) O-NO 66 0 min 0,000 mm 0,8 UV-I 111 W/m 8,6 C 6,1 C 25,7 km/h (4 Bft) 96,23 %
14.10.2016 14:48 11,8 C 82 % 1010,1 hPa 0,0 l/m 18,3 km/h (3 Bft) O 82 0 min 0,000 mm 0,8 UV-I 112 W/m 8,8 C 6,1 C 22,5 km/h (4 Bft) 98,21 %
14.10.2016 14:50 11,8 C 82 % 1010,1 hPa 0,0 l/m 19,5 km/h (3 Bft) O-NO 63 0 min 0,000 mm 0,8 UV-I 121 W/m 8,8 C 5,8 C 25,7 km/h (4 Bft) 96,00 %
14.10.2016 14:53 11,8 C 82 % 1010,1 hPa 0,0 l/m 13,5 km/h (3 Bft) O 91 0 min 0,000 mm 0,7 UV-I 123 W/m 8,8 C 7,9 C 22,5 km/h (4 Bft) 96,88 %
14.10.2016 14:54 11,8 C 82 % 1010,1 hPa 0,0 l/m 12,5 km/h (3 Bft) O-SO 103 0 min 0,000 mm 0,7 UV-I 120 W/m 8,8 C 8,4 C 19,3 km/h (3 Bft) 100,00 %
14.10.2016 14:56 11,8 C 82 % 1010,1 hPa 0,0 l/m 16,4 km/h (3 Bft) NO 56 0 min 0,000 mm 0,7 UV-I 123 W/m 8,8 C 6,8 C 22,5 km/h (4 Bft) 97,87 %
14.10.2016 14:58 11,8 C 82 % 1010,1 hPa 0,0 l/m 14,3 km/h (3 Bft) O-NO 66 0 min 0,000 mm 0,7 UV-I 132 W/m 8,8 C 7,6 C 20,9 km/h (4 Bft) 95,74 %
14.10.2016 15:00 11,8 C 82 % 1010,0 hPa 0,0 l/m 17,2 km/h (3 Bft) O-NO 71 0 min 0,203 mm 0,7 UV-I 137 W/m 8,8 C 6,5 C 22,5 km/h (4 Bft) 97,73 %
14.10.2016 15:02 11,8 C 82 % 1010,0 hPa 0,0 l/m 14,1 km/h (3 Bft) O-NO 69 0 min 0,000 mm 0,7 UV-I 145 W/m 8,8 C 7,7 C 19,3 km/h (3 Bft) 96,23 %
14.10.2016 15:04 11,9 C 83 % 1010,1 hPa 0,0 l/m 11,0 km/h (2 Bft) O-NO 78 0 min 0,000 mm 0,7 UV-I 154 W/m 9,1 C 9,2 C 16,1 km/h (3 Bft) 97,56 %
14.10.2016 15:06 11,9 C 83 % 1010,1 hPa 0,0 l/m 13,5 km/h (3 Bft) O-NO 78 0 min 0,000 mm 0,7 UV-I 161 W/m 9,1 C 8,0 C 19,3 km/h (3 Bft) 98,00 %
14.10.2016 15:08 11,9 C 83 % 1010,2 hPa 0,0 l/m 14,6 km/h (3 Bft) O-SO 102 0 min 0,000 mm 0,7 UV-I 167 W/m 9,1 C 7,6 C 19,3 km/h (3 Bft) 100,00 %
14.10.2016 15:10 12,0 C 82 % 1010,3 hPa 0,0 l/m 13,3 km/h (3 Bft) O-NO 69 0 min 0,000 mm 0,7 UV-I 173 W/m 9,0 C 8,2 C 19,3 km/h (3 Bft) 100,00 %
14.10.2016 15:12 12,0 C 82 % 1010,2 hPa 0,0 l/m 13,8 km/h (3 Bft) O 84 0 min 0,000 mm 0,7 UV-I 177 W/m 9,0 C 8,0 C 19,3 km/h (3 Bft) 97,56 %
14.10.2016 15:14 12,1 C 82 % 1010,2 hPa 0,0 l/m 16,0 km/h (3 Bft) O-NO 74 0 min 0,000 mm 0,7 UV-I 179 W/m 9,1 C 7,3 C 20,9 km/h (4 Bft) 97,73 %
14.10.2016 15:16 12,1 C 82 % 1010,1 hPa 0,0 l/m 12,0 km/h (2 Bft) O 84 0 min 0,000 mm 0,7 UV-I 182 W/m 9,1 C 8,9 C 17,7 km/h (3 Bft) 100,00 %
14.10.2016 15:18 12,2 C 83 % 1010,1 hPa 0,0 l/m 11,5 km/h (2 Bft) O-NO 66 0 min 0,000 mm 0,7 UV-I 184 W/m 9,4 C 9,3 C 16,1 km/h (3 Bft) 100,00 %
14.10.2016 15:20 12,2 C 82 % 1010,0 hPa 0,0 l/m 14,2 km/h (3 Bft) NO 48 0 min 0,000 mm 0,6 UV-I 179 W/m 9,2 C 8,1 C 19,3 km/h (3 Bft) 98,44 %
14.10.2016 15:22 12,2 C 82 % 1010,0 hPa 0,0 l/m 16,1 km/h (3 Bft) NO 51 0 min 0,000 mm 0,6 UV-I 182 W/m 9,2 C 7,4 C 20,9 km/h (4 Bft) 100,00 %
14.10.2016 15:24 12,2 C 82 % 1010,1 hPa 0,0 l/m 12,4 km/h (3 Bft) O-NO 68 0 min 0,000 mm 0,6 UV-I 211 W/m 9,2 C 8,9 C 17,7 km/h (3 Bft) 100,00 %
14.10.2016 15:26 12,3 C 82 % 1010,0 hPa 0,0 l/m 15,2 km/h (3 Bft) O-NO 65 0 min 0,000 mm 0,6 UV-I 197 W/m 9,3 C 7,8 C 20,9 km/h (4 Bft) 100,00 %
14.10.2016 15:28 12,3 C 83 % 1010,0 hPa 0,0 l/m 15,0 km/h (3 Bft) NO 46 2 min 0,000 mm 0,6 UV-I 246 W/m 9,5 C 7,9 C 22,5 km/h (4 Bft) 95,45 %
14.10.2016 15:30 12,4 C 81 % 1009,9 hPa 0,0 l/m 19,6 km/h (3 Bft) NO 49 2 min 0,000 mm 0,7 UV-I 266 W/m 9,2 C 6,5 C 25,7 km/h (4 Bft) 96,43 %
14.10.2016 15:32 12,4 C 82 % 1009,8 hPa 0,0 l/m 17,6 km/h (3 Bft) O-NO 66 2 min 0,000 mm 0,7 UV-I 239 W/m 9,4 C 7,1 C 24,1 km/h (4 Bft) 100,00 %
14.10.2016 15:34 12,4 C 81 % 1009,8 hPa 0,0 l/m 18,1 km/h (3 Bft) O-NO 75 2 min 0,000 mm 0,6 UV-I 220 W/m 9,2 C 7,0 C 24,1 km/h (4 Bft) 100,00 %
14.10.2016 15:36 12,4 C 81 % 1009,8 hPa 0,0 l/m 17,4 km/h (3 Bft) O-NO 59 2 min 0,000 mm 0,6 UV-I 213 W/m 9,2 C 7,2 C 24,1 km/h (4 Bft) 100,00 %
14.10.2016 15:38 12,5 C 82 % 1010,0 hPa 0,0 l/m 15,1 km/h (3 Bft) O-NO 74 2 min 0,000 mm 0,6 UV-I 219 W/m 9,5 C 8,1 C 22,5 km/h (4 Bft) 100,00 %
14.10.2016 15:40 12,6 C 81 % 1010,1 hPa 0,0 l/m 14,8 km/h (3 Bft) O 90 2 min 0,000 mm 0,6 UV-I 211 W/m 9,4 C 8,4 C 25,7 km/h (4 Bft) 100,00 %
14.10.2016 15:42 12,6 C 81 % 1010,0 hPa 0,0 l/m 18,6 km/h (3 Bft) NO 49 0 min 0,000 mm 0,6 UV-I 195 W/m 9,4 C 7,1 C 22,5 km/h (4 Bft) 100,00 %
14.10.2016 15:44 12,6 C 82 % 1009,9 hPa 0,0 l/m 16,5 km/h (3 Bft) O-NO 75 0 min 0,000 mm 0,6 UV-I 176 W/m 9,6 C 7,7 C 24,1 km/h (4 Bft) 100,00 %
14.10.2016 15:46 12,6 C 81 % 1009,7 hPa 0,0 l/m 21,8 km/h (4 Bft) O-NO 61 0 min 0,000 mm 0,5 UV-I 165 W/m 9,4 C 6,1 C 29,0 km/h (5 Bft) 100,00 %
14.10.2016 15:48 12,6 C 81 % 1009,6 hPa 0,0 l/m 19,7 km/h (3 Bft) NO 56 0 min 0,000 mm 0,5 UV-I 158 W/m 9,4 C 6,7 C 27,4 km/h (4 Bft) 100,00 %
14.10.2016 15:50 12,5 C 82 % 1009,6 hPa 0,0 l/m 17,0 km/h (3 Bft) O 80 0 min 0,000 mm 0,5 UV-I 153 W/m 9,5 C 7,5 C 25,7 km/h (4 Bft) 100,00 %
14.10.2016 15:52 12,5 C 82 % 1009,7 hPa 0,0 l/m 17,4 km/h (3 Bft) NO 55 0 min 0,000 mm 0,5 UV-I 147 W/m 9,5 C 7,3 C 24,1 km/h (4 Bft) 100,00 %
14.10.2016 15:54 12,5 C 81 % 1009,8 hPa 0,0 l/m 19,8 km/h (3 Bft) O-NO 71 0 min 0,000 mm 0,4 UV-I 142 W/m 9,3 C 6,6 C 30,6 km/h (5 Bft) 100,00 %
14.10.2016 15:56 12,6 C 82 % 1009,8 hPa 0,0 l/m 13,7 km/h (3 Bft) O 84 0 min 0,000 mm 0,0 UV-I 140 W/m 9,6 C 8,8 C 22,5 km/h (4 Bft) 100,00 %
14.10.2016 15:58 12,5 C 82 % 1009,8 hPa 0,0 l/m 16,7 km/h (3 Bft) O-NO 67 0 min 0,000 mm 0,0 UV-I 138 W/m 9,5 C 7,6 C 24,1 km/h (4 Bft) 98,00 %
14.10.2016 16:00 12,5 C 82 % 1009,7 hPa 0,0 l/m 17,9 km/h (3 Bft) O-NO 65 0 min 0,000 mm 0,0 UV-I 136 W/m 9,5 C 7,2 C 24,1 km/h (4 Bft) 100,00 %
14.10.2016 16:02 12,5 C 82 % 1009,7 hPa 0,0 l/m 16,5 km/h (3 Bft) O-NO 70 0 min 0,127 mm 0,0 UV-I 134 W/m 9,5 C 7,6 C 22,5 km/h (4 Bft) 98,11 %
14.10.2016 16:04 12,6 C 82 % 1009,6 hPa 0,0 l/m 12,1 km/h (2 Bft) NO 54 0 min 0,000 mm 0,0 UV-I 132 W/m 9,6 C 9,5 C 19,3 km/h (3 Bft) 100,00 %
14.10.2016 16:06 12,6 C 82 % 1009,7 hPa 0,0 l/m 13,5 km/h (3 Bft) O-NO 70 0 min 0,000 mm 0,0 UV-I 129 W/m 9,6 C 8,9 C 19,3 km/h (3 Bft) 100,00 %
14.10.2016 16:08 12,6 C 82 % 1009,6 hPa 0,0 l/m 15,5 km/h (3 Bft) NO 47 0 min 0,000 mm 0,0 UV-I 127 W/m 9,6 C 8,1 C 20,9 km/h (4 Bft) 97,87 %
14.10.2016 16:10 12,6 C 82 % 1009,6 hPa 0,0 l/m 14,3 km/h (3 Bft) O-NO 65 0 min 0,000 mm 0,0 UV-I 125 W/m 9,6 C 8,6 C 19,3 km/h (3 Bft) 97,87 %
14.10.2016 16:12 12,6 C 82 % 1009,6 hPa 0,0 l/m 12,8 km/h (3 Bft) O-NO 69 0 min 0,000 mm 0,0 UV-I 123 W/m 9,6 C 9,2 C 16,1 km/h (3 Bft) 94,74 %
14.10.2016 16:14 12,6 C 83 % 1009,6 hPa 0,0 l/m 14,7 km/h (3 Bft) O-NO 61 0 min 0,000 mm 0,0 UV-I 120 W/m 9,8 C 8,4 C 19,3 km/h (3 Bft) 100,00 %
14.10.2016 16:16 12,6 C 82 % 1009,6 hPa 0,0 l/m 12,5 km/h (3 Bft) O-NO 78 0 min 0,000 mm 0,0 UV-I 116 W/m 9,6 C 9,3 C 19,3 km/h (3 Bft) 97,67 %
14.10.2016 16:18 12,7 C 82 % 1009,5 hPa 0,0 l/m 14,4 km/h (3 Bft) NO 51 0 min 0,000 mm 0,0 UV-I 113 W/m 9,7 C 8,6 C 20,9 km/h (4 Bft) 100,00 %
14.10.2016 16:20 12,7 C 82 % 1009,4 hPa 0,0 l/m 16,2 km/h (3 Bft) O-NO 63 0 min 0,000 mm 0,0 UV-I 111 W/m 9,7 C 8,0 C 19,3 km/h (3 Bft) 100,00 %
14.10.2016 16:22 12,7 C 82 % 1009,3 hPa 0,0 l/m 16,1 km/h (3 Bft) NO 42 0 min 0,000 mm 0,0 UV-I 109 W/m 9,7 C 8,0 C 22,5 km/h (4 Bft) 100,00 %
14.10.2016 16:24 12,7 C 82 % 1009,3 hPa 0,0 l/m 15,2 km/h (3 Bft) O-NO 61 0 min 0,000 mm 0,0 UV-I 106 W/m 9,7 C 8,3 C 24,1 km/h (4 Bft) 100,00 %
14.10.2016 16:26 12,7 C 83 % 1009,2 hPa 0,0 l/m 12,4 km/h (3 Bft) NO 55 0 min 0,000 mm 0,0 UV-I 104 W/m 9,9 C 9,4 C 19,3 km/h (3 Bft) 100,00 %
14.10.2016 16:28 12,7 C 82 % 1009,2 hPa 0,0 l/m 18,3 km/h (3 Bft) O-NO 68 0 min 0,000 mm 0,0 UV-I 101 W/m 9,7 C 7,3 C 24,1 km/h (4 Bft) 100,00 %
14.10.2016 16:30 12,7 C 83 % 1009,3 hPa 0,0 l/m 10,4 km/h (2 Bft) NO 55 0 min 0,000 mm 0,0 UV-I 98 W/m 9,9 C 10,4 C 16,1 km/h (3 Bft) 98,00 %
14.10.2016 16:32 12,7 C 83 % 1009,3 hPa 0,0 l/m 10,2 km/h (2 Bft) O-NO 63 0 min 0,000 mm 0,0 UV-I 95 W/m 9,9 C 10,5 C 16,1 km/h (3 Bft) 97,56 %
14.10.2016 16:34 12,7 C 83 % 1009,3 hPa 0,0 l/m 9,6 km/h (2 Bft) NO 45 0 min 0,000 mm 0,0 UV-I 94 W/m 9,9 C 10,8 C 16,1 km/h (3 Bft) 97,87 %
14.10.2016 16:36 12,7 C 83 % 1009,3 hPa 0,0 l/m 10,8 km/h (2 Bft) O-NO 62 0 min 0,000 mm 0,0 UV-I 90 W/m 9,9 C 10,2 C 16,1 km/h (3 Bft) 98,11 %
14.10.2016 16:38 12,7 C 82 % 1009,3 hPa 0,0 l/m 15,7 km/h (3 Bft) O-NO 65 0 min 0,000 mm 0,0 UV-I 88 W/m 9,7 C 8,2 C 22,5 km/h (4 Bft) 97,87 %
14.10.2016 16:40 12,7 C 83 % 1009,2 hPa 0,0 l/m 14,6 km/h (3 Bft) NO 46 0 min 0,000 mm 0,0 UV-I 86 W/m 9,9 C 8,6 C 19,3 km/h (3 Bft) 97,44 %
14.10.2016 16:42 12,7 C 83 % 1009,1 hPa 0,0 l/m 16,4 km/h (3 Bft) NO 52 0 min 0,000 mm 0,0 UV-I 84 W/m 9,9 C 7,9 C 22,5 km/h (4 Bft) 96,15 %
14.10.2016 16:44 12,7 C 82 % 1009,1 hPa 0,0 l/m 23,2 km/h (4 Bft) NO 54 0 min 0,000 mm 0,0 UV-I 83 W/m 9,7 C 5,9 C 30,6 km/h (5 Bft) 95,24 %
14.10.2016 16:46 12,8 C 82 % 1009,0 hPa 0,0 l/m 22,6 km/h (4 Bft) O-NO 69 0 min 0,000 mm 0,0 UV-I 82 W/m 9,8 C 6,2 C 32,2 km/h (5 Bft) 96,00 %
14.10.2016 16:48 12,8 C 82 % 1009,0 hPa 0,0 l/m 19,3 km/h (3 Bft) NO 34 0 min 0,000 mm 0,0 UV-I 80 W/m 9,8 C 7,1 C 27,4 km/h (4 Bft) 97,87 %
14.10.2016 16:50 12,8 C 82 % 1009,0 hPa 0,0 l/m 22,6 km/h (4 Bft) O-NO 60 0 min 0,000 mm 0,0 UV-I 79 W/m 9,8 C 6,2 C 33,8 km/h (5 Bft) 97,87 %
14.10.2016 16:52 12,8 C 82 % 1009,1 hPa 0,0 l/m 16,5 km/h (3 Bft) O-NO 57 0 min 0,000 mm 0,0 UV-I 77 W/m 9,8 C 8,0 C 22,5 km/h (4 Bft) 97,44 %
14.10.2016 16:54 12,8 C 83 % 1009,1 hPa 0,0 l/m 18,2 km/h (3 Bft) O-NO 69 0 min 0,000 mm 0,0 UV-I 77 W/m 10,0 C 7,4 C 29,0 km/h (5 Bft) 98,11 %
14.10.2016 16:56 12,8 C 83 % 1009,2 hPa 0,0 l/m 19,1 km/h (3 Bft) NO 46 0 min 0,000 mm 0,0 UV-I 77 W/m 10,0 C 7,2 C 25,7 km/h (4 Bft) 98,00 %
14.10.2016 16:58 12,8 C 82 % 1009,1 hPa 0,0 l/m 20,4 km/h (4 Bft) O-NO 57 0 min 0,000 mm 0,0 UV-I 77 W/m 9,8 C 6,8 C 27,4 km/h (4 Bft) 97,56 %
14.10.2016 17:00 12,8 C 83 % 1009,2 hPa 0,0 l/m 16,4 km/h (3 Bft) O 86 0 min 0,076 mm 0,0 UV-I 77 W/m 10,0 C 8,0 C 27,4 km/h (4 Bft) 98,00 %
14.10.2016 17:02 12,8 C 83 % 1009,1 hPa 0,0 l/m 21,3 km/h (4 Bft) O 85 0 min 0,000 mm 0,0 UV-I 76 W/m 10,0 C 6,5 C 29,0 km/h (5 Bft) 96,23 %
14.10.2016 17:04 12,8 C 83 % 1009,1 hPa 0,0 l/m 19,9 km/h (4 Bft) O-NO 77 0 min 0,000 mm 0,0 UV-I 73 W/m 10,0 C 6,9 C 30,6 km/h (5 Bft) 100,00 %
14.10.2016 17:06 12,8 C 83 % 1009,3 hPa 0,0 l/m 17,6 km/h (3 Bft) O-NO 76 0 min 0,000 mm 0,0 UV-I 70 W/m 10,0 C 7,6 C 24,1 km/h (4 Bft) 100,00 %
14.10.2016 17:08 12,8 C 83 % 1009,3 hPa 0,0 l/m 20,4 km/h (4 Bft) O-NO 66 0 min 0,000 mm 0,0 UV-I 66 W/m 10,0 C 6,8 C 29,0 km/h (5 Bft) 100,00 %
14.10.2016 17:10 12,8 C 83 % 1009,2 hPa 0,0 l/m 22,3 km/h (4 Bft) NO 48 0 min 0,000 mm 0,0 UV-I 62 W/m 10,0 C 6,3 C 29,0 km/h (5 Bft) 100,00 %
14.10.2016 17:12 12,8 C 82 % 1009,3 hPa 0,0 l/m 21,4 km/h (4 Bft) NO 36 0 min 0,000 mm 0,0 UV-I 58 W/m 9,8 C 6,5 C 27,4 km/h (4 Bft) 100,00 %
14.10.2016 17:14 12,8 C 82 % 1009,3 hPa 0,0 l/m 22,2 km/h (4 Bft) NO 51 0 min 0,000 mm 0,0 UV-I 55 W/m 9,8 C 6,3 C 30,6 km/h (5 Bft) 100,00 %
14.10.2016 17:16 12,8 C 82 % 1009,4 hPa 0,0 l/m 20,3 km/h (4 Bft) NO 35 0 min 0,000 mm 0,0 UV-I 52 W/m 9,8 C 6,8 C 29,0 km/h (5 Bft) 100,00 %
14.10.2016 17:18 12,8 C 83 % 1009,3 hPa 0,0 l/m 17,2 km/h (3 Bft) NO 54 0 min 0,000 mm 0,0 UV-I 49 W/m 10,0 C 7,8 C 20,9 km/h (4 Bft) 100,00 %
14.10.2016 17:20 12,8 C 82 % 1009,3 hPa 0,0 l/m 19,9 km/h (4 Bft) O-NO 59 0 min 0,000 mm 0,0 UV-I 46 W/m 9,8 C 6,9 C 27,4 km/h (4 Bft) 100,00 %
14.10.2016 17:22 12,7 C 83 % 1009,3 hPa 0,0 l/m 20,5 km/h (4 Bft) O-NO 73 0 min 0,000 mm 0,0 UV-I 44 W/m 9,9 C 6,6 C 30,6 km/h (5 Bft) 100,00 %
14.10.2016 17:24 12,7 C 83 % 1009,3 hPa 0,0 l/m 20,5 km/h (4 Bft) O 86 0 min 0,000 mm 0,0 UV-I 42 W/m 9,9 C 6,6 C 30,6 km/h (5 Bft) 98,00 %
14.10.2016 17:26 12,7 C 83 % 1009,4 hPa 0,0 l/m 21,3 km/h (4 Bft) O-NO 59 0 min 0,000 mm 0,0 UV-I 39 W/m 9,9 C 6,4 C 29,0 km/h (5 Bft) 100,00 %
14.10.2016 17:28 12,7 C 83 % 1009,4 hPa 0,0 l/m 16,3 km/h (3 Bft) O-NO 65 0 min 0,000 mm 0,0 UV-I 38 W/m 9,9 C 7,9 C 24,1 km/h (4 Bft) 96,23 %
14.10.2016 17:30 12,7 C 82 % 1009,3 hPa 0,0 l/m 15,8 km/h (3 Bft) O-NO 78 0 min 0,000 mm 0,0 UV-I 36 W/m 9,7 C 8,1 C 22,5 km/h (4 Bft) 100,00 %
14.10.2016 17:32 12,7 C 82 % 1009,3 hPa 0,0 l/m 19,3 km/h (3 Bft) O 86 0 min 0,000 mm 0,0 UV-I 34 W/m 9,7 C 7,0 C 25,7 km/h (4 Bft) 100,00 %
14.10.2016 17:34 12,7 C 82 % 1009,4 hPa 0,0 l/m 19,6 km/h (3 Bft) O 83 0 min 0,000 mm 0,0 UV-I 33 W/m 9,7 C 6,9 C 29,0 km/h (5 Bft) 100,00 %
14.10.2016 17:36 12,7 C 82 % 1009,2 hPa 0,0 l/m 23,0 km/h (4 Bft) NO 51 0 min 0,000 mm 0,0 UV-I 30 W/m 9,7 C 6,0 C 33,8 km/h (5 Bft) 100,00 %
14.10.2016 17:38 12,7 C 82 % 1009,2 hPa 0,0 l/m 19,4 km/h (3 Bft) O-NO 71 0 min 0,000 mm 0,0 UV-I 28 W/m 9,7 C 6,9 C 25,7 km/h (4 Bft) 100,00 %
14.10.2016 17:40 12,7 C 82 % 1009,2 hPa 0,0 l/m 21,1 km/h (4 Bft) NO 49 0 min 0,000 mm 0,0 UV-I 25 W/m 9,7 C 6,5 C 30,6 km/h (5 Bft) 100,00 %
14.10.2016 17:42 12,7 C 82 % 1009,2 hPa 0,0 l/m 18,9 km/h (3 Bft) O-NO 63 0 min 0,000 mm 0,0 UV-I 22 W/m 9,7 C 7,1 C 27,4 km/h (4 Bft) 98,11 %
14.10.2016 17:44 12,6 C 82 % 1009,1 hPa 0,0 l/m 19,8 km/h (3 Bft) O-NO 69 0 min 0,000 mm 0,0 UV-I 20 W/m 9,6 C 6,7 C 29,0 km/h (5 Bft) 100,00 %
14.10.2016 17:46 12,6 C 82 % 1009,1 hPa 0,0 l/m 17,7 km/h (3 Bft) O-NO 74 0 min 0,000 mm 0,0 UV-I 18 W/m 9,6 C 7,3 C 25,7 km/h (4 Bft) 100,00 %
14.10.2016 17:48 12,6 C 82 % 1009,1 hPa 0,0 l/m 17,8 km/h (3 Bft) O-NO 60 0 min 0,000 mm 0,0 UV-I 15 W/m 9,6 C 7,3 C 27,4 km/h (4 Bft) 100,00 %
14.10.2016 17:50 12,6 C 82 % 1009,0 hPa 0,0 l/m 16,2 km/h (3 Bft) O-NO 61 0 min 0,000 mm 0,0 UV-I 14 W/m 9,6 C 7,9 C 25,7 km/h (4 Bft) 100,00 %
14.10.2016 17:52 12,5 C 82 % 1008,8 hPa 0,0 l/m 20,9 km/h (4 Bft) N-NO 32 0 min 0,000 mm 0,0 UV-I 12 W/m 9,5 C 6,3 C 27,4 km/h (4 Bft) 100,00 %
14.10.2016 17:54 12,5 C 82 % 1008,6 hPa 0,0 l/m 21,5 km/h (4 Bft) NO 49 0 min 0,000 mm 0,0 UV-I 11 W/m 9,5 C 6,1 C 30,6 km/h (5 Bft) 100,00 %
14.10.2016 17:56 12,5 C 82 % 1008,7 hPa 0,0 l/m 17,8 km/h (3 Bft) O-NO 72 0 min 0,000 mm 0,0 UV-I 11 W/m 9,5 C 7,2 C 27,4 km/h (4 Bft) 100,00 %
14.10.2016 17:58 12,4 C 83 % 1009,1 hPa 0,0 l/m 15,4 km/h (3 Bft) O-NO 72 0 min 0,000 mm 0,0 UV-I 9 W/m 9,6 C 7,9 C 22,5 km/h (4 Bft) 97,56 %
14.10.2016 18:00 12,5 C 82 % 1009,5 hPa 0,0 l/m 15,5 km/h (3 Bft) O 90 0 min 0,051 mm 0,0 UV-I 8 W/m 9,5 C 8,0 C 22,5 km/h (4 Bft) 100,00 %
14.10.2016 18:02 12,4 C 83 % 1009,6 hPa 0,0 l/m 14,6 km/h (3 Bft) O 81 0 min 0,000 mm 0,0 UV-I 7 W/m 9,6 C 8,2 C 20,9 km/h (4 Bft) 96,00 %
14.10.2016 18:04 12,4 C 82 % 1009,5 hPa 0,0 l/m 17,7 km/h (3 Bft) O 92 0 min 0,000 mm 0,0 UV-I 6 W/m 9,4 C 7,1 C 25,7 km/h (4 Bft) 97,44 %
14.10.2016 18:06 12,5 C 82 % 1009,4 hPa 0,0 l/m 22,7 km/h (4 Bft) NO 46 0 min 0,000 mm 0,0 UV-I 5 W/m 9,5 C 5,8 C 30,6 km/h (5 Bft) 97,87 %
14.10.2016 18:08 12,5 C 82 % 1009,4 hPa 0,0 l/m 25,1 km/h (4 Bft) NO 54 0 min 0,000 mm 0,0 UV-I 0 W/m 9,5 C 5,2 C 32,2 km/h (5 Bft) 98,00 %
14.10.2016 18:10 12,6 C 82 % 1009,3 hPa 0,0 l/m 22,0 km/h (4 Bft) O-NO 63 0 min 0,000 mm 0,0 UV-I 0 W/m 9,6 C 6,1 C 33,8 km/h (5 Bft) 100,00 %
14.10.2016 18:12 12,6 C 82 % 1009,3 hPa 0,0 l/m 23,1 km/h (4 Bft) O-NO 58 0 min 0,000 mm 0,0 UV-I 0 W/m 9,6 C 5,8 C 32,2 km/h (5 Bft) 94,74 %
14.10.2016 18:14 12,6 C 82 % 1009,2 hPa 0,0 l/m 23,1 km/h (4 Bft) NO 37 0 min 0,000 mm 0,0 UV-I 0 W/m 9,6 C 5,8 C 33,8 km/h (5 Bft) 100,00 %
14.10.2016 18:16 12,6 C 82 % 1009,1 hPa 0,0 l/m 21,6 km/h (4 Bft) NO 43 0 min 0,000 mm 0,0 UV-I 0 W/m 9,6 C 6,2 C 30,6 km/h (5 Bft) 98,11 %
14.10.2016 18:18 12,5 C 82 % 1009,2 hPa 0,0 l/m 19,4 km/h (3 Bft) O 86 0 min 0,000 mm 0,0 UV-I 0 W/m 9,5 C 6,7 C 29,0 km/h (5 Bft) 97,87 %
14.10.2016 18:20 12,5 C 82 % 1009,2 hPa 0,0 l/m 19,8 km/h (3 Bft) O-NO 67 0 min 0,000 mm 0,0 UV-I 0 W/m 9,5 C 6,6 C 29,0 km/h (5 Bft) 100,00 %
14.10.2016 18:22 12,5 C 82 % 1009,3 hPa 0,0 l/m 20,5 km/h (4 Bft) O-NO 66 0 min 0,000 mm 0,0 UV-I 0 W/m 9,5 C 6,4 C 27,4 km/h (4 Bft) 100,00 %
14.10.2016 18:24 12,4 C 82 % 1009,2 hPa 0,0 l/m 26,9 km/h (4 Bft) O-NO 63 0 min 0,000 mm 0,0 UV-I 0 W/m 9,4 C 4,7 C 37,0 km/h (5 Bft) 97,37 %
14.10.2016 18:26 12,4 C 82 % 1009,3 hPa 0,0 l/m 24,7 km/h (4 Bft) O 79 0 min 0,000 mm 0,0 UV-I 0 W/m 9,4 C 5,2 C 35,4 km/h (5 Bft) 100,00 %
14.10.2016 18:28 12,4 C 82 % 1009,3 hPa 0,0 l/m 25,9 km/h (4 Bft) O-NO 63 0 min 0,000 mm 0,0 UV-I 0 W/m 9,4 C 4,9 C 35,4 km/h (5 Bft) 98,11 %
14.10.2016 18:30 12,4 C 82 % 1009,5 hPa 0,0 l/m 24,3 km/h (4 Bft) O 84 0 min 0,000 mm 0,0 UV-I 0 W/m 9,4 C 5,3 C 35,4 km/h (5 Bft) 97,56 %
14.10.2016 18:32 12,4 C 82 % 1009,4 hPa 0,0 l/m 26,4 km/h (4 Bft) O-NO 71 0 min 0,000 mm 0,0 UV-I 0 W/m 9,4 C 4,8 C 35,4 km/h (5 Bft) 95,74 %
14.10.2016 18:34 12,4 C 82 % 1009,2 hPa 0,0 l/m 22,5 km/h (4 Bft) O-NO 68 0 min 0,000 mm 0,0 UV-I 0 W/m 9,4 C 5,7 C 30,6 km/h (5 Bft) 98,00 %
14.10.2016 18:36 12,4 C 82 % 1009,2 hPa 0,0 l/m 21,1 km/h (4 Bft) O-NO 59 0 min 0,000 mm 0,0 UV-I 0 W/m 9,4 C 6,1 C 29,0 km/h (5 Bft) 95,12 %
14.10.2016 18:38 12,4 C 82 % 1009,2 hPa 0,0 l/m 21,8 km/h (4 Bft) O-NO 63 0 min 0,000 mm 0,0 UV-I 0 W/m 9,4 C 5,9 C 33,8 km/h (5 Bft) 98,11 %
14.10.2016 18:40 12,4 C 82 % 1009,2 hPa 0,0 l/m 23,6 km/h (4 Bft) O-NO 65 0 min 0,000 mm 0,0 UV-I 0 W/m 9,4 C 5,4 C 37,0 km/h (5 Bft) 97,87 %
14.10.2016 18:42 12,4 C 82 % 1009,1 hPa 0,0 l/m 20,5 km/h (4 Bft) O-NO 72 0 min 0,000 mm 0,0 UV-I 0 W/m 9,4 C 6,2 C 40,2 km/h (6 Bft) 95,74 %
14.10.2016 18:44 12,4 C 82 % 1009,1 hPa 0,0 l/m 25,6 km/h (4 Bft) NO 41 0 min 0,000 mm 0,0 UV-I 0 W/m 9,4 C 4,9 C 40,2 km/h (6 Bft) 97,44 %
14.10.2016 18:46 12,4 C 82 % 1009,0 hPa 0,0 l/m 27,5 km/h (4 Bft) O-NO 63 0 min 0,000 mm 0,0 UV-I 0 W/m 9,4 C 4,5 C 38,6 km/h (5 Bft) 96,23 %
14.10.2016 18:48 12,4 C 82 % 1009,1 hPa 0,0 l/m 25,4 km/h (4 Bft) NO 42 0 min 0,000 mm 0,0 UV-I 0 W/m 9,4 C 5,0 C 33,8 km/h (5 Bft) 95,74 %
14.10.2016 18:50 12,4 C 82 % 1009,3 hPa 0,0 l/m 20,2 km/h (4 Bft) O 80 0 min 0,000 mm 0,0 UV-I 0 W/m 9,4 C 6,3 C 25,7 km/h (4 Bft) 97,56 %
14.10.2016 18:52 12,3 C 82 % 1009,3 hPa 0,0 l/m 20,0 km/h (4 Bft) O-NO 63 0 min 0,000 mm 0,0 UV-I 0 W/m 9,3 C 6,3 C 30,6 km/h (5 Bft) 95,74 %
14.10.2016 18:54 12,3 C 82 % 1009,3 hPa 0,0 l/m 23,2 km/h (4 Bft) O 91 0 min 0,000 mm 0,0 UV-I 0 W/m 9,3 C 5,4 C 30,6 km/h (5 Bft) 96,23 %
14.10.2016 18:56 12,3 C 83 % 1009,2 hPa 0,0 l/m 21,2 km/h (4 Bft) O-NO 64 0 min 0,000 mm 0,0 UV-I 0 W/m 9,5 C 5,9 C 30,6 km/h (5 Bft) 97,37 %
14.10.2016 18:58 12,3 C 83 % 1009,2 hPa 0,0 l/m 23,8 km/h (4 Bft) O-NO 71 0 min 0,000 mm 0,0 UV-I 0 W/m 9,5 C 5,2 C 32,2 km/h (5 Bft) 98,21 %
14.10.2016 19:00 12,3 C 83 % 1009,2 hPa 0,0 l/m 26,0 km/h (4 Bft) O-NO 67 0 min 0,000 mm 0,0 UV-I 0 W/m 9,5 C 4,7 C 33,8 km/h (5 Bft) 93,62 %
14.10.2016 19:03 12,3 C 82 % 1009,2 hPa 0,0 l/m 23,4 km/h (4 Bft) NO 55 0 min 0,051 mm 0,0 UV-I 0 W/m 9,3 C 5,3 C 35,4 km/h (5 Bft) 96,77 %
14.10.2016 19:04 12,3 C 82 % 1009,2 hPa 0,0 l/m 22,4 km/h (4 Bft) NO 46 0 min 0,000 mm 0,0 UV-I 0 W/m 9,3 C 5,6 C 33,8 km/h (5 Bft) 96,55 %
14.10.2016 19:06 12,3 C 82 % 1009,3 hPa 0,0 l/m 22,8 km/h (4 Bft) O-NO 61 0 min 0,000 mm 0,0 UV-I 0 W/m 9,3 C 5,5 C 30,6 km/h (5 Bft) 97,87 %
14.10.2016 19:08 12,3 C 83 % 1009,4 hPa 0,0 l/m 20,4 km/h (4 Bft) O-NO 70 0 min 0,000 mm 0,0 UV-I 0 W/m 9,5 C 6,1 C 27,4 km/h (4 Bft) 100,00 %
14.10.2016 19:10 12,3 C 83 % 1009,5 hPa 0,0 l/m 17,7 km/h (3 Bft) NO 55 0 min 0,000 mm 0,0 UV-I 0 W/m 9,5 C 7,0 C 25,7 km/h (4 Bft) 98,21 %
14.10.2016 19:12 12,2 C 82 % 1009,3 hPa 0,0 l/m 21,5 km/h (4 Bft) NO 44 0 min 0,000 mm 0,0 UV-I 0 W/m 9,2 C 5,7 C 29,0 km/h (5 Bft) 100,00 %
14.10.2016 19:14 12,2 C 82 % 1009,4 hPa 0,0 l/m 20,2 km/h (4 Bft) O-NO 74 0 min 0,000 mm 0,0 UV-I 0 W/m 9,2 C 6,1 C 25,7 km/h (4 Bft) 100,00 %
14.10.2016 19:16 12,2 C 82 % 1009,6 hPa 0,0 l/m 17,7 km/h (3 Bft) O-NO 62 0 min 0,000 mm 0,0 UV-I 0 W/m 9,2 C 6,8 C 24,1 km/h (4 Bft) 100,00 %
14.10.2016 19:18 12,2 C 82 % 1009,6 hPa 0,0 l/m 18,8 km/h (3 Bft) NO 43 0 min 0,000 mm 0,0 UV-I 0 W/m 9,2 C 6,5 C 25,7 km/h (4 Bft) 98,00 %
14.10.2016 19:20 12,2 C 83 % 1009,5 hPa 0,0 l/m 21,1 km/h (4 Bft) O-NO 65 0 min 0,000 mm 0,0 UV-I 0 W/m 9,4 C 5,8 C 29,0 km/h (5 Bft) 100,00 %
14.10.2016 19:22 12,2 C 83 % 1009,6 hPa 0,0 l/m 15,9 km/h (3 Bft) O-NO 61 0 min 0,000 mm 0,0 UV-I 0 W/m 9,4 C 7,5 C 24,1 km/h (4 Bft) 100,00 %
14.10.2016 19:24 12,1 C 83 % 1009,6 hPa 0,0 l/m 15,2 km/h (3 Bft) O-NO 65 0 min 0,000 mm 0,0 UV-I 0 W/m 9,3 C 7,6 C 20,9 km/h (4 Bft) 100,00 %
14.10.2016 19:26 12,1 C 83 % 1009,5 hPa 0,0 l/m 14,7 km/h (3 Bft) NO 56 0 min 0,000 mm 0,0 UV-I 0 W/m 9,3 C 7,8 C 24,1 km/h (4 Bft) 100,00 %
14.10.2016 19:28 12,0 C 83 % 1009,7 hPa 0,0 l/m 16,1 km/h (3 Bft) O-NO 78 0 min 0,000 mm 0,0 UV-I 0 W/m 9,2 C 7,1 C 22,5 km/h (4 Bft) 96,23 %
14.10.2016 19:30 12,0 C 83 % 1009,8 hPa 0,0 l/m 15,2 km/h (3 Bft) NO 46 0 min 0,000 mm 0,0 UV-I 0 W/m 9,2 C 7,5 C 20,9 km/h (4 Bft) 100,00 %
14.10.2016 19:32 11,9 C 83 % 1009,8 hPa 0,0 l/m 16,6 km/h (3 Bft) NO 53 0 min 0,000 mm 0,0 UV-I 0 W/m 9,1 C 6,8 C 24,1 km/h (4 Bft) 95,74 %
14.10.2016 19:34 11,9 C 83 % 1009,8 hPa 0,0 l/m 14,1 km/h (3 Bft) NO 52 0 min 0,000 mm 0,0 UV-I 0 W/m 9,1 C 7,8 C 20,9 km/h (4 Bft) 100,00 %
14.10.2016 19:36 11,9 C 84 % 1009,7 hPa 0,0 l/m 14,6 km/h (3 Bft) NO 47 0 min 0,000 mm 0,0 UV-I 0 W/m 9,3 C 7,6 C 20,9 km/h (4 Bft) 100,00 %
14.10.2016 19:38 11,8 C 84 % 1009,7 hPa 0,0 l/m 15,7 km/h (3 Bft) O-NO 75 0 min 0,000 mm 0,0 UV-I 0 W/m 9,2 C 7,0 C 22,5 km/h (4 Bft) 98,11 %
14.10.2016 19:40 11,8 C 84 % 1009,6 hPa 0,0 l/m 17,1 km/h (3 Bft) NO 51 0 min 0,000 mm 0,0 UV-I 0 W/m 9,2 C 6,5 C 25,7 km/h (4 Bft) 100,00 %
14.10.2016 19:42 11,8 C 84 % 1009,6 hPa 0,0 l/m 16,8 km/h (3 Bft) O-NO 58 0 min 0,000 mm 0,0 UV-I 0 W/m 9,2 C 6,7 C 22,5 km/h (4 Bft) 100,00 %
14.10.2016 19:44 11,8 C 84 % 1009,5 hPa 0,0 l/m 18,9 km/h (3 Bft) O-NO 64 0 min 0,000 mm 0,0 UV-I 0 W/m 9,2 C 6,0 C 24,1 km/h (4 Bft) 100,00 %
14.10.2016 19:46 11,8 C 84 % 1009,4 hPa 0,0 l/m 17,4 km/h (3 Bft) O-NO 63 0 min 0,000 mm 0,0 UV-I 0 W/m 9,2 C 6,4 C 24,1 km/h (4 Bft) 100,00 %
14.10.2016 19:48 11,8 C 84 % 1009,4 hPa 0,0 l/m 18,1 km/h (3 Bft) O-NO 63 0 min 0,000 mm 0,0 UV-I 0 W/m 9,2 C 6,2 C 24,1 km/h (4 Bft) 97,56 %
14.10.2016 19:50 11,7 C 84 % 1009,3 hPa 0,0 l/m 15,2 km/h (3 Bft) NO 44 0 min 0,000 mm 0,0 UV-I 0 W/m 9,1 C 7,1 C 22,5 km/h (4 Bft) 100,00 %
14.10.2016 19:52 11,7 C 84 % 1009,4 hPa 0,0 l/m 16,9 km/h (3 Bft) NO 44 0 min 0,000 mm 0,0 UV-I 0 W/m 9,1 C 6,5 C 24,1 km/h (4 Bft) 100,00 %
14.10.2016 19:54 11,7 C 84 % 1009,4 hPa 0,0 l/m 16,6 km/h (3 Bft) O 84 0 min 0,000 mm 0,0 UV-I 0 W/m 9,1 C 6,6 C 22,5 km/h (4 Bft) 100,00 %
14.10.2016 19:56 11,7 C 84 % 1009,5 hPa 0,0 l/m 20,7 km/h (4 Bft) O-NO 60 0 min 0,000 mm 0,0 UV-I 0 W/m 9,1 C 5,3 C 32,2 km/h (5 Bft) 100,00 %
14.10.2016 19:58 11,7 C 84 % 1009,4 hPa 0,0 l/m 17,1 km/h (3 Bft) O-NO 63 0 min 0,000 mm 0,0 UV-I 0 W/m 9,1 C 6,4 C 24,1 km/h (4 Bft) 100,00 %
14.10.2016 20:00 11,7 C 84 % 1009,3 hPa 0,0 l/m 19,4 km/h (3 Bft) NO 55 0 min 0,025 mm 0,0 UV-I 0 W/m 9,1 C 5,7 C 30,6 km/h (5 Bft) 100,00 %
14.10.2016 20:02 11,7 C 84 % 1009,2 hPa 0,0 l/m 19,1 km/h (3 Bft) NO 45 0 min 0,000 mm 0,0 UV-I 0 W/m 9,1 C 5,8 C 24,1 km/h (4 Bft) 96,23 %
14.10.2016 20:04 11,7 C 84 % 1009,2 hPa 0,0 l/m 18,0 km/h (3 Bft) NO 45 0 min 0,000 mm 0,0 UV-I 0 W/m 9,1 C 6,1 C 24,1 km/h (4 Bft) 100,00 %
14.10.2016 20:06 11,7 C 84 % 1009,2 hPa 0,0 l/m 15,9 km/h (3 Bft) O-NO 61 0 min 0,000 mm 0,0 UV-I 0 W/m 9,1 C 6,9 C 24,1 km/h (4 Bft) 100,00 %
14.10.2016 20:08 11,6 C 85 % 1009,1 hPa 0,0 l/m 15,2 km/h (3 Bft) NO 46 0 min 0,000 mm 0,0 UV-I 0 W/m 9,2 C 7,0 C 22,5 km/h (4 Bft) 100,00 %
14.10.2016 20:10 11,6 C 85 % 1009,2 hPa 0,0 l/m 19,2 km/h (3 Bft) O-NO 62 0 min 0,000 mm 0,0 UV-I 0 W/m 9,2 C 5,6 C 30,6 km/h (5 Bft) 100,00 %
14.10.2016 20:12 11,6 C 85 % 1009,3 hPa 0,0 l/m 13,4 km/h (3 Bft) O-NO 63 0 min 0,000 mm 0,0 UV-I 0 W/m 9,2 C 7,7 C 19,3 km/h (3 Bft) 100,00 %
14.10.2016 20:14 11,6 C 85 % 1009,4 hPa 0,0 l/m 16,8 km/h (3 Bft) NO 55 0 min 0,000 mm 0,0 UV-I 0 W/m 9,2 C 6,4 C 22,5 km/h (4 Bft) 100,00 %
14.10.2016 20:16 11,6 C 85 % 1009,3 hPa 0,0 l/m 16,3 km/h (3 Bft) NO 44 0 min 0,000 mm 0,0 UV-I 0 W/m 9,2 C 6,6 C 20,9 km/h (4 Bft) 97,56 %
14.10.2016 20:18 11,5 C 85 % 1009,1 hPa 0,0 l/m 16,3 km/h (3 Bft) O-NO 61 0 min 0,000 mm 0,0 UV-I 0 W/m 9,1 C 6,5 C 24,1 km/h (4 Bft) 100,00 %
14.10.2016 20:20 11,5 C 85 % 1009,1 hPa 0,0 l/m 15,4 km/h (3 Bft) NO 34 0 min 0,000 mm 0,0 UV-I 0 W/m 9,1 C 6,8 C 24,1 km/h (4 Bft) 100,00 %
14.10.2016 20:22 11,5 C 85 % 1009,1 hPa 0,0 l/m 17,3 km/h (3 Bft) O-NO 69 0 min 0,000 mm 0,0 UV-I 0 W/m 9,1 C 6,1 C 24,1 km/h (4 Bft) 100,00 %
14.10.2016 20:24 11,5 C 85 % 1009,0 hPa 0,0 l/m 16,5 km/h (3 Bft) O-NO 76 0 min 0,000 mm 0,0 UV-I 0 W/m 9,1 C 6,4 C 22,5 km/h (4 Bft) 100,00 %
14.10.2016 20:26 11,4 C 85 % 1008,9 hPa 0,0 l/m 12,5 km/h (3 Bft) NO 45 0 min 0,000 mm 0,0 UV-I 0 W/m 9,0 C 7,9 C 20,9 km/h (4 Bft) 98,21 %
14.10.2016 20:28 11,4 C 85 % 1008,9 hPa 0,0 l/m 15,5 km/h (3 Bft) NO 51 0 min 0,000 mm 0,0 UV-I 0 W/m 9,0 C 6,6 C 24,1 km/h (4 Bft) 100,00 %
14.10.2016 20:30 11,4 C 85 % 1008,9 hPa 0,0 l/m 15,8 km/h (3 Bft) O-NO 70 0 min 0,000 mm 0,0 UV-I 0 W/m 9,0 C 6,5 C 22,5 km/h (4 Bft) 100,00 %
14.10.2016 20:32 11,4 C 85 % 1009,1 hPa 0,0 l/m 14,9 km/h (3 Bft) O-NO 63 0 min 0,000 mm 0,0 UV-I 0 W/m 9,0 C 6,9 C 19,3 km/h (3 Bft) 95,74 %
14.10.2016 20:34 11,4 C 85 % 1009,1 hPa 0,0 l/m 15,9 km/h (3 Bft) NO 51 0 min 0,000 mm 0,0 UV-I 0 W/m 9,0 C 6,5 C 22,5 km/h (4 Bft) 98,00 %
14.10.2016 20:36 11,4 C 85 % 1009,0 hPa 0,0 l/m 15,0 km/h (3 Bft) O-NO 71 0 min 0,000 mm 0,0 UV-I 0 W/m 9,0 C 6,8 C 25,7 km/h (4 Bft) 95,24 %
14.10.2016 20:38 11,3 C 86 % 1009,1 hPa 0,0 l/m 11,9 km/h (2 Bft) NO 44 0 min 0,000 mm 0,0 UV-I 0 W/m 9,0 C 8,1 C 16,1 km/h (3 Bft) 98,08 %
14.10.2016 20:40 11,3 C 86 % 1009,1 hPa 0,0 l/m 15,3 km/h (3 Bft) O-NO 64 0 min 0,000 mm 0,0 UV-I 0 W/m 9,0 C 6,6 C 20,9 km/h (4 Bft) 97,62 %
14.10.2016 20:42 11,3 C 86 % 1009,2 hPa 0,0 l/m 18,6 km/h (3 Bft) O-NO 57 0 min 0,000 mm 0,0 UV-I 0 W/m 9,0 C 5,4 C 24,1 km/h (4 Bft) 98,00 %
14.10.2016 20:44 11,3 C 86 % 1009,0 hPa 0,0 l/m 16,7 km/h (3 Bft) O-NO 67 0 min 0,000 mm 0,0 UV-I 0 W/m 9,0 C 6,1 C 24,1 km/h (4 Bft) 97,87 %
14.10.2016 20:46 11,3 C 86 % 1009,0 hPa 0,0 l/m 16,4 km/h (3 Bft) NO 34 0 min 0,000 mm 0,0 UV-I 0 W/m 9,0 C 6,2 C 22,5 km/h (4 Bft) 93,62 %
14.10.2016 20:48 11,3 C 86 % 1009,0 hPa 0,0 l/m 15,6 km/h (3 Bft) O-NO 60 0 min 0,000 mm 0,0 UV-I 0 W/m 9,0 C 6,5 C 24,1 km/h (4 Bft) 95,74 %
14.10.2016 20:50 11,3 C 86 % 1009,0 hPa 0,0 l/m 13,1 km/h (3 Bft) O-NO 63 0 min 0,000 mm 0,0 UV-I 0 W/m 9,0 C 7,5 C 25,7 km/h (4 Bft) 95,45 %
14.10.2016 20:52 11,2 C 86 % 1009,0 hPa 0,0 l/m 17,5 km/h (3 Bft) O-NO 70 0 min 0,000 mm 0,0 UV-I 0 W/m 8,9 C 5,7 C 25,7 km/h (4 Bft) 98,21 %
14.10.2016 20:54 11,2 C 86 % 1009,1 hPa 0,0 l/m 17,5 km/h (3 Bft) N-NO 32 0 min 0,000 mm 0,0 UV-I 0 W/m 8,9 C 5,7 C 24,1 km/h (4 Bft) 97,37 %
14.10.2016 20:56 11,2 C 86 % 1009,0 hPa 0,0 l/m 18,2 km/h (3 Bft) O-SO 105 0 min 0,000 mm 0,0 UV-I 0 W/m 8,9 C 5,4 C 29,0 km/h (5 Bft) 98,11 %
14.10.2016 20:58 11,2 C 86 % 1008,8 hPa 0,0 l/m 19,7 km/h (3 Bft) NO 50 0 min 0,000 mm 0,0 UV-I 0 W/m 8,9 C 4,9 C 25,7 km/h (4 Bft) 97,87 %
14.10.2016 21:00 11,2 C 86 % 1008,9 hPa 0,0 l/m 14,9 km/h (3 Bft) O-NO 64 0 min 0,000 mm 0,0 UV-I 0 W/m 8,9 C 6,6 C 20,9 km/h (4 Bft) 97,87 %
14.10.2016 21:02 11,2 C 86 % 1008,8 hPa 0,0 l/m 16,3 km/h (3 Bft) NO 55 0 min 0,026 mm 0,0 UV-I 0 W/m 8,9 C 6,1 C 24,1 km/h (4 Bft) 95,12 %
14.10.2016 21:04 11,2 C 86 % 1008,7 hPa 0,0 l/m 17,6 km/h (3 Bft) NO 36 0 min 0,000 mm 0,0 UV-I 0 W/m 8,9 C 5,6 C 25,7 km/h (4 Bft) 96,23 %
14.10.2016 21:06 11,2 C 86 % 1008,7 hPa 0,0 l/m 16,2 km/h (3 Bft) NO 48 0 min 0,000 mm 0,0 UV-I 0 W/m 8,9 C 6,1 C 24,1 km/h (4 Bft) 100,00 %
14.10.2016 21:08 11,2 C 86 % 1008,6 hPa 0,0 l/m 14,8 km/h (3 Bft) O-NO 65 0 min 0,000 mm 0,0 UV-I 0 W/m 8,9 C 6,7 C 19,3 km/h (3 Bft) 100,00 %
14.10.2016 21:10 11,2 C 86 % 1008,7 hPa 0,0 l/m 13,6 km/h (3 Bft) O-NO 59 0 min 0,000 mm 0,0 UV-I 0 W/m 8,9 C 7,2 C 20,9 km/h (4 Bft) 100,00 %
14.10.2016 21:12 11,2 C 86 % 1008,8 hPa 0,0 l/m 18,1 km/h (3 Bft) O-NO 76 0 min 0,000 mm 0,0 UV-I 0 W/m 8,9 C 5,5 C 32,2 km/h (5 Bft) 100,00 %
14.10.2016 21:14 11,2 C 86 % 1008,8 hPa 0,0 l/m 19,5 km/h (3 Bft) O-NO 74 0 min 0,000 mm 0,0 UV-I 0 W/m 8,9 C 5,0 C 24,1 km/h (4 Bft) 100,00 %
14.10.2016 21:16 11,2 C 86 % 1008,8 hPa 0,0 l/m 18,9 km/h (3 Bft) O 86 0 min 0,000 mm 0,0 UV-I 0 W/m 8,9 C 5,2 C 25,7 km/h (4 Bft) 100,00 %
14.10.2016 21:18 11,2 C 86 % 1008,8 hPa 0,0 l/m 20,7 km/h (4 Bft) O-NO 71 0 min 0,000 mm 0,0 UV-I 0 W/m 8,9 C 4,6 C 25,7 km/h (4 Bft) 100,00 %
14.10.2016 21:20 11,2 C 86 % 1008,7 hPa 0,0 l/m 20,0 km/h (4 Bft) O-NO 71 0 min 0,000 mm 0,0 UV-I 0 W/m 8,9 C 4,8 C 25,7 km/h (4 Bft) 100,00 %
14.10.2016 21:22 11,2 C 86 % 1008,7 hPa 0,0 l/m 16,4 km/h (3 Bft) O 90 0 min 0,000 mm 0,0 UV-I 0 W/m 8,9 C 6,1 C 22,5 km/h (4 Bft) 100,00 %
14.10.2016 21:24 11,2 C 86 % 1008,7 hPa 0,0 l/m 16,3 km/h (3 Bft) O 83 0 min 0,000 mm 0,0 UV-I 0 W/m 8,9 C 6,1 C 29,0 km/h (5 Bft) 100,00 %
14.10.2016 21:26 11,3 C 85 % 1008,7 hPa 0,0 l/m 16,5 km/h (3 Bft) O-NO 59 0 min 0,000 mm 0,0 UV-I 0 W/m 8,9 C 6,1 C 24,1 km/h (4 Bft) 100,00 %
14.10.2016 21:28 11,2 C 86 % 1008,9 hPa 0,0 l/m 14,4 km/h (3 Bft) NO 49 0 min 0,000 mm 0,0 UV-I 0 W/m 8,9 C 6,8 C 24,1 km/h (4 Bft) 100,00 %
14.10.2016 21:30 11,3 C 85 % 1009,0 hPa 0,0 l/m 14,4 km/h (3 Bft) O-NO 74 0 min 0,000 mm 0,0 UV-I 0 W/m 8,9 C 7,0 C 22,5 km/h (4 Bft) 100,00 %
14.10.2016 21:32 11,2 C 86 % 1009,0 hPa 0,0 l/m 14,8 km/h (3 Bft) O-NO 67 0 min 0,000 mm 0,0 UV-I 0 W/m 8,9 C 6,7 C 24,1 km/h (4 Bft) 100,00 %
14.10.2016 21:34 11,3 C 85 % 1009,0 hPa 0,0 l/m 16,6 km/h (3 Bft) NO 55 0 min 0,000 mm 0,0 UV-I 0 W/m 8,9 C 6,1 C 22,5 km/h (4 Bft) 100,00 %
14.10.2016 21:36 11,2 C 86 % 1009,0 hPa 0,0 l/m 19,2 km/h (3 Bft) O-NO 59 0 min 0,000 mm 0,0 UV-I 0 W/m 8,9 C 5,1 C 25,7 km/h (4 Bft) 100,00 %
14.10.2016 21:38 11,2 C 86 % 1009,0 hPa 0,0 l/m 14,8 km/h (3 Bft) O-NO 76 0 min 0,000 mm 0,0 UV-I 0 W/m 8,9 C 6,7 C 24,1 km/h (4 Bft) 97,56 %
14.10.2016 21:40 11,2 C 86 % 1009,0 hPa 0,0 l/m 16,8 km/h (3 Bft) O-NO 65 0 min 0,000 mm 0,0 UV-I 0 W/m 8,9 C 5,9 C 25,7 km/h (4 Bft) 100,00 %
14.10.2016 21:42 11,3 C 86 % 1009,1 hPa 0,0 l/m 18,5 km/h (3 Bft) NO 52 0 min 0,000 mm 0,0 UV-I 0 W/m 9,0 C 5,4 C 24,1 km/h (4 Bft) 100,00 %
14.10.2016 21:44 11,2 C 85 % 1009,0 hPa 0,0 l/m 17,2 km/h (3 Bft) O-NO 58 0 min 0,000 mm 0,0 UV-I 0 W/m 8,8 C 5,8 C 24,1 km/h (4 Bft) 100,00 %
14.10.2016 21:46 11,3 C 85 % 1008,9 hPa 0,0 l/m 14,6 km/h (3 Bft) O-NO 69 0 min 0,000 mm 0,0 UV-I 0 W/m 8,9 C 6,9 C 20,9 km/h (4 Bft) 97,87 %
14.10.2016 21:48 11,2 C 85 % 1008,9 hPa 0,0 l/m 15,3 km/h (3 Bft) O-NO 61 0 min 0,000 mm 0,0 UV-I 0 W/m 8,8 C 6,5 C 24,1 km/h (4 Bft) 100,00 %
14.10.2016 21:50 11,2 C 85 % 1009,0 hPa 0,0 l/m 13,8 km/h (3 Bft) NO 50 0 min 0,000 mm 0,0 UV-I 0 W/m 8,8 C 7,1 C 19,3 km/h (3 Bft) 98,00 %
14.10.2016 21:52 11,2 C 85 % 1009,0 hPa 0,0 l/m 15,6 km/h (3 Bft) O 82 0 min 0,000 mm 0,0 UV-I 0 W/m 8,8 C 6,4 C 22,5 km/h (4 Bft) 97,62 %
14.10.2016 21:54 11,2 C 86 % 1009,0 hPa 0,0 l/m 13,9 km/h (3 Bft) NO 40 0 min 0,000 mm 0,0 UV-I 0 W/m 8,9 C 7,0 C 20,9 km/h (4 Bft) 100,00 %
14.10.2016 21:56 11,2 C 86 % 1009,0 hPa 0,0 l/m 17,7 km/h (3 Bft) NO 53 0 min 0,000 mm 0,0 UV-I 0 W/m 8,9 C 5,6 C 25,7 km/h (4 Bft) 100,00 %
14.10.2016 21:58 11,2 C 86 % 1009,0 hPa 0,0 l/m 12,9 km/h (3 Bft) O-NO 73 0 min 0,000 mm 0,0 UV-I 0 W/m 8,9 C 7,5 C 20,9 km/h (4 Bft) 100,00 %
14.10.2016 22:00 11,2 C 85 % 1009,0 hPa 0,0 l/m 13,2 km/h (3 Bft) O-NO 71 0 min 0,000 mm 0,0 UV-I 0 W/m 8,8 C 7,3 C 19,3 km/h (3 Bft) 97,87 %
14.10.2016 22:02 11,2 C 85 % 1009,0 hPa 0,0 l/m 14,9 km/h (3 Bft) NO 56 0 min 0,025 mm 0,0 UV-I 0 W/m 8,8 C 6,6 C 20,9 km/h (4 Bft) 100,00 %
14.10.2016 22:04 11,1 C 86 % 1008,9 hPa 0,0 l/m 12,8 km/h (3 Bft) NO 47 0 min 0,000 mm 0,0 UV-I 0 W/m 8,8 C 7,4 C 22,5 km/h (4 Bft) 97,14 %
14.10.2016 22:06 11,1 C 86 % 1008,8 hPa 0,0 l/m 20,4 km/h (4 Bft) O-NO 58 0 min 0,000 mm 0,0 UV-I 0 W/m 8,8 C 4,6 C 29,0 km/h (5 Bft) 100,00 %
14.10.2016 22:08 11,1 C 86 % 1008,8 hPa 0,0 l/m 18,5 km/h (3 Bft) O-NO 66 0 min 0,000 mm 0,0 UV-I 0 W/m 8,8 C 5,2 C 25,7 km/h (4 Bft) 100,00 %
14.10.2016 22:10 11,1 C 86 % 1008,8 hPa 0,0 l/m 18,9 km/h (3 Bft) O-NO 71 0 min 0,000 mm 0,0 UV-I 0 W/m 8,8 C 5,1 C 27,4 km/h (4 Bft) 100,00 %
14.10.2016 22:12 11,1 C 86 % 1008,7 hPa 0,0 l/m 17,2 km/h (3 Bft) O-NO 76 0 min 0,000 mm 0,0 UV-I 0 W/m 8,8 C 5,6 C 22,5 km/h (4 Bft) 100,00 %
14.10.2016 22:14 11,1 C 86 % 1008,6 hPa 0,0 l/m 17,0 km/h (3 Bft) NO 56 0 min 0,000 mm 0,0 UV-I 0 W/m 8,8 C 5,7 C 27,4 km/h (4 Bft) 100,00 %
14.10.2016 22:16 11,0 C 86 % 1008,6 hPa 0,0 l/m 15,6 km/h (3 Bft) O-NO 66 0 min 0,000 mm 0,0 UV-I 0 W/m 8,7 C 6,1 C 22,5 km/h (4 Bft) 100,00 %
14.10.2016 22:18 11,0 C 86 % 1008,4 hPa 0,0 l/m 14,8 km/h (3 Bft) O-NO 57 0 min 0,000 mm 0,0 UV-I 0 W/m 8,7 C 6,4 C 19,3 km/h (3 Bft) 100,00 %
14.10.2016 22:20 10,9 C 86 % 1008,4 hPa 0,0 l/m 10,6 km/h (2 Bft) O-NO 59 0 min 0,000 mm 0,0 UV-I 0 W/m 8,7 C 8,3 C 16,1 km/h (3 Bft) 100,00 %
14.10.2016 22:22 10,9 C 86 % 1008,4 hPa 0,0 l/m 12,1 km/h (2 Bft) O-NO 64 0 min 0,000 mm 0,0 UV-I 0 W/m 8,7 C 7,5 C 16,1 km/h (3 Bft) 100,00 %
14.10.2016 22:24 10,9 C 87 % 1008,3 hPa 0,0 l/m 14,0 km/h (3 Bft) NO 42 0 min 0,000 mm 0,0 UV-I 0 W/m 8,8 C 6,6 C 19,3 km/h (3 Bft) 100,00 %
14.10.2016 22:26 10,8 C 87 % 1008,5 hPa 0,0 l/m 16,5 km/h (3 Bft) O-NO 59 0 min 0,000 mm 0,0 UV-I 0 W/m 8,7 C 5,5 C 22,5 km/h (4 Bft) 100,00 %
14.10.2016 22:28 10,8 C 87 % 1008,6 hPa 0,0 l/m 12,5 km/h (3 Bft) NO 36 0 min 0,000 mm 0,0 UV-I 0 W/m 8,7 C 7,2 C 16,1 km/h (3 Bft) 100,00 %
14.10.2016 22:30 10,8 C 87 % 1008,6 hPa 0,0 l/m 13,1 km/h (3 Bft) NO 55 0 min 0,000 mm 0,0 UV-I 0 W/m 8,7 C 6,9 C 19,3 km/h (3 Bft) 100,00 %
14.10.2016 22:32 10,8 C 87 % 1008,5 hPa 0,0 l/m 14,6 km/h (3 Bft) NO 46 0 min 0,000 mm 0,0 UV-I 0 W/m 8,7 C 6,3 C 24,1 km/h (4 Bft) 94,00 %
14.10.2016 22:34 10,8 C 87 % 1008,5 hPa 0,0 l/m 13,9 km/h (3 Bft) O-NO 71 0 min 0,000 mm 0,0 UV-I 0 W/m 8,7 C 6,6 C 19,3 km/h (3 Bft) 97,56 %
14.10.2016 22:36 10,8 C 87 % 1008,6 hPa 0,0 l/m 13,5 km/h (3 Bft) N-NO 33 0 min 0,000 mm 0,0 UV-I 0 W/m 8,7 C 6,7 C 20,9 km/h (4 Bft) 98,00 %
14.10.2016 22:38 10,8 C 87 % 1008,6 hPa 0,0 l/m 13,0 km/h (3 Bft) O-NO 60 0 min 0,000 mm 0,0 UV-I 0 W/m 8,7 C 7,0 C 17,7 km/h (3 Bft) 97,62 %
14.10.2016 22:40 10,8 C 87 % 1008,6 hPa 0,0 l/m 12,4 km/h (3 Bft) NO 40 0 min 0,000 mm 0,0 UV-I 0 W/m 8,7 C 7,2 C 20,9 km/h (4 Bft) 98,00 %
14.10.2016 22:42 10,8 C 87 % 1008,6 hPa 0,0 l/m 14,9 km/h (3 Bft) NO 42 0 min 0,000 mm 0,0 UV-I 0 W/m 8,7 C 6,1 C 20,9 km/h (4 Bft) 97,87 %
14.10.2016 22:44 10,8 C 87 % 1008,6 hPa 0,0 l/m 15,2 km/h (3 Bft) O-NO 78 0 min 0,000 mm 0,0 UV-I 0 W/m 8,7 C 6,0 C 22,5 km/h (4 Bft) 97,56 %
14.10.2016 22:46 10,8 C 87 % 1008,5 hPa 0,0 l/m 16,8 km/h (3 Bft) O-NO 59 0 min 0,000 mm 0,0 UV-I 0 W/m 8,7 C 5,4 C 25,7 km/h (4 Bft) 98,00 %
14.10.2016 22:48 10,8 C 87 % 1008,5 hPa 0,0 l/m 17,5 km/h (3 Bft) NO 40 0 min 0,000 mm 0,0 UV-I 0 W/m 8,7 C 5,2 C 22,5 km/h (4 Bft) 96,00 %
14.10.2016 22:50 10,8 C 87 % 1008,4 hPa 0,0 l/m 19,1 km/h (3 Bft) NO 46 0 min 0,000 mm 0,0 UV-I 0 W/m 8,7 C 4,6 C 29,0 km/h (5 Bft) 98,00 %
14.10.2016 22:52 10,9 C 87 % 1008,4 hPa 0,0 l/m 17,4 km/h (3 Bft) NO 47 0 min 0,000 mm 0,0 UV-I 0 W/m 8,8 C 5,3 C 25,7 km/h (4 Bft) 97,56 %
14.10.2016 22:54 10,9 C 87 % 1008,3 hPa 0,0 l/m 19,6 km/h (3 Bft) O-NO 65 0 min 0,000 mm 0,0 UV-I 0 W/m 8,8 C 4,6 C 25,7 km/h (4 Bft) 97,73 %
14.10.2016 22:56 10,9 C 87 % 1008,3 hPa 0,0 l/m 19,8 km/h (3 Bft) O-NO 61 0 min 0,000 mm 0,0 UV-I 0 W/m 8,8 C 4,5 C 25,7 km/h (4 Bft) 98,11 %
14.10.2016 22:58 10,9 C 87 % 1008,4 hPa 0,0 l/m 19,8 km/h (3 Bft) O-NO 63 0 min 0,000 mm 0,0 UV-I 0 W/m 8,8 C 4,5 C 25,7 km/h (4 Bft) 97,87 %
14.10.2016 23:00 10,8 C 87 % 1008,3 hPa 0,0 l/m 18,1 km/h (3 Bft) O-NO 76 0 min 0,000 mm 0,0 UV-I 0 W/m 8,7 C 4,9 C 24,1 km/h (4 Bft) 95,74 %
14.10.2016 23:02 10,8 C 87 % 1008,4 hPa 0,0 l/m 18,8 km/h (3 Bft) NO 48 0 min 0,025 mm 0,0 UV-I 0 W/m 8,7 C 4,7 C 25,7 km/h (4 Bft) 97,56 %
14.10.2016 23:04 10,8 C 88 % 1008,4 hPa 0,0 l/m 15,5 km/h (3 Bft) NO 42 0 min 0,000 mm 0,0 UV-I 0 W/m 8,9 C 5,9 C 20,9 km/h (4 Bft) 98,00 %
14.10.2016 23:06 10,8 C 88 % 1008,4 hPa 0,0 l/m 13,4 km/h (3 Bft) NO 55 0 min 0,000 mm 0,0 UV-I 0 W/m 8,9 C 6,8 C 19,3 km/h (3 Bft) 96,23 %
14.10.2016 23:08 10,8 C 88 % 1008,5 hPa 0,0 l/m 13,7 km/h (3 Bft) NO 53 0 min 0,000 mm 0,0 UV-I 0 W/m 8,9 C 6,7 C 20,9 km/h (4 Bft) 100,00 %
14.10.2016 23:10 10,8 C 88 % 1008,5 hPa 0,0 l/m 12,5 km/h (3 Bft) NO 38 0 min 0,000 mm 0,0 UV-I 0 W/m 8,9 C 7,2 C 19,3 km/h (3 Bft) 100,00 %
14.10.2016 23:12 10,8 C 88 % 1008,3 hPa 0,0 l/m 13,1 km/h (3 Bft) O-NO 68 0 min 0,000 mm 0,0 UV-I 0 W/m 8,9 C 6,9 C 22,5 km/h (4 Bft) 97,87 %
14.10.2016 23:14 10,7 C 88 % 1008,2 hPa 0,0 l/m 14,2 km/h (3 Bft) O-NO 76 0 min 0,000 mm 0,0 UV-I 0 W/m 8,8 C 6,3 C 17,7 km/h (3 Bft) 97,44 %
14.10.2016 23:16 10,7 C 88 % 1008,1 hPa 0,0 l/m 14,2 km/h (3 Bft) O-NO 64 0 min 0,000 mm 0,0 UV-I 0 W/m 8,8 C 6,3 C 17,7 km/h (3 Bft) 100,00 %
14.10.2016 23:18 10,7 C 88 % 1008,1 hPa 0,0 l/m 13,9 km/h (3 Bft) NO 51 0 min 0,000 mm 0,0 UV-I 0 W/m 8,8 C 6,4 C 17,7 km/h (3 Bft) 100,00 %
14.10.2016 23:20 10,7 C 88 % 1008,1 hPa 0,0 l/m 12,4 km/h (3 Bft) O-NO 72 0 min 0,000 mm 0,0 UV-I 0 W/m 8,8 C 7,1 C 16,1 km/h (3 Bft) 98,00 %
14.10.2016 23:22 10,7 C 88 % 1008,1 hPa 0,0 l/m 12,9 km/h (3 Bft) NO 53 0 min 0,000 mm 0,0 UV-I 0 W/m 8,8 C 6,9 C 17,7 km/h (3 Bft) 100,00 %
14.10.2016 23:24 10,7 C 88 % 1008,2 hPa 0,0 l/m 6,2 km/h (2 Bft) NO 34 0 min 0,000 mm 0,0 UV-I 0 W/m 8,8 C 10,7 C 11,3 km/h (2 Bft) 100,00 %
14.10.2016 23:26 10,7 C 88 % 1008,2 hPa 0,0 l/m 7,7 km/h (2 Bft) O-NO 58 0 min 0,000 mm 0,0 UV-I 0 W/m 8,8 C 9,8 C 14,5 km/h (3 Bft) 100,00 %
14.10.2016 23:28 10,6 C 89 % 1008,4 hPa 0,0 l/m 9,3 km/h (2 Bft) NO 50 0 min 0,000 mm 0,0 UV-I 0 W/m 8,9 C 8,7 C 14,5 km/h (3 Bft) 100,00 %
14.10.2016 23:30 10,6 C 89 % 1008,3 hPa 0,0 l/m 6,9 km/h (2 Bft) NO 38 0 min 0,000 mm 0,0 UV-I 0 W/m 8,9 C 10,3 C 11,3 km/h (2 Bft) 97,87 %
14.10.2016 23:32 10,6 C 89 % 1008,2 hPa 0,0 l/m 9,0 km/h (2 Bft) N 11 0 min 0,000 mm 0,0 UV-I 0 W/m 8,9 C 8,8 C 12,9 km/h (3 Bft) 93,62 %
14.10.2016 23:34 10,6 C 89 % 1008,3 hPa 0,0 l/m 10,9 km/h (2 Bft) NO 40 0 min 0,000 mm 0,0 UV-I 0 W/m 8,9 C 7,8 C 16,1 km/h (3 Bft) 100,00 %
14.10.2016 23:36 10,6 C 89 % 1008,2 hPa 0,0 l/m 7,6 km/h (2 Bft) NO 42 0 min 0,000 mm 0,0 UV-I 0 W/m 8,9 C 9,8 C 11,3 km/h (2 Bft) 97,56 %
14.10.2016 23:38 10,7 C 89 % 1008,2 hPa 0,0 l/m 10,2 km/h (2 Bft) NO 50 0 min 0,000 mm 0,0 UV-I 0 W/m 9,0 C 8,3 C 14,5 km/h (3 Bft) 100,00 %
14.10.2016 23:40 10,6 C 89 % 1008,1 hPa 0,0 l/m 10,1 km/h (2 Bft) NO 44 0 min 0,000 mm 0,0 UV-I 0 W/m 8,9 C 8,2 C 14,5 km/h (3 Bft) 100,00 %
14.10.2016 23:42 10,6 C 89 % 1008,1 hPa 0,0 l/m 10,9 km/h (2 Bft) N-NO 20 0 min 0,000 mm 0,0 UV-I 0 W/m 8,9 C 7,8 C 14,5 km/h (3 Bft) 100,00 %
14.10.2016 23:44 10,6 C 89 % 1008,1 hPa 0,0 l/m 11,3 km/h (2 Bft) O-NO 57 0 min 0,000 mm 0,0 UV-I 0 W/m 8,9 C 7,6 C 17,7 km/h (3 Bft) 100,00 %
14.10.2016 23:46 10,6 C 89 % 1008,1 hPa 0,0 l/m 12,0 km/h (2 Bft) O-NO 62 0 min 0,000 mm 0,0 UV-I 0 W/m 8,9 C 7,2 C 17,7 km/h (3 Bft) 100,00 %
14.10.2016 23:48 10,6 C 89 % 1008,1 hPa 0,0 l/m 11,7 km/h (2 Bft) NO 50 0 min 0,000 mm 0,0 UV-I 0 W/m 8,9 C 7,4 C 17,7 km/h (3 Bft) 100,00 %
14.10.2016 23:50 10,6 C 89 % 1008,1 hPa 0,0 l/m 10,7 km/h (2 Bft) NO 37 0 min 0,000 mm 0,0 UV-I 0 W/m 8,9 C 7,9 C 14,5 km/h (3 Bft) 100,00 %
14.10.2016 23:52 10,7 C 89 % 1008,1 hPa 0,0 l/m 10,1 km/h (2 Bft) NO 55 0 min 0,000 mm 0,0 UV-I 0 W/m 9,0 C 8,3 C 16,1 km/h (3 Bft) 100,00 %
14.10.2016 23:54 10,7 C 89 % 1008,1 hPa 0,0 l/m 12,7 km/h (3 Bft) O-NO 61 0 min 0,000 mm 0,0 UV-I 0 W/m 9,0 C 7,0 C 17,7 km/h (3 Bft) 100,00 %
14.10.2016 23:56 10,7 C 88 % 1008,2 hPa 0,0 l/m 11,9 km/h (2 Bft) NO 45 0 min 0,000 mm 0,0 UV-I 0 W/m 8,8 C 7,4 C 16,1 km/h (3 Bft) 100,00 %
14.10.2016 23:58 10,7 C 88 % 1008,2 hPa 0,0 l/m 9,9 km/h (2 Bft) NO 43 0 min 0,000 mm 0,0 UV-I 0 W/m 8,8 C 8,4 C 14,5 km/h (3 Bft) 97,62 %
_ Min-Zeit 05:38 13:50 23:16 - 05:44 - - - - - - 05:38 08:44 05:24 09:22
Minimum _ 5,1 C 77 % 1008,1 hPa - 3,1 km/h (1 Bft) - - - - - - 4,4 C -2,8 C 6,4 km/h (2 Bft) 90,24 %
_ Max-Zeit 13:50 05:26 00:10 00:00 18:46 - - 13:03 14:00 12:32 12:32 16:54 16:34 18:42 00:00
Maximum _ 13,3 C 96 % 1013,5 hPa 0,0 l/m 27,5 km/h
O-NO (4 Bft)
- - 3 min 0,280 mm 2,2 UV-I 593 W/m 10,0 C 10,8 C 40,2 km/h
O-NO (6 Bft)
100,00 %
Durchschnitt _ 9,0 C 89 % 1011,1 hPa #0,0 l/m 15,4 km/h (3 Bft) O-NO - #3:20 h #1,422 mm 1,3 UV-I 206 W/m 7,2 C 4,2 C 22,2 km/h (4 Bft) 98,75 %